GEFSSE_prec_meanprecacc_120.txt.gz
Total_Precipitation_Accumulation
0.04 0.06 0.11 0.12 0.06 0.05 0.09 0.12 0.14 0.13 0.11 0.09 0.08 0.06 0.04 0.03 0.03 0.03 0.03 0.04 0.06 0.08 0.09 0.10 0.12 0.11 0.10 0.11 0.12 0.11 0.10 0.13 0.21 0.23 0.31 0.36 0.43 0.59 0.72 0.86 1.01 0.76 0.52
0.02 0.04 0.11 0.13 0.08 0.06 0.08 0.11 0.12 0.12 0.10 0.09 0.07 0.05 0.04 0.03 0.03 0.04 0.04 0.05 0.07 0.08 0.09 0.08 0.09 0.09 0.08 0.08 0.09 0.09 0.08 0.15 0.26 0.38 0.47 0.49 0.56 0.73 0.74 0.77 0.96 0.64 0.48
0.03 0.04 0.08 0.13 0.08 0.07 0.07 0.08 0.09 0.10 0.09 0.09 0.06 0.04 0.04 0.05 0.05 0.06 0.06 0.06 0.07 0.08 0.08 0.07 0.08 0.08 0.08 0.07 0.08 0.09 0.11 0.22 0.39 0.62 0.92 0.77 0.48 0.69 0.71 0.72 0.70 0.45 0.37
0.04 0.04 0.04 0.08 0.10 0.07 0.07 0.08 0.10 0.10 0.08 0.08 0.06 0.05 0.05 0.05 0.05 0.06 0.07 0.07 0.07 0.07 0.07 0.06 0.07 0.07 0.07 0.09 0.09 0.11 0.14 0.23 0.42 0.73 1.09 0.77 0.41 0.49 0.55 0.54 0.48 0.34 0.30
0.04 0.03 0.04 0.06 0.08 0.07 0.07 0.08 0.09 0.09 0.08 0.07 0.06 0.05 0.05 0.06 0.06 0.07 0.07 0.07 0.07 0.09 0.09 0.09 0.08 0.05 0.05 0.06 0.09 0.13 0.17 0.27 0.48 0.73 0.69 0.75 0.77 0.54 0.46 0.46 0.43 0.33 0.28
0.05 0.04 0.05 0.08 0.09 0.08 0.08 0.09 0.10 0.09 0.07 0.06 0.06 0.06 0.06 0.07 0.08 0.08 0.08 0.08 0.09 0.10 0.10 0.10 0.08 0.07 0.06 0.07 0.10 0.14 0.22 0.35 0.56 0.55 0.46 0.58 0.66 0.53 0.51 0.50 0.42 0.35 0.32
0.05 0.05 0.06 0.10 0.10 0.09 0.09 0.10 0.09 0.08 0.07 0.07 0.06 0.06 0.07 0.08 0.09 0.10 0.10 0.09 0.10 0.11 0.12 0.10 0.07 0.07 0.07 0.09 0.13 0.16 0.25 0.40 0.54 0.51 0.52 0.67 0.68 0.54 0.75 0.82 0.63 0.45 0.32
0.05 0.05 0.07 0.10 0.10 0.10 0.10 0.10 0.10 0.09 0.08 0.08 0.08 0.08 0.08 0.10 0.11 0.12 0.11 0.11 0.11 0.13 0.14 0.12 0.10 0.09 0.08 0.09 0.13 0.19 0.28 0.34 0.44 0.50 0.64 0.76 0.58 0.58 0.94 1.07 0.94 0.75 0.52
0.10 0.07 0.08 0.09 0.11 0.12 0.12 0.12 0.11 0.11 0.10 0.10 0.10 0.11 0.11 0.12 0.13 0.14 0.15 0.15 0.15 0.18 0.18 0.17 0.17 0.15 0.11 0.12 0.16 0.25 0.32 0.37 0.44 0.54 0.65 0.76 0.57 0.66 1.03 1.07 0.91 0.80 0.64
0.27 0.23 0.18 0.16 0.17 0.16 0.14 0.14 0.14 0.13 0.13 0.12 0.12 0.15 0.17 0.18 0.20 0.23 0.23 0.22 0.26 0.28 0.29 0.29 0.30 0.29 0.27 0.23 0.24 0.27 0.31 0.30 0.38 0.55 0.75 0.75 0.61 0.86 1.15 1.16 1.09 0.97 0.77
0.40 0.40 0.33 0.28 0.24 0.24 0.21 0.18 0.22 0.22 0.21 0.20 0.24 0.26 0.32 0.46 0.53 0.56 0.48 0.49 0.49 0.51 0.52 0.53 0.53 0.54 0.51 0.44 0.42 0.41 0.33 0.34 0.59 0.62 0.77 0.74 0.78 1.06 1.27 1.32 1.29 1.18 1.02
0.57 0.41 0.43 0.40 0.31 0.29 0.30 0.35 0.49 0.50 0.52 0.52 0.60 0.61 0.74 0.84 0.78 0.66 0.70 0.86 0.92 0.99 0.98 0.97 1.04 0.99 0.80 0.61 0.73 0.94 0.49 0.44 0.58 0.59 0.66 0.73 0.91 1.18 1.41 1.45 1.32 1.22 1.15
0.70 0.52 0.48 0.54 0.45 0.39 0.51 0.50 0.62 0.80 0.97 0.97 0.96 1.06 1.15 1.05 0.89 0.80 0.94 1.15 1.22 1.32 1.33 1.48 1.64 1.35 1.30 1.22 1.22 1.18 0.82 0.76 0.75 0.69 0.90 1.08 1.20 1.47 1.66 1.57 1.48 1.36 1.26
0.99 0.94 0.88 0.89 0.89 0.80 0.78 0.80 0.78 0.83 0.95 1.09 1.13 1.14 1.32 1.32 1.27 1.20 1.18 1.22 1.30 1.41 1.62 1.70 1.81 1.85 1.89 1.64 1.47 1.38 1.22 1.16 1.06 1.09 1.36 1.54 1.54 1.71 1.91 1.79 1.65 1.53 1.43
1.62 1.69 1.71 1.56 1.40 1.40 1.37 1.22 0.96 0.97 0.97 1.03 1.20 1.27 1.45 1.55 1.59 1.60 1.48 1.44 1.30 1.44 1.72 1.91 1.86 2.01 2.14 1.97 1.70 1.58 1.43 1.29 1.23 1.27 1.46 1.63 1.51 1.56 1.82 1.95 1.90 1.78 1.72
2.34 2.58 2.47 2.30 2.04 1.90 1.81 1.64 1.43 1.26 1.23 1.17 1.27 1.40 1.64 1.77 1.80 1.82 1.68 1.58 1.33 1.37 1.59 1.84 1.87 2.03 2.01 2.02 1.66 1.54 1.42 1.42 1.32 1.30 1.43 1.61 1.56 1.43 1.52 1.80 1.99 2.06 2.01
2.86 3.02 2.83 2.84 2.81 2.52 2.33 2.01 1.68 1.43 1.29 1.38 1.57 1.76 1.90 2.01 2.05 2.04 1.87 1.59 1.44 1.61 1.70 1.70 1.75 2.13 1.97 1.82 1.62 1.68 1.64 1.58 1.42 1.38 1.43 1.55 1.39 1.32 1.31 1.44 1.70 1.94 2.20
3.12 3.18 3.15 2.95 3.24 3.14 2.77 2.40 2.13 1.95 1.89 1.79 1.83 2.00 1.95 1.95 2.00 2.14 1.83 1.50 1.63 1.81 1.77 1.70 1.74 1.96 1.96 2.03 1.91 1.77 1.67 1.55 1.23 1.20 1.24 1.25 1.33 1.11 1.21 1.42 1.55 1.64 2.05
3.42 3.62 3.68 3.75 3.74 3.39 3.02 2.70 2.51 2.32 2.15 1.88 1.63 1.54 1.43 1.38 1.42 1.46 1.16 1.08 1.31 1.39 1.27 1.23 1.49 1.66 1.68 1.80 1.77 1.56 1.37 1.20 1.04 0.99 1.01 0.88 0.98 1.01 1.04 1.24 1.43 1.51 1.88
3.59 4.18 4.37 4.24 3.79 3.28 2.84 2.47 2.28 2.01 1.83 1.61 1.37 1.21 1.02 0.97 0.98 1.00 0.80 0.79 1.03 1.09 1.05 1.16 1.25 1.28 1.23 1.29 1.19 0.98 0.94 0.80 0.81 0.78 0.69 0.71 0.73 0.74 0.86 1.04 1.28 1.19 1.61
3.86 4.61 4.69 4.14 3.54 2.98 2.47 2.06 1.76 1.46 1.30 1.23 1.04 0.91 0.87 0.86 0.85 0.93 0.79 0.87 1.00 1.01 1.01 1.05 1.09 1.01 0.85 1.01 1.08 0.83 0.66 0.60 0.61 0.56 0.55 0.55 0.51 0.59 0.79 0.99 1.17 1.24 1.18
3.47 4.01 3.94 3.43 2.79 2.12 1.70 1.54 1.40 1.22 1.00 0.84 0.74 0.73 0.64 0.66 0.70 0.79 0.75 0.65 0.69 0.72 0.67 0.71 0.88 0.89 0.77 0.89 1.00 0.89 0.67 0.64 0.57 0.40 0.44 0.45 0.45 0.57 0.73 0.83 1.05 1.24 1.24
3.00 2.87 2.70 2.30 1.75 1.42 1.18 1.08 0.99 0.91 0.79 0.63 0.54 0.51 0.45 0.44 0.46 0.52 0.54 0.55 0.61 0.67 0.66 0.66 0.69 0.73 0.66 0.66 0.80 0.93 0.75 0.56 0.48 0.42 0.41 0.40 0.47 0.62 0.71 0.87 0.94 1.02 1.14
2.13 1.83 1.63 1.50 1.25 1.06 0.92 0.82 0.75 0.63 0.61 0.52 0.45 0.41 0.36 0.35 0.35 0.36 0.38 0.39 0.47 0.56 0.63 0.56 0.56 0.60 0.59 0.51 0.57 0.66 0.67 0.63 0.58 0.46 0.43 0.45 0.49 0.61 0.76 0.86 0.97 1.00 1.04
1.21 1.12 1.13 1.20 1.11 1.02 0.93 0.88 0.85 0.63 0.52 0.46 0.40 0.37 0.32 0.32 0.33 0.31 0.31 0.33 0.36 0.39 0.42 0.44 0.51 0.54 0.55 0.50 0.50 0.56 0.64 0.66 0.66 0.59 0.50 0.48 0.45 0.42 0.58 0.76 0.91 0.97 0.94
0.62 0.69 0.81 0.99 1.05 0.98 0.87 0.81 0.75 0.63 0.53 0.44 0.36 0.34 0.30 0.30 0.32 0.33 0.34 0.36 0.36 0.36 0.38 0.39 0.42 0.45 0.50 0.55 0.53 0.57 0.66 0.70 0.67 0.66 0.59 0.52 0.49 0.43 0.48 0.65 0.91 1.04 1.01

GEFSSE_prec_meanprecacc_126.txt.gz
Total_Precipitation_Accumulation
0.06 0.07 0.12 0.13 0.06 0.06 0.09 0.13 0.14 0.13 0.11 0.09 0.08 0.06 0.04 0.03 0.03 0.03 0.04 0.05 0.07 0.08 0.09 0.11 0.13 0.13 0.11 0.12 0.14 0.13 0.13 0.16 0.24 0.27 0.33 0.38 0.46 0.63 0.76 0.89 1.03 0.78 0.54
0.02 0.04 0.12 0.13 0.08 0.06 0.08 0.11 0.12 0.13 0.11 0.09 0.07 0.05 0.04 0.03 0.04 0.04 0.05 0.06 0.07 0.09 0.09 0.09 0.11 0.10 0.08 0.09 0.10 0.11 0.11 0.18 0.31 0.43 0.52 0.52 0.59 0.76 0.77 0.80 0.98 0.66 0.50
0.03 0.05 0.08 0.13 0.09 0.07 0.07 0.09 0.10 0.10 0.09 0.09 0.06 0.05 0.04 0.05 0.05 0.06 0.06 0.07 0.08 0.09 0.09 0.08 0.09 0.08 0.08 0.08 0.09 0.10 0.13 0.27 0.45 0.69 0.98 0.79 0.50 0.73 0.75 0.76 0.72 0.47 0.39
0.05 0.04 0.04 0.08 0.10 0.07 0.07 0.08 0.10 0.10 0.09 0.08 0.06 0.05 0.05 0.06 0.06 0.07 0.08 0.08 0.08 0.08 0.08 0.07 0.08 0.07 0.07 0.10 0.11 0.13 0.17 0.28 0.48 0.78 1.12 0.78 0.42 0.51 0.58 0.56 0.50 0.36 0.31
0.05 0.03 0.04 0.06 0.08 0.07 0.07 0.08 0.09 0.09 0.08 0.07 0.06 0.06 0.07 0.07 0.07 0.07 0.08 0.08 0.08 0.09 0.10 0.10 0.09 0.06 0.05 0.07 0.11 0.15 0.21 0.33 0.57 0.80 0.72 0.76 0.77 0.56 0.48 0.48 0.45 0.35 0.30
0.06 0.04 0.05 0.09 0.09 0.08 0.08 0.09 0.10 0.09 0.08 0.07 0.07 0.07 0.08 0.08 0.09 0.09 0.09 0.09 0.09 0.11 0.11 0.11 0.09 0.07 0.07 0.08 0.11 0.17 0.26 0.41 0.63 0.61 0.49 0.59 0.67 0.55 0.52 0.52 0.44 0.36 0.33
0.06 0.05 0.06 0.10 0.10 0.09 0.09 0.10 0.09 0.09 0.08 0.07 0.07 0.07 0.09 0.10 0.10 0.10 0.10 0.10 0.10 0.12 0.12 0.11 0.08 0.08 0.09 0.12 0.15 0.19 0.30 0.49 0.62 0.58 0.57 0.69 0.69 0.56 0.76 0.83 0.65 0.47 0.33
0.05 0.05 0.07 0.11 0.10 0.10 0.10 0.11 0.10 0.09 0.09 0.08 0.08 0.09 0.09 0.11 0.12 0.12 0.12 0.11 0.12 0.13 0.14 0.12 0.10 0.10 0.10 0.11 0.15 0.22 0.33 0.44 0.54 0.58 0.68 0.78 0.59 0.60 0.96 1.08 0.95 0.76 0.53
0.11 0.07 0.09 0.09 0.11 0.12 0.13 0.12 0.12 0.11 0.11 0.10 0.11 0.11 0.12 0.12 0.13 0.15 0.15 0.15 0.15 0.18 0.19 0.18 0.17 0.15 0.12 0.13 0.18 0.28 0.38 0.46 0.56 0.67 0.69 0.78 0.58 0.67 1.04 1.08 0.93 0.82 0.65
0.29 0.23 0.18 0.16 0.17 0.16 0.15 0.15 0.15 0.14 0.13 0.13 0.13 0.15 0.17 0.19 0.21 0.24 0.23 0.23 0.26 0.28 0.29 0.30 0.31 0.30 0.28 0.24 0.26 0.30 0.37 0.40 0.56 0.72 0.79 0.76 0.63 0.87 1.15 1.16 1.10 0.98 0.78
0.45 0.45 0.34 0.28 0.24 0.24 0.21 0.19 0.22 0.22 0.21 0.20 0.25 0.27 0.32 0.47 0.53 0.56 0.48 0.49 0.49 0.51 0.53 0.53 0.54 0.54 0.52 0.45 0.45 0.46 0.41 0.49 0.83 0.81 0.83 0.76 0.80 1.06 1.28 1.32 1.30 1.19 1.03
0.63 0.47 0.46 0.42 0.32 0.30 0.30 0.36 0.50 0.50 0.53 0.53 0.60 0.62 0.75 0.84 0.80 0.67 0.71 0.86 0.92 1.00 0.99 0.98 1.05 0.99 0.81 0.63 0.77 1.01 0.63 0.60 0.78 0.78 0.72 0.77 0.93 1.19 1.42 1.46 1.33 1.23 1.16
0.84 0.62 0.57 0.68 0.57 0.46 0.54 0.52 0.63 0.81 0.98 0.98 0.97 1.07 1.16 1.06 0.91 0.82 0.95 1.16 1.23 1.33 1.33 1.49 1.65 1.37 1.32 1.27 1.30 1.28 0.94 0.93 0.90 0.83 0.96 1.14 1.24 1.49 1.67 1.58 1.49 1.37 1.26
1.30 1.16 1.05 1.12 1.06 0.95 0.86 0.87 0.83 0.85 0.96 1.10 1.15 1.16 1.34 1.35 1.30 1.22 1.20 1.23 1.31 1.41 1.63 1.72 1.84 1.89 1.94 1.72 1.57 1.48 1.33 1.26 1.16 1.19 1.43 1.60 1.60 1.75 1.93 1.81 1.67 1.55 1.45
1.94 2.00 1.95 1.76 1.58 1.58 1.51 1.32 1.05 1.02 1.00 1.05 1.24 1.30 1.47 1.57 1.62 1.63 1.50 1.45 1.31 1.45 1.73 1.92 1.88 2.04 2.19 2.08 1.80 1.65 1.51 1.39 1.32 1.32 1.50 1.67 1.56 1.61 1.86 1.96 1.92 1.80 1.74
2.62 2.87 2.72 2.50 2.20 2.03 1.94 1.78 1.59 1.35 1.30 1.22 1.31 1.43 1.66 1.80 1.83 1.84 1.70 1.59 1.34 1.38 1.61 1.85 1.89 2.06 2.04 2.07 1.72 1.59 1.48 1.49 1.38 1.35 1.47 1.64 1.60 1.47 1.56 1.84 2.03 2.09 2.03
3.13 3.36 3.15 3.10 3.03 2.73 2.51 2.19 1.85 1.56 1.40 1.46 1.62 1.80 1.94 2.04 2.07 2.06 1.88 1.60 1.45 1.62 1.72 1.72 1.77 2.15 1.99 1.85 1.66 1.73 1.68 1.62 1.46 1.40 1.45 1.57 1.41 1.36 1.35 1.47 1.74 1.97 2.24
3.33 3.47 3.50 3.33 3.65 3.43 2.99 2.61 2.33 2.12 2.03 1.93 1.92 2.06 1.99 1.97 2.01 2.15 1.83 1.51 1.64 1.82 1.78 1.71 1.76 1.99 1.98 2.06 1.94 1.80 1.71 1.57 1.26 1.22 1.25 1.26 1.34 1.13 1.23 1.46 1.58 1.67 2.08
3.68 3.96 4.03 4.12 4.18 3.72 3.27 2.93 2.76 2.57 2.40 2.08 1.75 1.59 1.47 1.41 1.44 1.49 1.19 1.09 1.32 1.41 1.28 1.24 1.50 1.67 1.69 1.80 1.78 1.57 1.38 1.23 1.07 1.02 1.05 0.92 1.00 1.03 1.05 1.27 1.47 1.54 1.93
3.83 4.47 4.68 4.54 4.08 3.56 3.06 2.65 2.47 2.21 2.05 1.84 1.52 1.28 1.07 1.00 1.00 1.01 0.81 0.80 1.04 1.11 1.07 1.18 1.26 1.29 1.23 1.30 1.20 0.99 0.95 0.83 0.84 0.82 0.73 0.75 0.76 0.76 0.87 1.05 1.30 1.21 1.65
3.99 4.79 4.91 4.36 3.76 3.23 2.67 2.19 1.88 1.59 1.42 1.40 1.19 1.00 0.92 0.89 0.87 0.94 0.80 0.88 1.01 1.02 1.02 1.08 1.11 1.02 0.86 1.01 1.09 0.86 0.70 0.63 0.63 0.58 0.57 0.58 0.53 0.61 0.82 1.00 1.18 1.24 1.20
3.56 4.14 4.11 3.59 2.94 2.27 1.84 1.64 1.50 1.32 1.08 0.95 0.88 0.83 0.69 0.70 0.73 0.81 0.77 0.66 0.70 0.73 0.67 0.72 0.89 0.90 0.77 0.89 1.00 0.92 0.70 0.66 0.58 0.41 0.45 0.47 0.47 0.59 0.74 0.84 1.06 1.24 1.24
3.08 2.96 2.80 2.44 1.88 1.52 1.29 1.18 1.08 1.04 0.92 0.75 0.66 0.59 0.50 0.48 0.50 0.55 0.56 0.57 0.62 0.68 0.66 0.66 0.69 0.73 0.67 0.66 0.80 0.94 0.76 0.57 0.49 0.43 0.42 0.41 0.48 0.62 0.72 0.88 0.94 1.03 1.15
2.20 1.92 1.74 1.65 1.39 1.16 1.01 0.90 0.81 0.69 0.66 0.59 0.52 0.47 0.41 0.39 0.38 0.39 0.41 0.41 0.48 0.57 0.64 0.57 0.57 0.60 0.60 0.52 0.57 0.66 0.67 0.64 0.58 0.47 0.44 0.45 0.50 0.62 0.77 0.86 0.97 1.01 1.05
1.34 1.26 1.29 1.36 1.27 1.13 1.02 0.96 0.90 0.68 0.57 0.51 0.47 0.44 0.39 0.37 0.36 0.34 0.34 0.35 0.38 0.40 0.43 0.45 0.52 0.54 0.55 0.51 0.50 0.56 0.64 0.67 0.67 0.59 0.51 0.49 0.46 0.43 0.58 0.76 0.91 0.97 0.95
0.75 0.82 0.96 1.15 1.17 1.08 0.98 0.92 0.82 0.69 0.58 0.48 0.42 0.40 0.36 0.36 0.36 0.36 0.37 0.38 0.38 0.37 0.39 0.40 0.43 0.45 0.51 0.55 0.54 0.57 0.66 0.71 0.67 0.66 0.59 0.53 0.49 0.44 0.48 0.65 0.91 1.04 1.01

GEFSSE_prec_meanprecacc_132.txt.gz
Total_Precipitation_Accumulation
0.06 0.08 0.13 0.14 0.07 0.07 0.09 0.13 0.14 0.14 0.11 0.10 0.08 0.07 0.05 0.03 0.04 0.04 0.04 0.05 0.07 0.10 0.11 0.13 0.15 0.14 0.14 0.15 0.17 0.17 0.17 0.21 0.28 0.31 0.37 0.44 0.56 0.72 0.83 0.93 1.05 0.80 0.58
0.02 0.05 0.13 0.14 0.09 0.07 0.09 0.11 0.12 0.13 0.11 0.09 0.07 0.06 0.05 0.04 0.04 0.05 0.05 0.07 0.08 0.10 0.10 0.10 0.12 0.11 0.10 0.11 0.12 0.14 0.16 0.23 0.37 0.49 0.59 0.59 0.66 0.82 0.81 0.82 1.00 0.69 0.53
0.03 0.05 0.09 0.15 0.10 0.08 0.07 0.09 0.10 0.10 0.10 0.09 0.07 0.05 0.05 0.05 0.06 0.07 0.07 0.08 0.09 0.10 0.10 0.09 0.10 0.10 0.10 0.10 0.11 0.13 0.19 0.33 0.53 0.77 1.06 0.81 0.53 0.78 0.79 0.79 0.75 0.52 0.44
0.06 0.05 0.05 0.09 0.11 0.07 0.07 0.08 0.10 0.10 0.09 0.08 0.07 0.05 0.06 0.06 0.07 0.08 0.09 0.09 0.09 0.11 0.10 0.08 0.10 0.09 0.09 0.12 0.13 0.16 0.22 0.35 0.55 0.83 1.14 0.79 0.44 0.56 0.63 0.61 0.53 0.40 0.36
0.06 0.04 0.05 0.07 0.08 0.07 0.07 0.08 0.10 0.10 0.08 0.08 0.07 0.07 0.07 0.08 0.08 0.09 0.09 0.09 0.10 0.11 0.11 0.11 0.10 0.07 0.08 0.10 0.14 0.20 0.27 0.38 0.62 0.81 0.73 0.77 0.80 0.63 0.52 0.51 0.48 0.38 0.34
0.06 0.05 0.06 0.09 0.09 0.09 0.09 0.09 0.10 0.09 0.08 0.07 0.07 0.07 0.09 0.09 0.10 0.10 0.10 0.10 0.11 0.12 0.13 0.13 0.11 0.10 0.10 0.12 0.16 0.23 0.33 0.48 0.67 0.62 0.50 0.61 0.70 0.60 0.55 0.54 0.47 0.39 0.35
0.06 0.06 0.07 0.11 0.11 0.09 0.09 0.10 0.10 0.09 0.08 0.08 0.07 0.08 0.10 0.11 0.12 0.11 0.11 0.11 0.12 0.13 0.13 0.12 0.10 0.10 0.12 0.17 0.22 0.26 0.39 0.56 0.64 0.59 0.58 0.70 0.72 0.61 0.80 0.87 0.68 0.49 0.36
0.06 0.06 0.08 0.11 0.11 0.10 0.10 0.11 0.11 0.10 0.09 0.09 0.09 0.10 0.10 0.12 0.12 0.13 0.13 0.12 0.13 0.14 0.15 0.14 0.11 0.13 0.13 0.15 0.22 0.29 0.42 0.49 0.56 0.58 0.69 0.79 0.62 0.65 1.00 1.13 0.99 0.80 0.55
0.12 0.08 0.10 0.10 0.11 0.13 0.13 0.13 0.12 0.12 0.11 0.11 0.12 0.12 0.12 0.13 0.14 0.15 0.16 0.16 0.16 0.20 0.20 0.19 0.19 0.18 0.15 0.16 0.24 0.35 0.46 0.53 0.58 0.67 0.70 0.79 0.60 0.71 1.08 1.13 0.98 0.87 0.67
0.31 0.25 0.19 0.17 0.18 0.17 0.15 0.16 0.15 0.15 0.14 0.14 0.14 0.16 0.18 0.20 0.22 0.25 0.24 0.24 0.26 0.29 0.31 0.31 0.32 0.31 0.29 0.27 0.30 0.37 0.47 0.46 0.57 0.72 0.79 0.78 0.65 0.90 1.19 1.20 1.14 1.02 0.82
0.48 0.48 0.35 0.29 0.25 0.25 0.22 0.20 0.23 0.23 0.23 0.22 0.26 0.28 0.34 0.47 0.54 0.57 0.49 0.50 0.50 0.51 0.53 0.54 0.55 0.56 0.53 0.47 0.49 0.52 0.48 0.52 0.84 0.81 0.83 0.78 0.84 1.10 1.31 1.36 1.34 1.24 1.08
0.64 0.49 0.49 0.43 0.33 0.30 0.31 0.37 0.51 0.52 0.54 0.54 0.61 0.63 0.75 0.84 0.80 0.67 0.72 0.88 0.93 1.00 1.00 0.99 1.07 1.01 0.82 0.63 0.80 1.06 0.66 0.62 0.80 0.79 0.72 0.79 0.97 1.24 1.47 1.52 1.38 1.27 1.20
0.87 0.65 0.62 0.72 0.60 0.47 0.56 0.54 0.65 0.82 0.99 0.98 0.98 1.07 1.16 1.06 0.91 0.82 0.95 1.16 1.23 1.33 1.34 1.50 1.66 1.38 1.33 1.28 1.32 1.30 0.96 0.96 0.91 0.83 0.97 1.17 1.28 1.55 1.73 1.65 1.55 1.41 1.30
1.36 1.26 1.17 1.21 1.12 0.98 0.89 0.90 0.85 0.87 0.98 1.11 1.16 1.16 1.34 1.35 1.31 1.22 1.20 1.23 1.31 1.41 1.63 1.72 1.84 1.90 1.94 1.74 1.59 1.51 1.36 1.29 1.17 1.21 1.44 1.64 1.65 1.82 2.01 1.89 1.74 1.59 1.49
2.07 2.11 2.03 1.83 1.63 1.63 1.55 1.37 1.11 1.07 1.03 1.07 1.26 1.32 1.48 1.58 1.63 1.63 1.51 1.46 1.32 1.45 1.73 1.93 1.89 2.04 2.20 2.10 1.82 1.67 1.54 1.41 1.34 1.33 1.52 1.73 1.62 1.67 1.93 2.03 1.96 1.83 1.78
2.82 3.09 2.84 2.60 2.29 2.12 2.02 1.84 1.65 1.42 1.34 1.25 1.33 1.45 1.68 1.81 1.84 1.85 1.71 1.60 1.35 1.39 1.62 1.86 1.89 2.07 2.06 2.08 1.74 1.61 1.50 1.50 1.40 1.37 1.48 1.67 1.66 1.52 1.63 1.93 2.12 2.17 2.10
3.40 3.75 3.40 3.29 3.21 2.88 2.63 2.29 1.94 1.62 1.44 1.50 1.66 1.83 1.97 2.07 2.10 2.06 1.89 1.61 1.46 1.63 1.72 1.73 1.79 2.17 2.01 1.87 1.68 1.74 1.70 1.63 1.47 1.41 1.46 1.58 1.44 1.40 1.40 1.54 1.82 2.07 2.34
3.62 3.87 3.86 3.53 3.88 3.71 3.23 2.78 2.42 2.17 2.07 1.97 1.96 2.09 2.02 2.01 2.04 2.16 1.84 1.51 1.65 1.83 1.80 1.73 1.78 2.01 2.00 2.08 1.95 1.82 1.72 1.58 1.26 1.23 1.26 1.28 1.36 1.16 1.28 1.52 1.65 1.75 2.19
3.95 4.30 4.35 4.34 4.43 3.99 3.46 3.05 2.86 2.64 2.47 2.15 1.79 1.62 1.50 1.44 1.47 1.50 1.19 1.10 1.33 1.42 1.30 1.26 1.52 1.69 1.71 1.82 1.80 1.58 1.39 1.24 1.08 1.03 1.06 0.93 1.02 1.05 1.09 1.34 1.55 1.61 2.01
4.04 4.76 4.97 4.84 4.33 3.76 3.21 2.77 2.61 2.35 2.17 1.92 1.56 1.32 1.11 1.04 1.03 1.03 0.82 0.80 1.05 1.12 1.08 1.20 1.28 1.30 1.25 1.32 1.21 1.00 0.96 0.83 0.85 0.84 0.75 0.76 0.77 0.77 0.88 1.07 1.33 1.24 1.71
4.16 5.01 5.18 4.72 4.07 3.42 2.80 2.28 1.97 1.69 1.52 1.48 1.26 1.05 0.97 0.95 0.91 0.96 0.82 0.89 1.02 1.03 1.03 1.09 1.11 1.03 0.87 1.03 1.10 0.87 0.70 0.64 0.64 0.59 0.58 0.59 0.54 0.62 0.82 1.00 1.18 1.25 1.21
3.65 4.29 4.36 3.88 3.20 2.47 1.97 1.75 1.61 1.44 1.21 1.06 0.98 0.90 0.75 0.76 0.77 0.82 0.78 0.67 0.71 0.74 0.68 0.72 0.90 0.91 0.79 0.90 1.00 0.92 0.70 0.67 0.59 0.42 0.46 0.48 0.48 0.60 0.75 0.85 1.07 1.24 1.24
3.15 3.06 3.01 2.68 2.08 1.68 1.43 1.32 1.20 1.15 1.05 0.87 0.76 0.66 0.55 0.52 0.53 0.57 0.57 0.57 0.62 0.68 0.67 0.66 0.70 0.74 0.68 0.67 0.81 0.94 0.77 0.57 0.49 0.44 0.43 0.42 0.49 0.63 0.72 0.88 0.95 1.03 1.15
2.27 2.02 1.91 1.87 1.58 1.33 1.16 1.03 0.89 0.75 0.73 0.65 0.59 0.54 0.48 0.44 0.43 0.42 0.43 0.42 0.48 0.58 0.65 0.58 0.57 0.60 0.60 0.52 0.58 0.66 0.68 0.64 0.58 0.47 0.44 0.45 0.50 0.62 0.77 0.86 0.97 1.01 1.05
1.40 1.35 1.43 1.58 1.54 1.37 1.21 1.10 1.00 0.76 0.65 0.58 0.55 0.51 0.46 0.44 0.40 0.37 0.37 0.37 0.38 0.41 0.44 0.46 0.53 0.55 0.56 0.51 0.50 0.56 0.64 0.67 0.67 0.59 0.51 0.49 0.46 0.43 0.58 0.76 0.91 0.97 0.95
0.81 0.89 1.05 1.35 1.43 1.34 1.22 1.12 0.97 0.79 0.67 0.56 0.47 0.44 0.41 0.41 0.42 0.40 0.39 0.40 0.40 0.38 0.40 0.41 0.43 0.46 0.51 0.55 0.54 0.57 0.66 0.71 0.67 0.66 0.59 0.53 0.49 0.44 0.48 0.65 0.91 1.04 1.02

GEFSSE_prec_meanprecacc_138.txt.gz
Total_Precipitation_Accumulation
0.06 0.08 0.14 0.15 0.07 0.07 0.10 0.15 0.17 0.16 0.13 0.11 0.09 0.08 0.06 0.04 0.04 0.04 0.05 0.07 0.10 0.12 0.14 0.16 0.18 0.17 0.18 0.20 0.20 0.20 0.20 0.25 0.34 0.39 0.48 0.54 0.64 0.81 0.93 1.02 1.12 0.84 0.61
0.02 0.05 0.13 0.15 0.09 0.07 0.09 0.12 0.14 0.14 0.12 0.10 0.08 0.06 0.05 0.04 0.04 0.05 0.06 0.08 0.10 0.12 0.13 0.13 0.15 0.14 0.15 0.14 0.15 0.17 0.20 0.28 0.44 0.58 0.69 0.68 0.74 0.92 0.88 0.89 1.06 0.72 0.57
0.03 0.05 0.10 0.15 0.10 0.08 0.07 0.09 0.10 0.10 0.10 0.09 0.07 0.05 0.05 0.05 0.06 0.08 0.09 0.10 0.12 0.13 0.13 0.12 0.14 0.13 0.13 0.13 0.15 0.17 0.24 0.39 0.61 0.86 1.14 0.91 0.60 0.85 0.86 0.86 0.81 0.57 0.48
0.06 0.05 0.05 0.10 0.11 0.07 0.07 0.09 0.10 0.10 0.09 0.09 0.07 0.06 0.07 0.07 0.08 0.09 0.11 0.11 0.14 0.15 0.13 0.12 0.14 0.12 0.12 0.15 0.16 0.20 0.28 0.42 0.61 0.88 1.19 0.84 0.49 0.62 0.70 0.68 0.58 0.45 0.41
0.06 0.04 0.05 0.07 0.09 0.07 0.07 0.09 0.10 0.10 0.09 0.08 0.07 0.07 0.08 0.09 0.10 0.10 0.11 0.11 0.14 0.15 0.14 0.14 0.14 0.11 0.11 0.13 0.18 0.26 0.34 0.45 0.67 0.84 0.76 0.84 0.88 0.71 0.58 0.56 0.52 0.43 0.40
0.07 0.05 0.06 0.10 0.09 0.09 0.09 0.09 0.10 0.10 0.09 0.08 0.08 0.08 0.10 0.11 0.11 0.12 0.12 0.13 0.15 0.15 0.15 0.15 0.14 0.13 0.14 0.17 0.21 0.28 0.39 0.52 0.71 0.64 0.54 0.68 0.77 0.66 0.61 0.60 0.53 0.45 0.42
0.06 0.07 0.08 0.12 0.11 0.10 0.09 0.10 0.10 0.09 0.09 0.08 0.08 0.09 0.11 0.12 0.13 0.13 0.14 0.15 0.16 0.16 0.16 0.14 0.14 0.16 0.19 0.24 0.29 0.32 0.42 0.58 0.65 0.60 0.62 0.77 0.80 0.67 0.87 0.94 0.76 0.55 0.41
0.06 0.07 0.10 0.12 0.11 0.11 0.10 0.11 0.11 0.10 0.10 0.09 0.10 0.10 0.11 0.13 0.14 0.15 0.15 0.16 0.17 0.17 0.18 0.17 0.15 0.17 0.18 0.21 0.28 0.35 0.45 0.50 0.56 0.59 0.72 0.84 0.67 0.71 1.09 1.21 1.06 0.87 0.62
0.13 0.09 0.12 0.12 0.12 0.13 0.14 0.14 0.13 0.12 0.12 0.12 0.13 0.13 0.13 0.14 0.15 0.17 0.18 0.18 0.21 0.22 0.22 0.22 0.22 0.22 0.19 0.22 0.30 0.41 0.51 0.55 0.58 0.68 0.71 0.82 0.64 0.76 1.14 1.19 1.04 0.94 0.72
0.33 0.27 0.22 0.20 0.20 0.18 0.16 0.17 0.17 0.16 0.16 0.16 0.15 0.17 0.19 0.22 0.23 0.26 0.25 0.26 0.30 0.30 0.32 0.34 0.35 0.35 0.33 0.31 0.36 0.45 0.53 0.49 0.58 0.73 0.81 0.80 0.69 0.95 1.25 1.25 1.17 1.07 0.87
0.49 0.50 0.39 0.31 0.27 0.26 0.24 0.22 0.26 0.26 0.26 0.26 0.29 0.30 0.36 0.51 0.56 0.59 0.50 0.53 0.53 0.53 0.55 0.56 0.57 0.58 0.56 0.50 0.55 0.59 0.53 0.55 0.85 0.82 0.85 0.80 0.87 1.15 1.36 1.42 1.39 1.29 1.15
0.65 0.50 0.52 0.47 0.35 0.33 0.34 0.41 0.57 0.57 0.60 0.61 0.66 0.66 0.79 0.89 0.83 0.69 0.74 0.91 0.96 1.01 1.01 1.01 1.08 1.02 0.84 0.66 0.84 1.10 0.70 0.65 0.82 0.80 0.74 0.81 1.01 1.29 1.51 1.57 1.43 1.31 1.25
0.89 0.67 0.65 0.77 0.64 0.52 0.61 0.59 0.72 0.90 1.05 1.04 1.02 1.11 1.20 1.08 0.93 0.83 0.98 1.21 1.27 1.35 1.36 1.51 1.67 1.39 1.34 1.31 1.36 1.33 0.99 1.00 0.95 0.87 1.00 1.19 1.32 1.60 1.79 1.70 1.59 1.45 1.33
1.39 1.30 1.21 1.26 1.17 1.04 0.94 0.94 0.91 0.92 1.02 1.15 1.20 1.20 1.37 1.37 1.32 1.24 1.24 1.27 1.35 1.45 1.67 1.74 1.86 1.92 1.96 1.76 1.62 1.54 1.38 1.31 1.21 1.25 1.47 1.66 1.68 1.87 2.08 1.94 1.78 1.63 1.52
2.11 2.16 2.10 1.90 1.68 1.68 1.60 1.41 1.14 1.11 1.07 1.10 1.29 1.35 1.51 1.59 1.64 1.66 1.54 1.49 1.34 1.47 1.75 1.96 1.91 2.07 2.23 2.12 1.84 1.69 1.56 1.42 1.37 1.37 1.55 1.75 1.65 1.72 2.00 2.08 2.02 1.89 1.82
2.90 3.21 2.97 2.71 2.38 2.19 2.07 1.88 1.70 1.46 1.38 1.28 1.36 1.47 1.70 1.82 1.86 1.88 1.73 1.63 1.36 1.40 1.64 1.89 1.91 2.09 2.10 2.14 1.78 1.64 1.52 1.53 1.44 1.41 1.52 1.70 1.69 1.56 1.68 1.99 2.19 2.24 2.15
3.53 3.98 3.67 3.45 3.33 2.98 2.73 2.37 1.99 1.67 1.48 1.52 1.69 1.86 2.00 2.09 2.12 2.10 1.92 1.64 1.48 1.64 1.74 1.75 1.81 2.19 2.04 1.91 1.73 1.79 1.75 1.68 1.51 1.46 1.49 1.62 1.47 1.42 1.43 1.59 1.89 2.15 2.39
3.75 4.04 4.23 3.86 4.04 3.84 3.36 2.90 2.50 2.23 2.13 2.01 2.01 2.14 2.06 2.04 2.07 2.20 1.89 1.56 1.69 1.87 1.82 1.77 1.82 2.05 2.04 2.13 2.02 1.88 1.77 1.65 1.32 1.27 1.29 1.31 1.40 1.20 1.32 1.56 1.68 1.80 2.23
4.04 4.42 4.67 4.70 4.60 4.12 3.60 3.17 2.94 2.71 2.53 2.21 1.85 1.68 1.56 1.49 1.51 1.54 1.25 1.15 1.38 1.46 1.34 1.29 1.55 1.72 1.75 1.87 1.84 1.63 1.44 1.30 1.13 1.07 1.10 0.96 1.05 1.09 1.13 1.36 1.57 1.63 2.03
4.13 4.88 5.17 5.04 4.45 3.89 3.38 2.88 2.70 2.43 2.24 1.98 1.61 1.37 1.17 1.10 1.08 1.09 0.88 0.84 1.09 1.18 1.15 1.25 1.32 1.35 1.29 1.37 1.24 1.03 0.99 0.87 0.89 0.88 0.78 0.78 0.78 0.79 0.91 1.11 1.37 1.26 1.72
4.27 5.14 5.35 4.89 4.19 3.53 2.94 2.40 2.03 1.75 1.58 1.54 1.30 1.09 1.02 1.01 0.97 1.04 0.86 0.95 1.07 1.08 1.09 1.14 1.16 1.07 0.91 1.06 1.15 0.92 0.73 0.65 0.66 0.61 0.59 0.60 0.55 0.63 0.85 1.05 1.22 1.29 1.24
3.75 4.42 4.54 4.04 3.32 2.57 2.06 1.84 1.68 1.52 1.28 1.13 1.03 0.95 0.80 0.81 0.83 0.88 0.84 0.71 0.76 0.80 0.73 0.76 0.94 0.96 0.82 0.93 1.05 0.97 0.75 0.70 0.61 0.43 0.47 0.51 0.49 0.60 0.76 0.87 1.11 1.29 1.27
3.22 3.16 3.14 2.81 2.22 1.79 1.54 1.41 1.29 1.25 1.15 0.95 0.82 0.71 0.60 0.58 0.59 0.62 0.62 0.61 0.67 0.71 0.71 0.71 0.75 0.80 0.73 0.70 0.83 0.98 0.82 0.62 0.54 0.47 0.44 0.42 0.50 0.64 0.74 0.89 0.96 1.05 1.18
2.31 2.07 1.98 1.95 1.68 1.44 1.28 1.14 0.97 0.81 0.79 0.69 0.63 0.58 0.53 0.49 0.48 0.46 0.46 0.46 0.52 0.60 0.69 0.61 0.61 0.65 0.65 0.56 0.61 0.69 0.70 0.67 0.62 0.51 0.46 0.46 0.51 0.63 0.78 0.87 0.97 1.01 1.06
1.42 1.37 1.47 1.64 1.61 1.46 1.32 1.22 1.11 0.87 0.73 0.66 0.62 0.59 0.54 0.51 0.46 0.42 0.42 0.42 0.42 0.43 0.47 0.51 0.58 0.59 0.60 0.55 0.54 0.59 0.66 0.69 0.69 0.61 0.54 0.51 0.47 0.43 0.58 0.77 0.91 0.97 0.95
0.83 0.91 1.09 1.41 1.51 1.43 1.32 1.22 1.07 0.90 0.78 0.66 0.57 0.52 0.48 0.48 0.49 0.47 0.45 0.48 0.45 0.41 0.44 0.47 0.49 0.50 0.55 0.59 0.58 0.60 0.68 0.73 0.69 0.68 0.61 0.55 0.51 0.44 0.48 0.65 0.91 1.05 1.02

GEFSSE_prec_meanprecacc_144.txt.gz
Total_Precipitation_Accumulation
0.07 0.08 0.14 0.15 0.08 0.08 0.11 0.16 0.19 0.18 0.14 0.12 0.10 0.08 0.06 0.05 0.05 0.05 0.06 0.08 0.12 0.15 0.16 0.18 0.21 0.20 0.21 0.22 0.22 0.21 0.22 0.27 0.38 0.45 0.52 0.57 0.68 0.85 0.98 1.12 1.26 0.90 0.65
0.02 0.05 0.13 0.15 0.09 0.08 0.10 0.14 0.15 0.16 0.13 0.11 0.09 0.07 0.06 0.05 0.05 0.06 0.08 0.11 0.13 0.15 0.16 0.16 0.18 0.19 0.19 0.16 0.16 0.19 0.22 0.30 0.48 0.65 0.75 0.72 0.80 1.00 0.98 1.01 1.19 0.77 0.63
0.03 0.05 0.10 0.15 0.10 0.08 0.08 0.11 0.12 0.12 0.11 0.10 0.08 0.06 0.06 0.06 0.07 0.09 0.12 0.14 0.15 0.16 0.16 0.14 0.17 0.17 0.16 0.15 0.17 0.19 0.28 0.44 0.70 0.98 1.30 1.01 0.65 0.93 0.98 0.97 0.87 0.60 0.53
0.06 0.05 0.05 0.10 0.11 0.08 0.08 0.10 0.12 0.12 0.10 0.10 0.08 0.07 0.07 0.08 0.10 0.12 0.15 0.16 0.16 0.17 0.15 0.15 0.18 0.16 0.15 0.18 0.19 0.23 0.34 0.49 0.74 1.15 1.41 0.94 0.53 0.67 0.77 0.75 0.64 0.49 0.45
0.06 0.04 0.05 0.07 0.09 0.08 0.08 0.10 0.11 0.11 0.10 0.09 0.08 0.08 0.09 0.11 0.13 0.13 0.14 0.15 0.16 0.18 0.17 0.18 0.18 0.14 0.14 0.17 0.22 0.29 0.39 0.53 0.86 1.10 0.88 0.93 0.94 0.77 0.65 0.61 0.58 0.47 0.45
0.07 0.05 0.06 0.10 0.09 0.09 0.09 0.11 0.12 0.11 0.10 0.10 0.09 0.10 0.12 0.12 0.14 0.14 0.16 0.17 0.18 0.18 0.17 0.18 0.17 0.15 0.18 0.19 0.23 0.32 0.44 0.61 0.88 0.72 0.60 0.75 0.81 0.71 0.66 0.64 0.58 0.50 0.48
0.06 0.07 0.08 0.12 0.11 0.10 0.09 0.11 0.11 0.11 0.11 0.10 0.09 0.10 0.13 0.14 0.15 0.15 0.17 0.18 0.20 0.20 0.19 0.17 0.16 0.18 0.22 0.26 0.31 0.36 0.46 0.65 0.73 0.62 0.69 0.86 0.83 0.70 0.92 1.00 0.82 0.61 0.45
0.06 0.07 0.10 0.13 0.12 0.11 0.11 0.12 0.12 0.12 0.12 0.12 0.12 0.12 0.13 0.14 0.16 0.17 0.17 0.18 0.21 0.22 0.22 0.19 0.17 0.19 0.20 0.23 0.30 0.36 0.47 0.56 0.60 0.60 0.75 0.88 0.69 0.74 1.12 1.25 1.11 0.92 0.65
0.13 0.09 0.13 0.13 0.13 0.13 0.14 0.14 0.14 0.15 0.15 0.15 0.15 0.14 0.14 0.15 0.17 0.19 0.20 0.20 0.24 0.25 0.24 0.23 0.23 0.23 0.20 0.22 0.31 0.42 0.52 0.57 0.61 0.69 0.73 0.83 0.65 0.78 1.17 1.22 1.06 0.97 0.75
0.33 0.27 0.23 0.21 0.20 0.18 0.17 0.18 0.18 0.18 0.19 0.19 0.17 0.18 0.20 0.23 0.25 0.28 0.27 0.28 0.32 0.32 0.33 0.35 0.36 0.36 0.33 0.31 0.36 0.46 0.54 0.52 0.61 0.73 0.81 0.80 0.69 0.97 1.27 1.27 1.19 1.09 0.90
0.52 0.51 0.41 0.34 0.28 0.27 0.26 0.23 0.28 0.28 0.28 0.30 0.32 0.32 0.39 0.59 0.62 0.63 0.53 0.55 0.55 0.54 0.56 0.58 0.58 0.59 0.56 0.51 0.55 0.60 0.55 0.58 0.88 0.83 0.85 0.80 0.88 1.16 1.37 1.44 1.41 1.32 1.17
0.72 0.56 0.58 0.54 0.38 0.37 0.40 0.46 0.63 0.62 0.64 0.67 0.72 0.70 0.90 1.03 0.97 0.77 0.77 0.94 0.99 1.03 1.02 1.02 1.10 1.05 0.88 0.70 0.85 1.12 0.72 0.68 0.85 0.82 0.75 0.81 1.01 1.30 1.52 1.58 1.45 1.34 1.27
0.93 0.76 0.83 0.86 0.69 0.58 0.71 0.66 0.78 0.97 1.13 1.12 1.10 1.19 1.33 1.19 1.02 0.91 1.02 1.24 1.32 1.38 1.39 1.52 1.70 1.46 1.43 1.39 1.40 1.37 1.01 1.02 0.98 0.89 1.00 1.19 1.32 1.60 1.79 1.71 1.60 1.47 1.35
1.42 1.35 1.30 1.33 1.23 1.11 1.00 1.00 0.96 0.97 1.08 1.22 1.27 1.26 1.45 1.47 1.42 1.34 1.31 1.32 1.40 1.51 1.74 1.80 1.92 1.98 2.02 1.79 1.64 1.61 1.44 1.34 1.25 1.30 1.48 1.66 1.68 1.88 2.09 1.95 1.79 1.65 1.53
2.16 2.23 2.20 2.02 1.78 1.78 1.68 1.47 1.19 1.19 1.17 1.18 1.36 1.41 1.56 1.64 1.72 1.73 1.61 1.57 1.39 1.50 1.79 2.03 1.95 2.11 2.25 2.13 1.84 1.71 1.58 1.45 1.42 1.44 1.57 1.76 1.65 1.73 2.02 2.09 2.04 1.91 1.84
2.97 3.31 3.08 2.84 2.51 2.31 2.15 1.96 1.81 1.58 1.48 1.34 1.40 1.51 1.73 1.87 1.92 1.95 1.79 1.69 1.40 1.43 1.66 1.92 1.94 2.12 2.13 2.16 1.80 1.65 1.55 1.57 1.51 1.46 1.55 1.72 1.69 1.56 1.70 2.01 2.21 2.26 2.17
3.59 4.07 3.80 3.63 3.53 3.17 2.87 2.47 2.08 1.74 1.52 1.57 1.73 1.91 2.03 2.13 2.18 2.15 1.99 1.70 1.53 1.68 1.76 1.77 1.83 2.21 2.06 1.94 1.75 1.80 1.76 1.71 1.58 1.54 1.55 1.67 1.50 1.43 1.44 1.59 1.90 2.16 2.40
3.79 4.12 4.36 4.09 4.32 4.09 3.59 3.07 2.59 2.29 2.18 2.09 2.06 2.19 2.10 2.09 2.11 2.26 1.95 1.61 1.72 1.89 1.84 1.79 1.84 2.07 2.07 2.16 2.06 1.91 1.81 1.70 1.36 1.29 1.33 1.36 1.46 1.24 1.34 1.57 1.69 1.81 2.24
4.06 4.46 4.81 4.97 4.96 4.42 3.85 3.37 3.05 2.80 2.63 2.31 1.91 1.73 1.61 1.53 1.54 1.58 1.30 1.20 1.41 1.49 1.36 1.31 1.57 1.74 1.77 1.90 1.86 1.66 1.46 1.32 1.16 1.10 1.13 1.00 1.08 1.12 1.16 1.38 1.57 1.63 2.04
4.16 4.92 5.27 5.25 4.71 4.14 3.59 3.06 2.81 2.52 2.34 2.08 1.68 1.43 1.23 1.15 1.12 1.13 0.92 0.89 1.13 1.22 1.19 1.29 1.36 1.37 1.31 1.39 1.26 1.06 1.02 0.89 0.90 0.89 0.79 0.79 0.79 0.80 0.93 1.13 1.38 1.27 1.73
4.30 5.17 5.42 5.03 4.34 3.68 3.10 2.54 2.14 1.83 1.65 1.61 1.38 1.16 1.08 1.05 1.02 1.10 0.93 1.01 1.11 1.13 1.13 1.16 1.18 1.10 0.93 1.09 1.18 0.98 0.78 0.70 0.69 0.62 0.60 0.61 0.56 0.64 0.86 1.06 1.25 1.33 1.27
3.77 4.47 4.62 4.15 3.43 2.69 2.20 1.98 1.80 1.60 1.35 1.20 1.11 1.04 0.86 0.85 0.87 0.92 0.91 0.76 0.80 0.85 0.78 0.81 0.99 1.03 0.87 0.96 1.10 1.05 0.85 0.82 0.70 0.44 0.48 0.51 0.50 0.61 0.77 0.88 1.13 1.31 1.30
3.24 3.19 3.21 2.92 2.34 1.92 1.67 1.53 1.40 1.34 1.22 1.03 0.90 0.79 0.65 0.61 0.62 0.67 0.66 0.66 0.73 0.75 0.77 0.76 0.79 0.85 0.80 0.75 0.87 1.05 0.92 0.75 0.64 0.51 0.45 0.43 0.51 0.66 0.75 0.90 0.98 1.06 1.19
2.35 2.12 2.06 2.02 1.79 1.60 1.44 1.26 1.07 0.87 0.84 0.76 0.70 0.65 0.58 0.53 0.52 0.50 0.52 0.51 0.57 0.64 0.75 0.65 0.67 0.70 0.71 0.62 0.65 0.72 0.74 0.74 0.71 0.61 0.52 0.48 0.52 0.65 0.79 0.88 1.00 1.04 1.07
1.47 1.45 1.52 1.69 1.69 1.56 1.46 1.38 1.25 0.97 0.81 0.73 0.70 0.68 0.61 0.58 0.53 0.49 0.48 0.49 0.48 0.47 0.52 0.57 0.67 0.64 0.64 0.59 0.57 0.62 0.69 0.74 0.72 0.67 0.63 0.56 0.50 0.44 0.59 0.77 0.92 0.99 0.95
0.85 0.94 1.12 1.46 1.58 1.51 1.41 1.34 1.19 1.02 0.89 0.76 0.67 0.60 0.55 0.55 0.57 0.54 0.51 0.54 0.50 0.47 0.49 0.52 0.55 0.56 0.61 0.66 0.63 0.63 0.72 0.76 0.72 0.71 0.65 0.59 0.54 0.45 0.48 0.66 0.91 1.05 1.02

GEFSSE_prec_meanprecacc_150.txt.gz
Total_Precipitation_Accumulation
0.07 0.08 0.15 0.15 0.08 0.08 0.12 0.17 0.19 0.19 0.15 0.12 0.10 0.08 0.06 0.05 0.05 0.05 0.06 0.09 0.13 0.16 0.17 0.19 0.22 0.22 0.23 0.24 0.25 0.25 0.27 0.33 0.44 0.51 0.56 0.61 0.73 0.91 1.05 1.19 1.30 0.92 0.70
0.02 0.05 0.14 0.15 0.09 0.08 0.10 0.14 0.16 0.16 0.13 0.11 0.09 0.07 0.06 0.05 0.05 0.07 0.09 0.11 0.14 0.16 0.17 0.17 0.19 0.20 0.20 0.18 0.19 0.23 0.27 0.36 0.56 0.71 0.79 0.75 0.87 1.06 1.04 1.06 1.21 0.79 0.67
0.03 0.05 0.10 0.16 0.10 0.08 0.09 0.11 0.13 0.13 0.11 0.11 0.08 0.07 0.06 0.07 0.08 0.10 0.13 0.16 0.17 0.17 0.17 0.15 0.18 0.19 0.17 0.16 0.20 0.24 0.34 0.52 0.80 1.05 1.33 1.02 0.68 0.99 1.04 1.02 0.91 0.63 0.56
0.06 0.05 0.05 0.10 0.11 0.08 0.08 0.10 0.13 0.12 0.11 0.10 0.08 0.07 0.08 0.09 0.12 0.13 0.16 0.18 0.18 0.18 0.16 0.16 0.19 0.17 0.16 0.19 0.23 0.30 0.41 0.57 0.85 1.22 1.42 0.95 0.54 0.70 0.81 0.78 0.67 0.50 0.46
0.06 0.04 0.05 0.08 0.09 0.08 0.08 0.11 0.12 0.12 0.11 0.10 0.09 0.09 0.10 0.12 0.14 0.15 0.16 0.16 0.18 0.19 0.18 0.20 0.20 0.15 0.15 0.18 0.25 0.34 0.46 0.64 1.02 1.17 0.90 0.94 0.95 0.79 0.66 0.62 0.60 0.48 0.46
0.07 0.05 0.06 0.10 0.10 0.09 0.10 0.12 0.13 0.11 0.11 0.10 0.10 0.10 0.12 0.13 0.15 0.15 0.17 0.18 0.19 0.19 0.18 0.19 0.18 0.17 0.19 0.21 0.27 0.37 0.51 0.71 1.00 0.77 0.61 0.76 0.82 0.74 0.68 0.66 0.60 0.51 0.50
0.06 0.07 0.08 0.12 0.11 0.10 0.10 0.12 0.12 0.12 0.11 0.11 0.10 0.10 0.13 0.15 0.16 0.16 0.18 0.19 0.21 0.21 0.19 0.18 0.17 0.20 0.25 0.29 0.35 0.41 0.55 0.76 0.81 0.67 0.72 0.88 0.85 0.73 0.93 1.02 0.84 0.63 0.47
0.06 0.07 0.11 0.13 0.12 0.11 0.11 0.12 0.13 0.13 0.13 0.12 0.12 0.12 0.14 0.15 0.17 0.18 0.18 0.20 0.22 0.23 0.22 0.20 0.18 0.20 0.23 0.27 0.34 0.42 0.56 0.67 0.68 0.65 0.77 0.89 0.70 0.75 1.14 1.27 1.13 0.93 0.66
0.14 0.10 0.13 0.13 0.13 0.14 0.15 0.15 0.14 0.15 0.15 0.15 0.15 0.15 0.15 0.15 0.17 0.20 0.21 0.22 0.25 0.26 0.25 0.24 0.24 0.24 0.22 0.25 0.34 0.47 0.60 0.68 0.67 0.72 0.74 0.84 0.66 0.80 1.18 1.22 1.07 0.98 0.77
0.35 0.28 0.23 0.21 0.20 0.19 0.18 0.18 0.18 0.18 0.19 0.20 0.18 0.19 0.21 0.24 0.25 0.28 0.27 0.29 0.33 0.33 0.34 0.35 0.36 0.36 0.35 0.33 0.39 0.51 0.62 0.60 0.66 0.76 0.82 0.80 0.70 0.98 1.28 1.28 1.20 1.10 0.91
0.62 0.56 0.43 0.36 0.29 0.29 0.27 0.24 0.28 0.29 0.29 0.31 0.33 0.33 0.40 0.60 0.62 0.64 0.53 0.55 0.56 0.55 0.57 0.58 0.59 0.60 0.57 0.52 0.59 0.66 0.63 0.69 0.96 0.87 0.86 0.81 0.89 1.17 1.38 1.45 1.42 1.33 1.18
0.83 0.63 0.61 0.59 0.42 0.42 0.42 0.47 0.63 0.63 0.64 0.67 0.72 0.71 0.91 1.04 0.98 0.79 0.78 0.95 1.00 1.04 1.03 1.04 1.12 1.07 0.90 0.72 0.89 1.19 0.86 0.86 0.97 0.87 0.76 0.83 1.02 1.31 1.52 1.59 1.45 1.35 1.29
0.99 0.84 0.94 0.90 0.72 0.63 0.74 0.67 0.79 0.98 1.13 1.13 1.10 1.22 1.36 1.22 1.04 0.92 1.03 1.25 1.33 1.39 1.40 1.54 1.72 1.49 1.46 1.44 1.49 1.50 1.17 1.18 1.10 0.96 1.02 1.21 1.33 1.61 1.81 1.72 1.62 1.48 1.36
1.48 1.41 1.40 1.39 1.29 1.19 1.04 1.03 0.97 0.98 1.08 1.23 1.29 1.29 1.49 1.52 1.45 1.36 1.32 1.33 1.41 1.52 1.76 1.83 1.96 2.04 2.08 1.87 1.74 1.73 1.59 1.45 1.36 1.35 1.50 1.68 1.70 1.89 2.09 1.95 1.80 1.66 1.55
2.21 2.29 2.27 2.10 1.85 1.86 1.74 1.51 1.21 1.21 1.20 1.21 1.41 1.47 1.59 1.69 1.78 1.77 1.63 1.59 1.42 1.52 1.82 2.07 2.00 2.15 2.31 2.20 1.94 1.80 1.70 1.55 1.53 1.48 1.58 1.78 1.67 1.74 2.03 2.10 2.04 1.92 1.85
3.00 3.37 3.16 2.94 2.60 2.42 2.24 2.02 1.87 1.63 1.53 1.38 1.46 1.55 1.77 1.93 1.99 1.97 1.81 1.71 1.44 1.46 1.69 1.97 1.98 2.16 2.18 2.21 1.86 1.72 1.62 1.64 1.61 1.49 1.56 1.73 1.71 1.58 1.72 2.02 2.21 2.27 2.18
3.62 4.12 3.87 3.73 3.64 3.33 3.04 2.59 2.17 1.81 1.62 1.72 1.79 1.95 2.07 2.17 2.21 2.16 2.00 1.73 1.60 1.72 1.80 1.81 1.87 2.25 2.10 1.98 1.79 1.85 1.82 1.75 1.63 1.56 1.56 1.68 1.51 1.45 1.46 1.62 1.92 2.18 2.42
3.83 4.15 4.44 4.19 4.47 4.30 3.85 3.28 2.75 2.44 2.31 2.22 2.12 2.23 2.14 2.13 2.16 2.28 1.96 1.64 1.76 1.92 1.87 1.83 1.89 2.12 2.12 2.21 2.11 1.96 1.84 1.73 1.39 1.32 1.35 1.38 1.47 1.25 1.35 1.59 1.72 1.84 2.25
4.09 4.51 4.88 5.09 5.12 4.66 4.16 3.63 3.27 3.00 2.77 2.45 2.01 1.79 1.67 1.60 1.58 1.60 1.32 1.22 1.43 1.51 1.39 1.34 1.61 1.77 1.81 1.95 1.92 1.71 1.50 1.36 1.21 1.14 1.17 1.02 1.09 1.13 1.17 1.40 1.60 1.66 2.08
4.20 4.97 5.32 5.35 4.89 4.37 3.88 3.31 3.00 2.70 2.50 2.25 1.80 1.48 1.28 1.22 1.16 1.17 0.95 0.90 1.14 1.26 1.21 1.30 1.38 1.39 1.33 1.42 1.31 1.12 1.07 0.93 0.95 0.93 0.82 0.82 0.81 0.81 0.95 1.14 1.39 1.28 1.75
4.34 5.20 5.44 5.08 4.47 3.87 3.32 2.71 2.26 1.97 1.79 1.74 1.50 1.22 1.12 1.09 1.06 1.14 0.96 1.03 1.13 1.15 1.14 1.18 1.19 1.12 0.96 1.11 1.22 1.04 0.85 0.76 0.76 0.67 0.63 0.66 0.61 0.67 0.89 1.08 1.26 1.33 1.28
3.81 4.50 4.65 4.20 3.54 2.84 2.37 2.12 1.91 1.76 1.47 1.31 1.24 1.11 0.90 0.89 0.90 0.96 0.95 0.79 0.82 0.88 0.81 0.84 1.00 1.04 0.88 0.97 1.11 1.08 0.89 0.88 0.77 0.50 0.52 0.55 0.54 0.65 0.82 0.92 1.15 1.32 1.31
3.28 3.23 3.26 3.00 2.44 2.04 1.79 1.67 1.56 1.54 1.37 1.14 1.02 0.86 0.71 0.65 0.65 0.70 0.68 0.68 0.75 0.77 0.80 0.78 0.81 0.87 0.81 0.77 0.89 1.06 0.93 0.77 0.66 0.56 0.50 0.47 0.55 0.70 0.79 0.96 1.04 1.10 1.22
2.38 2.16 2.10 2.10 1.88 1.71 1.55 1.39 1.20 1.03 0.95 0.86 0.81 0.72 0.64 0.58 0.55 0.53 0.54 0.53 0.60 0.66 0.77 0.67 0.68 0.71 0.72 0.64 0.66 0.74 0.75 0.74 0.72 0.62 0.54 0.51 0.55 0.68 0.82 0.91 1.04 1.11 1.11
1.50 1.47 1.55 1.75 1.76 1.63 1.55 1.49 1.38 1.10 0.91 0.83 0.80 0.77 0.68 0.62 0.57 0.52 0.51 0.53 0.51 0.50 0.54 0.58 0.68 0.65 0.65 0.60 0.59 0.63 0.71 0.74 0.72 0.68 0.64 0.58 0.52 0.47 0.60 0.79 0.95 1.05 1.00
0.89 0.97 1.14 1.49 1.63 1.56 1.48 1.42 1.31 1.16 1.02 0.87 0.77 0.69 0.64 0.63 0.63 0.59 0.55 0.58 0.54 0.50 0.52 0.54 0.56 0.56 0.61 0.67 0.64 0.65 0.75 0.78 0.73 0.72 0.67 0.61 0.55 0.47 0.50 0.68 0.93 1.07 1.03

GEFSSE_prec_meanprecacc_156.txt.gz
Total_Precipitation_Accumulation
0.10 0.11 0.17 0.17 0.08 0.08 0.12 0.17 0.19 0.19 0.15 0.12 0.10 0.09 0.07 0.05 0.05 0.05 0.06 0.10 0.14 0.17 0.19 0.21 0.25 0.26 0.28 0.30 0.31 0.30 0.31 0.39 0.51 0.58 0.62 0.67 0.80 1.00 1.15 1.27 1.36 0.98 0.77
0.02 0.06 0.15 0.17 0.10 0.08 0.11 0.15 0.16 0.17 0.13 0.11 0.09 0.08 0.07 0.06 0.06 0.07 0.09 0.12 0.15 0.17 0.19 0.19 0.22 0.23 0.23 0.22 0.26 0.28 0.32 0.42 0.64 0.79 0.86 0.82 0.96 1.17 1.14 1.10 1.24 0.84 0.74
0.03 0.05 0.11 0.17 0.11 0.09 0.09 0.12 0.13 0.13 0.12 0.11 0.08 0.07 0.07 0.07 0.09 0.11 0.14 0.17 0.18 0.19 0.19 0.18 0.20 0.21 0.19 0.20 0.24 0.29 0.39 0.60 0.87 1.12 1.38 1.05 0.76 1.12 1.12 1.06 0.96 0.70 0.63
0.06 0.05 0.05 0.11 0.12 0.08 0.08 0.11 0.13 0.12 0.11 0.11 0.09 0.07 0.09 0.10 0.13 0.15 0.18 0.19 0.20 0.20 0.18 0.17 0.21 0.19 0.18 0.22 0.27 0.35 0.47 0.65 0.94 1.26 1.44 0.96 0.58 0.79 0.88 0.84 0.72 0.57 0.51
0.06 0.04 0.05 0.08 0.09 0.08 0.08 0.11 0.12 0.12 0.11 0.10 0.09 0.09 0.11 0.12 0.15 0.16 0.17 0.18 0.19 0.21 0.20 0.22 0.23 0.16 0.17 0.23 0.30 0.41 0.52 0.72 1.08 1.19 0.90 0.96 0.99 0.87 0.73 0.69 0.67 0.55 0.51
0.07 0.05 0.07 0.10 0.10 0.09 0.10 0.12 0.13 0.12 0.11 0.11 0.10 0.11 0.13 0.14 0.16 0.16 0.18 0.19 0.21 0.21 0.20 0.21 0.20 0.19 0.22 0.26 0.33 0.44 0.58 0.77 1.02 0.78 0.63 0.79 0.85 0.79 0.73 0.70 0.66 0.56 0.54
0.07 0.08 0.09 0.13 0.12 0.10 0.10 0.12 0.13 0.12 0.12 0.12 0.11 0.11 0.14 0.17 0.17 0.17 0.19 0.21 0.22 0.23 0.20 0.19 0.19 0.22 0.29 0.35 0.43 0.48 0.59 0.79 0.81 0.67 0.73 0.91 0.88 0.78 0.98 1.06 0.89 0.66 0.49
0.07 0.07 0.11 0.14 0.12 0.12 0.12 0.13 0.13 0.13 0.13 0.13 0.13 0.13 0.15 0.16 0.18 0.19 0.19 0.21 0.24 0.25 0.23 0.21 0.20 0.23 0.27 0.33 0.42 0.48 0.62 0.70 0.68 0.65 0.78 0.92 0.74 0.80 1.18 1.30 1.17 0.96 0.68
0.14 0.10 0.13 0.14 0.14 0.15 0.16 0.16 0.15 0.16 0.16 0.17 0.16 0.16 0.16 0.16 0.18 0.21 0.23 0.23 0.26 0.28 0.26 0.25 0.25 0.27 0.26 0.31 0.41 0.53 0.67 0.73 0.68 0.73 0.76 0.86 0.69 0.84 1.22 1.26 1.11 1.03 0.79
0.36 0.28 0.23 0.21 0.21 0.20 0.19 0.20 0.20 0.20 0.21 0.22 0.19 0.20 0.23 0.25 0.27 0.30 0.30 0.31 0.34 0.34 0.35 0.37 0.38 0.39 0.40 0.40 0.49 0.62 0.71 0.65 0.68 0.78 0.84 0.82 0.73 1.02 1.31 1.32 1.24 1.14 0.94
0.63 0.57 0.43 0.37 0.30 0.31 0.29 0.27 0.31 0.31 0.31 0.32 0.34 0.36 0.42 0.61 0.64 0.66 0.55 0.57 0.57 0.56 0.58 0.60 0.61 0.63 0.61 0.58 0.68 0.77 0.70 0.71 0.97 0.88 0.87 0.82 0.92 1.20 1.41 1.49 1.48 1.39 1.23
0.85 0.66 0.63 0.59 0.42 0.43 0.45 0.50 0.66 0.65 0.66 0.68 0.73 0.72 0.92 1.05 0.99 0.80 0.80 0.98 1.02 1.05 1.04 1.05 1.15 1.09 0.91 0.75 0.94 1.24 0.89 0.89 0.98 0.88 0.77 0.85 1.05 1.35 1.56 1.63 1.50 1.40 1.34
1.01 0.86 0.94 0.90 0.73 0.64 0.76 0.70 0.81 1.00 1.14 1.13 1.11 1.22 1.36 1.22 1.04 0.93 1.04 1.27 1.34 1.40 1.40 1.55 1.73 1.49 1.47 1.45 1.50 1.53 1.20 1.22 1.12 0.96 1.03 1.24 1.37 1.66 1.85 1.76 1.65 1.52 1.38
1.50 1.43 1.40 1.39 1.30 1.20 1.06 1.04 0.99 1.00 1.10 1.24 1.30 1.30 1.50 1.52 1.46 1.37 1.33 1.34 1.42 1.53 1.76 1.83 1.97 2.05 2.09 1.88 1.76 1.75 1.61 1.47 1.38 1.35 1.51 1.71 1.73 1.92 2.13 1.98 1.83 1.69 1.57
2.24 2.32 2.29 2.12 1.86 1.87 1.75 1.52 1.23 1.23 1.21 1.22 1.42 1.48 1.60 1.70 1.79 1.78 1.64 1.59 1.42 1.54 1.83 2.08 2.01 2.16 2.32 2.22 1.95 1.82 1.72 1.56 1.54 1.48 1.59 1.80 1.70 1.78 2.06 2.14 2.09 1.96 1.88
3.04 3.41 3.19 2.96 2.63 2.44 2.26 2.04 1.88 1.65 1.54 1.39 1.47 1.56 1.79 1.94 2.00 1.99 1.82 1.72 1.46 1.47 1.70 1.98 2.00 2.17 2.20 2.22 1.87 1.73 1.63 1.65 1.62 1.50 1.56 1.75 1.75 1.62 1.77 2.07 2.27 2.33 2.21
3.68 4.18 3.91 3.78 3.70 3.38 3.08 2.64 2.21 1.85 1.65 1.75 1.81 1.97 2.09 2.19 2.23 2.18 2.01 1.74 1.61 1.73 1.82 1.83 1.88 2.27 2.13 2.00 1.80 1.86 1.83 1.76 1.63 1.57 1.56 1.68 1.53 1.48 1.50 1.67 1.98 2.24 2.48
3.90 4.24 4.53 4.27 4.55 4.38 3.93 3.36 2.84 2.52 2.37 2.26 2.17 2.27 2.17 2.15 2.18 2.30 1.97 1.65 1.78 1.94 1.90 1.85 1.91 2.13 2.14 2.23 2.13 1.99 1.87 1.74 1.40 1.32 1.35 1.38 1.48 1.26 1.37 1.62 1.76 1.88 2.32
4.16 4.59 4.98 5.18 5.24 4.80 4.31 3.76 3.42 3.13 2.87 2.52 2.07 1.83 1.70 1.63 1.61 1.63 1.34 1.24 1.45 1.54 1.41 1.36 1.63 1.79 1.83 1.97 1.94 1.76 1.53 1.38 1.23 1.15 1.18 1.03 1.10 1.14 1.18 1.42 1.64 1.70 2.13
4.26 5.05 5.41 5.46 5.04 4.54 4.10 3.51 3.21 2.90 2.63 2.33 1.87 1.53 1.31 1.24 1.19 1.21 0.98 0.92 1.16 1.28 1.23 1.33 1.40 1.41 1.36 1.44 1.33 1.15 1.10 0.95 0.97 0.96 0.84 0.83 0.82 0.82 0.95 1.15 1.41 1.31 1.79
4.40 5.27 5.52 5.17 4.59 4.04 3.52 2.92 2.43 2.12 1.90 1.84 1.59 1.27 1.17 1.15 1.12 1.19 1.00 1.06 1.16 1.18 1.16 1.20 1.21 1.14 0.98 1.13 1.26 1.08 0.88 0.80 0.79 0.70 0.66 0.68 0.62 0.69 0.90 1.09 1.26 1.34 1.30
3.87 4.56 4.71 4.27 3.64 2.98 2.54 2.28 2.05 1.89 1.57 1.39 1.33 1.18 0.96 0.97 0.98 1.02 1.00 0.83 0.86 0.91 0.84 0.86 1.02 1.06 0.91 1.00 1.13 1.11 0.91 0.90 0.79 0.51 0.53 0.57 0.55 0.67 0.83 0.94 1.16 1.33 1.32
3.34 3.28 3.32 3.07 2.54 2.18 1.96 1.81 1.72 1.69 1.47 1.22 1.09 0.94 0.79 0.74 0.74 0.77 0.75 0.73 0.79 0.80 0.82 0.80 0.83 0.88 0.83 0.79 0.90 1.07 0.94 0.77 0.66 0.56 0.51 0.48 0.56 0.72 0.82 0.99 1.05 1.12 1.23
2.46 2.24 2.17 2.17 1.97 1.85 1.70 1.51 1.31 1.13 1.01 0.91 0.88 0.80 0.73 0.66 0.62 0.60 0.62 0.59 0.63 0.68 0.80 0.69 0.71 0.73 0.74 0.65 0.67 0.75 0.76 0.75 0.72 0.62 0.54 0.52 0.56 0.69 0.85 0.92 1.06 1.13 1.13
1.58 1.56 1.61 1.82 1.84 1.72 1.65 1.61 1.48 1.18 0.97 0.89 0.87 0.85 0.77 0.71 0.64 0.60 0.59 0.59 0.55 0.53 0.58 0.62 0.70 0.67 0.66 0.61 0.60 0.64 0.72 0.75 0.73 0.68 0.64 0.59 0.52 0.47 0.61 0.80 0.96 1.06 1.01
0.99 1.05 1.19 1.55 1.70 1.63 1.55 1.51 1.41 1.27 1.11 0.95 0.83 0.75 0.70 0.71 0.71 0.69 0.65 0.66 0.59 0.54 0.56 0.57 0.60 0.59 0.63 0.68 0.65 0.66 0.77 0.80 0.74 0.73 0.67 0.61 0.55 0.47 0.51 0.68 0.93 1.07 1.05

GEFSSE_prec_meanprecacc_162.txt.gz
Total_Precipitation_Accumulation
0.10 0.12 0.19 0.19 0.10 0.10 0.14 0.19 0.21 0.20 0.16 0.14 0.12 0.10 0.08 0.07 0.06 0.07 0.08 0.12 0.17 0.20 0.23 0.25 0.29 0.29 0.32 0.35 0.37 0.35 0.37 0.45 0.57 0.66 0.70 0.73 0.88 1.09 1.23 1.37 1.45 1.07 0.84
0.02 0.06 0.16 0.18 0.11 0.10 0.12 0.16 0.17 0.18 0.14 0.12 0.10 0.09 0.08 0.07 0.07 0.08 0.11 0.14 0.17 0.20 0.22 0.22 0.26 0.28 0.29 0.29 0.33 0.35 0.39 0.52 0.74 0.89 0.96 0.91 1.04 1.27 1.22 1.20 1.35 0.91 0.79
0.03 0.06 0.11 0.18 0.13 0.10 0.10 0.13 0.14 0.14 0.12 0.11 0.09 0.08 0.08 0.09 0.11 0.13 0.16 0.19 0.21 0.22 0.23 0.21 0.24 0.26 0.25 0.27 0.31 0.37 0.48 0.69 0.95 1.18 1.45 1.11 0.81 1.22 1.21 1.14 1.04 0.77 0.69
0.06 0.05 0.05 0.12 0.14 0.10 0.09 0.12 0.14 0.13 0.12 0.11 0.09 0.09 0.10 0.11 0.15 0.17 0.21 0.22 0.22 0.23 0.21 0.21 0.25 0.22 0.24 0.28 0.32 0.40 0.53 0.73 0.99 1.30 1.47 1.00 0.62 0.85 0.96 0.93 0.80 0.63 0.57
0.06 0.04 0.06 0.09 0.11 0.09 0.09 0.12 0.13 0.13 0.12 0.11 0.10 0.11 0.13 0.15 0.18 0.19 0.21 0.21 0.22 0.23 0.23 0.25 0.26 0.19 0.21 0.27 0.35 0.44 0.57 0.78 1.12 1.21 0.92 1.01 1.06 0.93 0.78 0.76 0.75 0.61 0.56
0.07 0.05 0.07 0.12 0.11 0.10 0.11 0.13 0.15 0.13 0.12 0.12 0.12 0.13 0.15 0.17 0.20 0.20 0.22 0.22 0.23 0.23 0.22 0.23 0.23 0.22 0.25 0.29 0.39 0.49 0.63 0.83 1.05 0.79 0.65 0.83 0.90 0.85 0.78 0.76 0.71 0.61 0.58
0.07 0.08 0.10 0.14 0.13 0.12 0.12 0.14 0.14 0.13 0.13 0.13 0.12 0.13 0.17 0.20 0.21 0.21 0.22 0.23 0.24 0.25 0.22 0.21 0.22 0.28 0.34 0.41 0.49 0.53 0.63 0.82 0.83 0.69 0.79 0.96 0.93 0.84 1.05 1.13 0.94 0.70 0.52
0.07 0.08 0.11 0.14 0.13 0.13 0.13 0.15 0.14 0.14 0.15 0.15 0.15 0.15 0.18 0.20 0.21 0.22 0.23 0.24 0.26 0.27 0.25 0.24 0.23 0.28 0.33 0.39 0.46 0.53 0.66 0.71 0.70 0.67 0.84 0.98 0.79 0.86 1.24 1.35 1.21 1.00 0.70
0.15 0.10 0.14 0.15 0.15 0.16 0.18 0.17 0.17 0.18 0.18 0.19 0.19 0.18 0.19 0.19 0.21 0.24 0.26 0.26 0.28 0.30 0.29 0.29 0.30 0.31 0.32 0.37 0.47 0.59 0.73 0.76 0.70 0.76 0.78 0.90 0.73 0.88 1.26 1.30 1.16 1.08 0.85
0.37 0.29 0.24 0.23 0.23 0.22 0.21 0.22 0.22 0.22 0.23 0.24 0.22 0.23 0.26 0.28 0.29 0.32 0.32 0.34 0.36 0.36 0.40 0.42 0.44 0.44 0.46 0.47 0.54 0.67 0.78 0.69 0.71 0.81 0.86 0.83 0.77 1.06 1.34 1.35 1.28 1.21 1.00
0.64 0.58 0.44 0.38 0.32 0.33 0.31 0.28 0.34 0.34 0.35 0.35 0.37 0.38 0.47 0.66 0.67 0.69 0.57 0.59 0.59 0.59 0.63 0.66 0.67 0.69 0.67 0.64 0.73 0.82 0.75 0.74 0.99 0.90 0.89 0.84 0.96 1.27 1.46 1.53 1.52 1.44 1.28
0.86 0.67 0.64 0.60 0.44 0.45 0.47 0.52 0.69 0.67 0.68 0.71 0.77 0.76 0.97 1.09 1.03 0.82 0.81 1.00 1.04 1.08 1.07 1.10 1.20 1.15 0.95 0.78 0.98 1.28 0.93 0.91 0.99 0.89 0.78 0.87 1.10 1.40 1.59 1.67 1.53 1.45 1.38
1.01 0.86 0.95 0.92 0.75 0.67 0.80 0.72 0.83 1.03 1.17 1.16 1.14 1.25 1.40 1.25 1.06 0.94 1.07 1.30 1.37 1.41 1.42 1.56 1.75 1.52 1.49 1.48 1.54 1.56 1.22 1.23 1.12 0.97 1.05 1.26 1.40 1.71 1.89 1.80 1.68 1.56 1.42
1.50 1.44 1.42 1.41 1.33 1.23 1.09 1.08 1.02 1.03 1.12 1.26 1.32 1.31 1.53 1.55 1.48 1.38 1.37 1.37 1.44 1.55 1.78 1.84 1.98 2.07 2.12 1.90 1.78 1.77 1.62 1.48 1.39 1.36 1.53 1.72 1.75 1.95 2.16 2.03 1.88 1.73 1.60
2.24 2.32 2.30 2.15 1.89 1.89 1.78 1.56 1.26 1.27 1.24 1.24 1.45 1.49 1.62 1.72 1.81 1.80 1.67 1.62 1.45 1.56 1.84 2.09 2.02 2.19 2.36 2.24 1.96 1.83 1.73 1.57 1.55 1.49 1.60 1.82 1.72 1.80 2.09 2.18 2.13 1.98 1.91
3.05 3.42 3.20 2.99 2.65 2.47 2.31 2.09 1.92 1.70 1.59 1.43 1.50 1.58 1.81 1.97 2.04 2.02 1.85 1.75 1.48 1.49 1.71 1.99 2.01 2.21 2.24 2.26 1.90 1.75 1.65 1.67 1.63 1.51 1.58 1.78 1.78 1.64 1.80 2.10 2.31 2.36 2.24
3.70 4.20 3.92 3.79 3.72 3.41 3.14 2.70 2.25 1.91 1.71 1.80 1.85 2.00 2.11 2.21 2.27 2.22 2.04 1.78 1.65 1.76 1.85 1.86 1.93 2.32 2.18 2.06 1.86 1.90 1.86 1.80 1.65 1.59 1.58 1.71 1.56 1.51 1.52 1.68 2.00 2.27 2.52
3.93 4.27 4.54 4.27 4.57 4.41 3.99 3.42 2.88 2.58 2.42 2.32 2.23 2.31 2.20 2.18 2.21 2.34 2.03 1.70 1.83 1.99 1.95 1.92 1.98 2.22 2.23 2.32 2.22 2.07 1.92 1.79 1.42 1.34 1.37 1.40 1.50 1.29 1.41 1.64 1.78 1.91 2.34
4.19 4.62 5.00 5.20 5.26 4.84 4.37 3.83 3.47 3.17 2.92 2.57 2.13 1.88 1.74 1.66 1.64 1.67 1.41 1.32 1.50 1.60 1.48 1.41 1.69 1.86 1.93 2.07 2.01 1.83 1.58 1.42 1.27 1.18 1.20 1.04 1.11 1.17 1.21 1.44 1.66 1.71 2.14
4.28 5.08 5.44 5.50 5.07 4.61 4.17 3.57 3.26 2.96 2.69 2.39 1.92 1.57 1.35 1.29 1.23 1.25 1.03 0.99 1.23 1.35 1.31 1.40 1.49 1.49 1.43 1.51 1.37 1.19 1.14 0.98 1.00 0.99 0.88 0.85 0.83 0.83 0.96 1.16 1.43 1.32 1.81
4.42 5.30 5.57 5.22 4.64 4.11 3.60 2.99 2.50 2.18 1.97 1.91 1.64 1.33 1.23 1.21 1.19 1.27 1.05 1.12 1.23 1.25 1.24 1.28 1.30 1.22 1.04 1.19 1.32 1.14 0.93 0.83 0.84 0.75 0.71 0.72 0.64 0.71 0.92 1.10 1.29 1.37 1.32
3.89 4.61 4.77 4.32 3.68 3.05 2.63 2.36 2.14 1.97 1.65 1.46 1.41 1.25 1.04 1.05 1.07 1.09 1.08 0.89 0.91 0.99 0.91 0.93 1.11 1.15 0.98 1.06 1.20 1.19 0.98 0.97 0.84 0.53 0.56 0.60 0.58 0.70 0.86 0.95 1.19 1.37 1.36
3.35 3.32 3.34 3.10 2.58 2.24 2.06 1.93 1.83 1.81 1.57 1.29 1.16 1.00 0.85 0.82 0.83 0.86 0.84 0.82 0.87 0.87 0.88 0.88 0.92 0.98 0.92 0.86 0.96 1.14 1.01 0.83 0.71 0.59 0.52 0.50 0.60 0.77 0.87 1.01 1.07 1.15 1.27
2.48 2.27 2.20 2.21 2.03 1.93 1.80 1.66 1.47 1.24 1.11 1.00 0.96 0.89 0.81 0.73 0.70 0.71 0.72 0.69 0.72 0.75 0.87 0.75 0.76 0.82 0.84 0.73 0.74 0.81 0.81 0.80 0.77 0.66 0.56 0.52 0.57 0.72 0.87 0.94 1.07 1.15 1.15
1.59 1.59 1.68 1.89 1.91 1.80 1.73 1.73 1.65 1.31 1.08 1.00 0.97 0.96 0.86 0.78 0.71 0.68 0.69 0.69 0.64 0.60 0.64 0.69 0.78 0.75 0.74 0.69 0.67 0.72 0.79 0.81 0.77 0.73 0.71 0.63 0.55 0.48 0.63 0.82 0.97 1.07 1.03
1.02 1.09 1.24 1.61 1.75 1.67 1.61 1.59 1.50 1.37 1.25 1.08 0.92 0.85 0.80 0.78 0.78 0.77 0.74 0.76 0.68 0.61 0.64 0.65 0.68 0.67 0.72 0.77 0.73 0.73 0.84 0.86 0.78 0.76 0.72 0.67 0.59 0.48 0.52 0.69 0.94 1.08 1.06

GEFSSE_prec_meanprecacc_168.txt.gz
Total_Precipitation_Accumulation
0.11 0.13 0.21 0.22 0.14 0.14 0.18 0.22 0.24 0.23 0.20 0.17 0.14 0.12 0.10 0.08 0.08 0.09 0.11 0.15 0.20 0.24 0.27 0.30 0.36 0.34 0.36 0.39 0.39 0.38 0.41 0.51 0.62 0.70 0.74 0.78 0.94 1.17 1.32 1.49 1.59 1.16 0.92
0.03 0.06 0.17 0.21 0.14 0.13 0.15 0.18 0.20 0.20 0.17 0.15 0.13 0.10 0.09 0.09 0.09 0.11 0.13 0.17 0.22 0.25 0.26 0.27 0.32 0.34 0.32 0.33 0.36 0.38 0.44 0.58 0.82 0.94 1.03 0.98 1.09 1.34 1.32 1.36 1.54 1.00 0.86
0.03 0.06 0.11 0.20 0.14 0.12 0.12 0.15 0.16 0.16 0.15 0.14 0.11 0.09 0.10 0.11 0.12 0.15 0.20 0.23 0.25 0.27 0.28 0.25 0.27 0.29 0.29 0.30 0.34 0.41 0.53 0.75 1.03 1.29 1.60 1.20 0.85 1.28 1.28 1.27 1.16 0.84 0.74
0.06 0.05 0.05 0.13 0.15 0.11 0.11 0.13 0.16 0.15 0.14 0.13 0.12 0.11 0.12 0.15 0.19 0.22 0.26 0.26 0.25 0.26 0.26 0.24 0.27 0.25 0.29 0.33 0.36 0.44 0.57 0.79 1.09 1.52 1.66 1.08 0.65 0.90 1.04 1.01 0.87 0.68 0.62
0.06 0.04 0.06 0.10 0.12 0.11 0.11 0.14 0.15 0.14 0.14 0.13 0.13 0.14 0.16 0.20 0.23 0.23 0.26 0.26 0.26 0.27 0.27 0.28 0.29 0.23 0.25 0.32 0.39 0.48 0.61 0.85 1.25 1.44 1.04 1.08 1.10 0.98 0.86 0.82 0.81 0.67 0.62
0.07 0.05 0.07 0.12 0.12 0.11 0.12 0.15 0.16 0.14 0.15 0.15 0.14 0.16 0.18 0.21 0.25 0.25 0.26 0.25 0.26 0.28 0.26 0.27 0.26 0.25 0.28 0.32 0.42 0.52 0.66 0.91 1.22 0.95 0.74 0.91 0.92 0.90 0.85 0.83 0.77 0.67 0.62
0.07 0.08 0.10 0.14 0.14 0.12 0.13 0.15 0.15 0.15 0.15 0.16 0.15 0.16 0.19 0.23 0.24 0.25 0.25 0.26 0.28 0.30 0.27 0.25 0.24 0.31 0.38 0.44 0.51 0.55 0.66 0.90 0.94 0.76 0.88 1.05 0.95 0.88 1.12 1.19 0.99 0.75 0.55
0.07 0.08 0.12 0.15 0.14 0.13 0.14 0.16 0.16 0.17 0.17 0.17 0.17 0.17 0.20 0.23 0.24 0.25 0.25 0.27 0.29 0.30 0.29 0.27 0.26 0.31 0.35 0.41 0.48 0.55 0.68 0.79 0.74 0.70 0.90 1.02 0.81 0.89 1.27 1.40 1.25 1.04 0.74
0.15 0.10 0.14 0.15 0.15 0.17 0.19 0.19 0.19 0.21 0.20 0.20 0.20 0.20 0.21 0.21 0.24 0.27 0.28 0.29 0.30 0.33 0.33 0.33 0.34 0.34 0.34 0.38 0.48 0.60 0.75 0.83 0.75 0.78 0.80 0.92 0.75 0.91 1.28 1.33 1.19 1.14 0.91
0.37 0.29 0.24 0.23 0.24 0.23 0.23 0.24 0.25 0.25 0.25 0.25 0.23 0.25 0.29 0.30 0.32 0.35 0.34 0.36 0.38 0.39 0.42 0.45 0.46 0.46 0.47 0.48 0.55 0.68 0.81 0.74 0.74 0.82 0.87 0.84 0.78 1.10 1.37 1.37 1.31 1.26 1.05
0.65 0.59 0.45 0.40 0.34 0.35 0.33 0.30 0.36 0.36 0.36 0.37 0.39 0.41 0.54 0.78 0.74 0.75 0.59 0.60 0.61 0.61 0.65 0.68 0.69 0.71 0.67 0.64 0.74 0.84 0.77 0.77 1.02 0.92 0.90 0.84 0.97 1.31 1.50 1.55 1.54 1.46 1.31
0.87 0.69 0.66 0.68 0.50 0.49 0.51 0.56 0.76 0.73 0.73 0.78 0.84 0.82 1.11 1.23 1.16 0.87 0.83 1.01 1.05 1.10 1.09 1.12 1.24 1.20 0.99 0.81 0.99 1.30 0.96 0.95 1.05 0.91 0.79 0.87 1.11 1.43 1.63 1.70 1.55 1.48 1.41
1.02 0.88 0.98 0.94 0.79 0.73 0.89 0.76 0.90 1.13 1.27 1.27 1.23 1.33 1.50 1.30 1.11 0.98 1.10 1.33 1.40 1.45 1.46 1.60 1.81 1.61 1.57 1.53 1.58 1.59 1.24 1.25 1.16 0.98 1.05 1.26 1.42 1.73 1.91 1.82 1.71 1.58 1.45
1.51 1.46 1.44 1.45 1.37 1.26 1.13 1.11 1.06 1.08 1.19 1.35 1.40 1.37 1.57 1.61 1.54 1.45 1.44 1.43 1.49 1.60 1.84 1.88 2.03 2.12 2.16 1.93 1.80 1.79 1.63 1.49 1.40 1.36 1.54 1.73 1.75 1.96 2.18 2.04 1.89 1.74 1.63
2.25 2.33 2.32 2.19 1.92 1.93 1.83 1.61 1.29 1.30 1.27 1.30 1.52 1.56 1.66 1.78 1.87 1.86 1.73 1.67 1.48 1.57 1.86 2.11 2.04 2.22 2.38 2.25 1.97 1.83 1.74 1.57 1.56 1.50 1.63 1.82 1.72 1.81 2.10 2.18 2.13 1.99 1.91
3.05 3.43 3.22 3.01 2.67 2.49 2.35 2.15 1.97 1.73 1.63 1.47 1.55 1.65 1.85 2.03 2.11 2.08 1.90 1.80 1.52 1.50 1.73 2.00 2.04 2.23 2.27 2.29 1.92 1.75 1.66 1.67 1.63 1.52 1.61 1.80 1.79 1.65 1.80 2.11 2.32 2.36 2.24
3.70 4.20 3.93 3.80 3.73 3.44 3.20 2.76 2.29 1.94 1.73 1.82 1.89 2.04 2.15 2.27 2.34 2.29 2.11 1.83 1.68 1.78 1.88 1.89 1.96 2.34 2.20 2.10 1.92 1.94 1.89 1.81 1.66 1.60 1.60 1.74 1.58 1.52 1.53 1.69 2.01 2.28 2.53
3.93 4.28 4.56 4.29 4.59 4.46 4.04 3.47 2.93 2.62 2.45 2.36 2.27 2.36 2.25 2.25 2.28 2.41 2.09 1.75 1.86 2.02 2.00 1.97 2.03 2.26 2.28 2.37 2.27 2.12 1.95 1.81 1.44 1.35 1.38 1.42 1.54 1.31 1.42 1.65 1.79 1.91 2.35
4.20 4.64 5.03 5.24 5.31 4.88 4.42 3.90 3.54 3.25 2.99 2.63 2.18 1.94 1.80 1.70 1.68 1.72 1.46 1.38 1.54 1.64 1.53 1.45 1.75 1.94 2.01 2.13 2.05 1.87 1.60 1.45 1.29 1.19 1.22 1.05 1.13 1.19 1.24 1.45 1.66 1.72 2.15
4.29 5.09 5.48 5.56 5.15 4.67 4.24 3.66 3.35 3.04 2.77 2.45 1.98 1.63 1.40 1.32 1.25 1.30 1.07 1.04 1.28 1.40 1.36 1.46 1.58 1.58 1.50 1.57 1.42 1.27 1.19 1.02 1.02 1.00 0.88 0.86 0.84 0.84 0.99 1.20 1.46 1.33 1.82
4.42 5.31 5.62 5.29 4.70 4.18 3.67 3.08 2.58 2.26 2.05 1.97 1.68 1.36 1.27 1.24 1.22 1.32 1.11 1.19 1.28 1.30 1.30 1.33 1.39 1.31 1.11 1.24 1.40 1.23 1.00 0.89 0.87 0.78 0.72 0.73 0.65 0.71 0.93 1.14 1.33 1.42 1.36
3.90 4.62 4.81 4.37 3.73 3.12 2.71 2.46 2.23 2.08 1.77 1.56 1.47 1.31 1.08 1.08 1.10 1.13 1.12 0.94 0.97 1.06 0.98 1.01 1.22 1.24 1.04 1.12 1.28 1.32 1.13 1.10 0.91 0.55 0.58 0.61 0.59 0.72 0.87 0.97 1.22 1.42 1.40
3.36 3.33 3.37 3.15 2.63 2.29 2.13 2.01 1.92 1.93 1.71 1.44 1.28 1.11 0.93 0.88 0.89 0.92 0.91 0.87 0.94 0.94 0.97 0.97 1.01 1.08 1.01 0.93 1.01 1.24 1.17 1.03 0.85 0.64 0.55 0.52 0.63 0.82 0.89 1.03 1.09 1.17 1.30
2.49 2.29 2.24 2.25 2.07 1.97 1.86 1.74 1.56 1.34 1.23 1.15 1.11 1.03 0.93 0.82 0.78 0.78 0.79 0.75 0.80 0.82 0.97 0.83 0.85 0.93 0.94 0.82 0.82 0.88 0.88 0.93 0.91 0.79 0.68 0.60 0.62 0.75 0.90 0.96 1.09 1.17 1.17
1.60 1.62 1.72 1.95 1.96 1.84 1.78 1.81 1.76 1.41 1.21 1.14 1.12 1.11 0.99 0.88 0.79 0.76 0.77 0.77 0.73 0.69 0.74 0.78 0.88 0.84 0.83 0.79 0.77 0.82 0.88 0.89 0.84 0.83 0.84 0.74 0.64 0.55 0.67 0.85 1.00 1.10 1.06
1.02 1.12 1.29 1.66 1.80 1.72 1.65 1.66 1.60 1.48 1.39 1.25 1.09 0.99 0.92 0.88 0.87 0.86 0.81 0.83 0.77 0.72 0.75 0.75 0.77 0.75 0.81 0.87 0.82 0.82 0.93 0.96 0.85 0.83 0.81 0.76 0.67 0.55 0.56 0.73 0.98 1.11 1.10

GEFSSE_prec_meanprecacc_174.txt.gz
Total_Precipitation_Accumulation
0.13 0.14 0.23 0.23 0.15 0.15 0.19 0.24 0.26 0.24 0.21 0.18 0.15 0.12 0.11 0.09 0.10 0.11 0.13 0.16 0.22 0.28 0.31 0.33 0.39 0.39 0.43 0.46 0.46 0.45 0.47 0.58 0.69 0.78 0.82 0.86 1.01 1.24 1.39 1.55 1.64 1.19 0.99
0.03 0.07 0.18 0.21 0.14 0.13 0.16 0.20 0.21 0.21 0.18 0.16 0.13 0.11 0.10 0.10 0.11 0.13 0.15 0.19 0.24 0.28 0.30 0.31 0.35 0.37 0.36 0.36 0.41 0.44 0.50 0.66 0.92 1.04 1.13 1.06 1.20 1.43 1.41 1.43 1.58 1.03 0.93
0.03 0.06 0.12 0.20 0.15 0.13 0.13 0.16 0.17 0.17 0.16 0.15 0.12 0.10 0.11 0.12 0.14 0.18 0.23 0.26 0.27 0.29 0.31 0.30 0.32 0.33 0.33 0.34 0.38 0.46 0.59 0.84 1.13 1.42 1.69 1.22 0.89 1.35 1.35 1.34 1.22 0.92 0.81
0.06 0.05 0.05 0.13 0.15 0.12 0.12 0.14 0.17 0.16 0.14 0.14 0.13 0.12 0.14 0.16 0.20 0.24 0.30 0.30 0.29 0.29 0.28 0.28 0.31 0.28 0.33 0.37 0.40 0.50 0.64 0.89 1.21 1.64 1.71 1.09 0.66 0.94 1.09 1.06 0.91 0.72 0.66
0.06 0.04 0.06 0.10 0.12 0.11 0.12 0.14 0.15 0.15 0.15 0.14 0.14 0.16 0.18 0.22 0.25 0.26 0.29 0.29 0.28 0.29 0.29 0.30 0.32 0.26 0.28 0.35 0.43 0.53 0.67 0.96 1.41 1.54 1.07 1.09 1.10 1.02 0.90 0.86 0.85 0.71 0.65
0.07 0.05 0.07 0.12 0.12 0.12 0.13 0.16 0.17 0.15 0.15 0.15 0.15 0.17 0.21 0.24 0.28 0.27 0.28 0.27 0.28 0.30 0.29 0.30 0.29 0.28 0.31 0.34 0.45 0.57 0.73 1.03 1.33 1.00 0.76 0.91 0.93 0.94 0.90 0.88 0.82 0.69 0.64
0.07 0.08 0.10 0.14 0.14 0.13 0.13 0.15 0.16 0.15 0.16 0.17 0.16 0.17 0.21 0.26 0.27 0.26 0.26 0.27 0.29 0.32 0.29 0.26 0.26 0.33 0.40 0.47 0.55 0.61 0.76 1.06 1.00 0.80 0.89 1.05 0.96 0.92 1.16 1.23 1.03 0.78 0.57
0.07 0.08 0.12 0.15 0.14 0.14 0.15 0.16 0.17 0.17 0.17 0.18 0.18 0.18 0.21 0.25 0.27 0.27 0.27 0.28 0.30 0.32 0.31 0.30 0.27 0.32 0.37 0.44 0.52 0.60 0.78 0.91 0.80 0.74 0.90 1.03 0.82 0.91 1.31 1.42 1.27 1.07 0.76
0.15 0.11 0.14 0.15 0.15 0.18 0.19 0.20 0.20 0.21 0.21 0.21 0.21 0.21 0.23 0.23 0.26 0.28 0.30 0.30 0.31 0.34 0.34 0.34 0.34 0.35 0.35 0.41 0.52 0.65 0.84 0.94 0.82 0.82 0.81 0.94 0.78 0.93 1.30 1.35 1.22 1.16 0.93
0.39 0.33 0.25 0.23 0.24 0.24 0.24 0.25 0.26 0.26 0.26 0.26 0.24 0.27 0.31 0.33 0.33 0.36 0.35 0.37 0.38 0.40 0.43 0.45 0.46 0.46 0.49 0.50 0.58 0.72 0.89 0.83 0.80 0.85 0.88 0.85 0.81 1.12 1.38 1.38 1.34 1.28 1.07
0.68 0.67 0.49 0.41 0.36 0.37 0.34 0.31 0.37 0.37 0.38 0.38 0.41 0.44 0.58 0.79 0.75 0.75 0.59 0.61 0.61 0.61 0.66 0.69 0.69 0.72 0.69 0.67 0.79 0.89 0.83 0.85 1.08 0.94 0.91 0.86 1.00 1.33 1.52 1.57 1.55 1.47 1.33
0.90 0.75 0.70 0.70 0.53 0.51 0.52 0.57 0.77 0.75 0.75 0.79 0.85 0.84 1.13 1.25 1.18 0.88 0.85 1.02 1.06 1.10 1.11 1.15 1.26 1.22 1.01 0.84 1.03 1.35 1.04 1.04 1.14 0.95 0.81 0.90 1.14 1.47 1.64 1.70 1.56 1.49 1.43
1.06 0.91 1.01 0.97 0.82 0.76 0.91 0.78 0.93 1.16 1.30 1.30 1.27 1.40 1.56 1.34 1.14 1.01 1.15 1.36 1.41 1.46 1.47 1.62 1.84 1.64 1.62 1.58 1.63 1.68 1.35 1.31 1.24 1.02 1.07 1.28 1.44 1.76 1.93 1.83 1.72 1.60 1.47
1.54 1.48 1.48 1.49 1.40 1.32 1.16 1.15 1.09 1.12 1.23 1.39 1.45 1.44 1.63 1.66 1.59 1.49 1.48 1.46 1.51 1.62 1.87 1.91 2.06 2.16 2.21 2.00 1.89 1.90 1.71 1.55 1.46 1.41 1.56 1.75 1.77 1.98 2.21 2.06 1.91 1.76 1.64
2.27 2.36 2.35 2.21 1.94 1.95 1.86 1.64 1.34 1.35 1.32 1.34 1.58 1.63 1.72 1.82 1.90 1.89 1.76 1.71 1.51 1.60 1.91 2.18 2.10 2.27 2.43 2.30 2.03 1.89 1.80 1.63 1.61 1.54 1.65 1.84 1.74 1.82 2.11 2.20 2.14 2.00 1.92
3.07 3.45 3.23 3.03 2.68 2.51 2.38 2.19 2.06 1.78 1.69 1.53 1.64 1.75 1.91 2.07 2.13 2.10 1.92 1.83 1.57 1.55 1.79 2.06 2.08 2.27 2.32 2.33 1.95 1.79 1.72 1.75 1.71 1.57 1.64 1.82 1.80 1.66 1.81 2.12 2.32 2.37 2.25
3.72 4.21 3.95 3.80 3.74 3.46 3.23 2.79 2.34 2.00 1.81 1.91 2.01 2.13 2.24 2.32 2.36 2.31 2.13 1.85 1.73 1.81 1.92 1.94 2.00 2.38 2.25 2.15 1.96 1.98 1.94 1.88 1.73 1.64 1.62 1.75 1.59 1.53 1.55 1.71 2.03 2.29 2.54
3.94 4.29 4.57 4.30 4.60 4.47 4.07 3.51 3.00 2.70 2.55 2.44 2.38 2.45 2.31 2.29 2.31 2.43 2.11 1.75 1.88 2.04 2.08 2.02 2.06 2.30 2.33 2.42 2.32 2.17 1.99 1.86 1.48 1.38 1.41 1.44 1.56 1.34 1.45 1.68 1.81 1.94 2.37
4.21 4.66 5.06 5.27 5.34 4.90 4.46 3.96 3.60 3.33 3.07 2.71 2.26 2.01 1.86 1.76 1.72 1.75 1.48 1.40 1.57 1.67 1.56 1.48 1.78 1.97 2.06 2.17 2.09 1.93 1.66 1.49 1.32 1.24 1.27 1.11 1.18 1.23 1.28 1.50 1.70 1.75 2.17
4.31 5.13 5.53 5.61 5.20 4.73 4.31 3.72 3.41 3.13 2.86 2.53 2.08 1.70 1.46 1.37 1.30 1.33 1.10 1.07 1.31 1.43 1.39 1.48 1.61 1.61 1.54 1.60 1.46 1.31 1.24 1.07 1.06 1.05 0.93 0.92 0.91 0.91 1.07 1.30 1.51 1.36 1.84
4.43 5.34 5.65 5.33 4.75 4.25 3.75 3.15 2.65 2.36 2.14 2.05 1.79 1.47 1.34 1.30 1.28 1.36 1.15 1.23 1.31 1.33 1.32 1.35 1.41 1.33 1.14 1.29 1.46 1.28 1.05 0.94 0.92 0.83 0.77 0.80 0.72 0.79 1.01 1.20 1.37 1.46 1.39
3.90 4.63 4.83 4.40 3.77 3.17 2.78 2.53 2.31 2.18 1.86 1.65 1.57 1.42 1.18 1.15 1.16 1.18 1.16 0.98 1.01 1.10 1.01 1.04 1.24 1.26 1.06 1.15 1.32 1.37 1.17 1.15 0.98 0.61 0.65 0.71 0.70 0.81 0.96 1.05 1.28 1.49 1.46
3.37 3.34 3.39 3.18 2.66 2.34 2.18 2.08 1.99 2.01 1.81 1.54 1.39 1.22 1.03 0.96 0.95 0.97 0.94 0.91 0.99 0.98 1.00 1.00 1.03 1.11 1.05 0.97 1.06 1.31 1.21 1.05 0.88 0.70 0.64 0.62 0.74 0.92 1.00 1.11 1.16 1.24 1.36
2.50 2.30 2.28 2.31 2.11 2.00 1.90 1.81 1.64 1.40 1.29 1.23 1.21 1.14 1.02 0.92 0.86 0.84 0.84 0.79 0.85 0.87 1.02 0.87 0.89 0.97 0.98 0.86 0.86 0.93 0.94 0.98 0.95 0.83 0.73 0.70 0.74 0.88 1.00 1.04 1.15 1.24 1.26
1.62 1.66 1.80 2.01 1.99 1.86 1.81 1.84 1.80 1.46 1.28 1.23 1.21 1.21 1.09 0.95 0.86 0.83 0.82 0.82 0.80 0.76 0.82 0.86 0.94 0.90 0.89 0.84 0.82 0.86 0.93 0.94 0.89 0.88 0.87 0.79 0.74 0.66 0.77 0.96 1.11 1.20 1.19
1.04 1.15 1.33 1.70 1.83 1.73 1.66 1.68 1.63 1.52 1.45 1.32 1.15 1.06 1.02 0.96 0.93 0.92 0.87 0.89 0.83 0.78 0.81 0.81 0.82 0.81 0.87 0.93 0.86 0.86 0.98 1.00 0.90 0.88 0.85 0.78 0.72 0.62 0.66 0.86 1.13 1.26 1.24

GEFSSE_prec_meanprecacc_180.txt.gz
Total_Precipitation_Accumulation
0.15 0.19 0.29 0.27 0.17 0.17 0.21 0.25 0.27 0.26 0.22 0.19 0.16 0.13 0.12 0.10 0.12 0.14 0.15 0.19 0.26 0.33 0.39 0.44 0.51 0.49 0.53 0.57 0.57 0.53 0.55 0.69 0.80 0.87 0.92 0.96 1.11 1.35 1.48 1.66 1.74 1.25 1.07
0.04 0.11 0.23 0.24 0.16 0.15 0.17 0.21 0.22 0.22 0.19 0.17 0.14 0.12 0.11 0.12 0.14 0.15 0.18 0.22 0.28 0.32 0.34 0.37 0.43 0.45 0.43 0.44 0.48 0.49 0.55 0.74 1.02 1.14 1.25 1.18 1.34 1.54 1.51 1.52 1.66 1.09 1.02
0.05 0.08 0.13 0.21 0.16 0.14 0.14 0.17 0.17 0.18 0.17 0.16 0.13 0.12 0.12 0.14 0.17 0.21 0.27 0.30 0.32 0.34 0.36 0.36 0.38 0.38 0.39 0.39 0.43 0.51 0.65 0.92 1.23 1.52 1.78 1.28 0.99 1.45 1.46 1.43 1.30 1.00 0.90
0.06 0.06 0.06 0.13 0.16 0.12 0.12 0.15 0.17 0.17 0.15 0.15 0.14 0.14 0.15 0.19 0.24 0.29 0.35 0.35 0.34 0.34 0.32 0.32 0.35 0.31 0.36 0.41 0.45 0.56 0.70 0.97 1.29 1.71 1.74 1.12 0.69 1.02 1.19 1.14 0.98 0.80 0.76
0.06 0.05 0.07 0.10 0.13 0.12 0.12 0.15 0.16 0.16 0.15 0.15 0.15 0.18 0.20 0.25 0.29 0.30 0.33 0.34 0.33 0.32 0.33 0.34 0.35 0.28 0.30 0.38 0.48 0.60 0.74 1.05 1.47 1.56 1.07 1.10 1.13 1.09 0.97 0.93 0.91 0.77 0.73
0.07 0.05 0.08 0.13 0.13 0.12 0.13 0.16 0.18 0.15 0.16 0.17 0.16 0.19 0.24 0.28 0.31 0.30 0.31 0.30 0.31 0.33 0.33 0.35 0.32 0.31 0.35 0.39 0.53 0.66 0.83 1.11 1.37 1.01 0.76 0.92 0.97 1.01 0.97 0.93 0.86 0.75 0.70
0.07 0.08 0.10 0.15 0.14 0.13 0.14 0.16 0.17 0.16 0.17 0.17 0.16 0.18 0.23 0.28 0.30 0.29 0.28 0.29 0.31 0.34 0.31 0.29 0.29 0.37 0.45 0.54 0.65 0.70 0.84 1.11 1.01 0.81 0.90 1.06 0.99 0.97 1.20 1.27 1.07 0.83 0.61
0.07 0.08 0.12 0.16 0.15 0.15 0.16 0.17 0.18 0.18 0.18 0.18 0.19 0.19 0.22 0.26 0.30 0.29 0.29 0.30 0.31 0.33 0.33 0.32 0.30 0.37 0.43 0.52 0.62 0.69 0.83 0.94 0.80 0.74 0.91 1.03 0.84 0.94 1.35 1.46 1.31 1.11 0.80
0.16 0.11 0.14 0.15 0.17 0.19 0.20 0.20 0.21 0.22 0.22 0.22 0.22 0.22 0.23 0.23 0.27 0.30 0.32 0.31 0.32 0.34 0.35 0.36 0.37 0.39 0.40 0.48 0.60 0.72 0.90 0.99 0.84 0.82 0.82 0.95 0.80 0.97 1.36 1.40 1.25 1.19 0.96
0.40 0.34 0.25 0.23 0.25 0.24 0.25 0.26 0.27 0.27 0.27 0.27 0.25 0.28 0.33 0.34 0.34 0.37 0.37 0.39 0.40 0.40 0.44 0.47 0.49 0.51 0.54 0.57 0.65 0.81 0.96 0.86 0.81 0.86 0.88 0.87 0.83 1.16 1.42 1.41 1.36 1.30 1.10
0.69 0.68 0.50 0.42 0.36 0.37 0.35 0.32 0.39 0.39 0.39 0.40 0.42 0.46 0.60 0.81 0.76 0.76 0.61 0.63 0.63 0.63 0.67 0.71 0.73 0.76 0.74 0.72 0.87 0.98 0.87 0.87 1.09 0.95 0.91 0.88 1.03 1.36 1.54 1.59 1.57 1.50 1.37
0.91 0.76 0.71 0.70 0.53 0.52 0.53 0.57 0.78 0.75 0.75 0.80 0.86 0.85 1.14 1.25 1.19 0.89 0.86 1.05 1.09 1.13 1.12 1.17 1.30 1.26 1.04 0.86 1.07 1.40 1.06 1.06 1.15 0.96 0.82 0.93 1.18 1.50 1.65 1.71 1.57 1.51 1.47
1.08 0.93 1.02 0.98 0.82 0.78 0.93 0.80 0.94 1.17 1.31 1.30 1.27 1.41 1.56 1.34 1.14 1.02 1.16 1.37 1.42 1.47 1.48 1.63 1.86 1.66 1.64 1.60 1.64 1.70 1.37 1.33 1.26 1.04 1.08 1.31 1.49 1.79 1.95 1.84 1.74 1.61 1.50
1.57 1.51 1.50 1.51 1.43 1.35 1.19 1.18 1.12 1.15 1.25 1.41 1.46 1.44 1.63 1.67 1.60 1.50 1.49 1.47 1.51 1.62 1.87 1.92 2.07 2.17 2.23 2.02 1.91 1.91 1.72 1.57 1.48 1.42 1.58 1.78 1.81 2.02 2.23 2.07 1.92 1.77 1.66
2.30 2.40 2.39 2.25 1.98 1.97 1.89 1.68 1.38 1.40 1.36 1.38 1.61 1.66 1.74 1.85 1.92 1.90 1.78 1.73 1.52 1.61 1.91 2.19 2.11 2.28 2.45 2.32 2.04 1.90 1.82 1.65 1.62 1.55 1.66 1.87 1.77 1.86 2.14 2.21 2.16 2.01 1.93
3.11 3.49 3.28 3.07 2.72 2.55 2.44 2.26 2.10 1.84 1.74 1.57 1.67 1.79 1.95 2.10 2.16 2.12 1.93 1.84 1.58 1.56 1.80 2.07 2.09 2.29 2.34 2.35 1.96 1.80 1.73 1.77 1.72 1.58 1.65 1.84 1.84 1.69 1.84 2.14 2.35 2.39 2.27
3.75 4.26 4.00 3.85 3.76 3.49 3.30 2.87 2.38 2.05 1.86 1.97 2.06 2.17 2.28 2.36 2.39 2.33 2.15 1.87 1.75 1.85 1.94 1.95 2.02 2.40 2.27 2.17 1.97 2.00 1.95 1.90 1.75 1.65 1.64 1.77 1.62 1.56 1.58 1.74 2.06 2.32 2.57
3.97 4.33 4.63 4.36 4.64 4.51 4.13 3.58 3.06 2.78 2.62 2.49 2.42 2.49 2.36 2.34 2.36 2.46 2.14 1.79 1.92 2.09 2.12 2.07 2.11 2.33 2.35 2.44 2.35 2.19 2.02 1.87 1.49 1.40 1.43 1.47 1.59 1.35 1.48 1.72 1.86 1.98 2.41
4.23 4.70 5.11 5.33 5.39 4.95 4.52 4.05 3.71 3.45 3.17 2.77 2.32 2.08 1.92 1.81 1.77 1.79 1.51 1.42 1.60 1.70 1.59 1.52 1.80 2.00 2.09 2.21 2.12 1.95 1.68 1.52 1.36 1.27 1.30 1.14 1.21 1.25 1.31 1.55 1.76 1.80 2.22
4.33 5.16 5.57 5.66 5.26 4.81 4.39 3.84 3.55 3.26 2.96 2.60 2.15 1.77 1.52 1.44 1.37 1.39 1.15 1.10 1.34 1.45 1.41 1.51 1.64 1.64 1.58 1.65 1.51 1.34 1.26 1.10 1.09 1.07 0.95 0.95 0.93 0.92 1.10 1.34 1.56 1.40 1.89
4.44 5.36 5.69 5.38 4.81 4.32 3.83 3.25 2.77 2.47 2.24 2.12 1.87 1.55 1.41 1.38 1.37 1.44 1.19 1.26 1.34 1.36 1.34 1.37 1.44 1.37 1.18 1.34 1.52 1.33 1.09 0.97 0.94 0.85 0.80 0.82 0.75 0.82 1.03 1.23 1.40 1.49 1.41
3.91 4.66 4.91 4.51 3.84 3.24 2.89 2.67 2.43 2.28 1.95 1.72 1.62 1.48 1.27 1.23 1.24 1.24 1.20 1.01 1.05 1.14 1.05 1.07 1.27 1.30 1.10 1.20 1.39 1.43 1.20 1.18 1.01 0.63 0.67 0.73 0.73 0.84 0.99 1.07 1.30 1.51 1.48
3.39 3.38 3.47 3.32 2.79 2.42 2.27 2.20 2.13 2.12 1.88 1.59 1.44 1.27 1.11 1.05 1.02 1.04 1.00 0.95 1.02 1.01 1.04 1.04 1.08 1.16 1.08 1.01 1.10 1.36 1.23 1.07 0.90 0.72 0.66 0.64 0.77 0.95 1.03 1.14 1.18 1.27 1.40
2.52 2.34 2.33 2.37 2.17 2.06 1.95 1.89 1.73 1.52 1.40 1.30 1.28 1.21 1.11 1.01 0.95 0.91 0.91 0.84 0.89 0.91 1.07 0.92 0.95 1.02 1.03 0.89 0.91 0.98 0.98 1.00 0.97 0.84 0.74 0.71 0.76 0.91 1.05 1.09 1.21 1.31 1.33
1.64 1.69 1.84 2.04 2.01 1.89 1.84 1.89 1.85 1.55 1.37 1.29 1.26 1.27 1.16 1.03 0.94 0.90 0.88 0.87 0.85 0.83 0.88 0.91 1.00 0.95 0.93 0.87 0.85 0.89 0.98 0.99 0.93 0.90 0.88 0.80 0.75 0.68 0.80 1.00 1.15 1.27 1.25
1.06 1.18 1.37 1.73 1.84 1.74 1.68 1.70 1.66 1.55 1.49 1.35 1.18 1.11 1.09 1.04 1.01 1.01 0.95 0.96 0.89 0.85 0.86 0.86 0.88 0.86 0.93 0.97 0.89 0.90 1.03 1.06 0.96 0.93 0.88 0.80 0.74 0.65 0.69 0.90 1.18 1.34 1.33

GEFSSE_prec_meanprecacc_186.txt.gz
Total_Precipitation_Accumulation
0.18 0.24 0.36 0.33 0.24 0.22 0.25 0.29 0.32 0.30 0.25 0.22 0.19 0.17 0.15 0.15 0.18 0.20 0.21 0.25 0.32 0.42 0.48 0.53 0.60 0.57 0.61 0.64 0.64 0.61 0.63 0.76 0.88 0.96 1.01 1.05 1.20 1.45 1.57 1.74 1.82 1.33 1.17
0.06 0.15 0.28 0.29 0.21 0.19 0.20 0.23 0.25 0.26 0.22 0.20 0.18 0.15 0.15 0.16 0.19 0.20 0.22 0.27 0.34 0.38 0.41 0.43 0.52 0.53 0.51 0.51 0.54 0.55 0.62 0.82 1.10 1.24 1.37 1.31 1.45 1.64 1.61 1.62 1.76 1.19 1.11
0.05 0.10 0.16 0.26 0.20 0.16 0.16 0.19 0.20 0.21 0.19 0.19 0.16 0.15 0.16 0.19 0.22 0.26 0.30 0.35 0.38 0.41 0.42 0.43 0.45 0.45 0.45 0.46 0.48 0.55 0.71 0.99 1.30 1.59 1.87 1.39 1.07 1.55 1.57 1.55 1.39 1.09 0.99
0.07 0.07 0.07 0.16 0.19 0.15 0.15 0.17 0.20 0.19 0.17 0.17 0.17 0.17 0.18 0.23 0.28 0.33 0.40 0.40 0.39 0.39 0.37 0.37 0.41 0.35 0.40 0.45 0.48 0.60 0.74 1.03 1.36 1.76 1.79 1.18 0.76 1.09 1.30 1.26 1.07 0.88 0.85
0.07 0.06 0.08 0.13 0.15 0.14 0.14 0.17 0.19 0.18 0.18 0.18 0.18 0.21 0.24 0.29 0.32 0.34 0.38 0.39 0.37 0.36 0.37 0.38 0.39 0.31 0.33 0.41 0.53 0.65 0.79 1.11 1.53 1.59 1.10 1.18 1.23 1.16 1.05 1.01 0.99 0.84 0.80
0.07 0.06 0.10 0.15 0.15 0.14 0.15 0.18 0.20 0.18 0.19 0.20 0.20 0.24 0.28 0.33 0.36 0.34 0.36 0.35 0.36 0.37 0.36 0.37 0.35 0.34 0.38 0.44 0.59 0.71 0.88 1.17 1.42 1.04 0.80 0.98 1.03 1.07 1.03 0.99 0.93 0.83 0.77
0.08 0.09 0.12 0.17 0.18 0.17 0.17 0.19 0.20 0.18 0.19 0.21 0.21 0.22 0.26 0.31 0.35 0.34 0.33 0.34 0.36 0.37 0.34 0.32 0.32 0.41 0.50 0.61 0.72 0.76 0.91 1.14 1.03 0.83 0.93 1.11 1.04 1.03 1.25 1.31 1.12 0.89 0.68
0.07 0.09 0.14 0.18 0.19 0.19 0.19 0.21 0.21 0.20 0.20 0.22 0.22 0.22 0.25 0.29 0.34 0.33 0.32 0.34 0.34 0.35 0.36 0.36 0.35 0.42 0.51 0.61 0.71 0.76 0.88 0.96 0.81 0.75 0.93 1.07 0.87 0.99 1.40 1.50 1.35 1.16 0.85
0.17 0.12 0.17 0.18 0.19 0.23 0.24 0.23 0.23 0.25 0.24 0.25 0.25 0.25 0.27 0.26 0.30 0.32 0.35 0.34 0.34 0.37 0.38 0.40 0.42 0.44 0.46 0.56 0.68 0.78 0.93 1.01 0.84 0.83 0.83 0.98 0.83 1.01 1.39 1.43 1.29 1.25 1.03
0.41 0.35 0.27 0.26 0.28 0.28 0.28 0.29 0.28 0.29 0.29 0.30 0.28 0.31 0.36 0.36 0.37 0.39 0.39 0.41 0.42 0.43 0.48 0.53 0.55 0.58 0.61 0.65 0.73 0.86 0.99 0.88 0.83 0.88 0.91 0.88 0.85 1.19 1.45 1.44 1.40 1.35 1.17
0.70 0.69 0.51 0.44 0.38 0.40 0.37 0.34 0.42 0.41 0.42 0.43 0.46 0.48 0.63 0.85 0.79 0.78 0.63 0.66 0.65 0.65 0.71 0.77 0.79 0.82 0.80 0.79 0.94 1.03 0.89 0.88 1.10 0.96 0.93 0.89 1.07 1.40 1.56 1.61 1.60 1.53 1.41
0.92 0.77 0.72 0.72 0.55 0.55 0.56 0.60 0.82 0.78 0.78 0.84 0.91 0.88 1.17 1.29 1.22 0.91 0.89 1.08 1.12 1.15 1.16 1.22 1.35 1.30 1.06 0.88 1.10 1.42 1.07 1.06 1.15 0.96 0.83 0.94 1.20 1.53 1.68 1.75 1.59 1.53 1.49
1.08 0.94 1.04 1.00 0.85 0.80 0.98 0.86 0.99 1.20 1.34 1.34 1.31 1.43 1.59 1.36 1.16 1.04 1.20 1.41 1.46 1.49 1.51 1.66 1.89 1.68 1.65 1.61 1.66 1.72 1.37 1.33 1.27 1.04 1.09 1.33 1.51 1.82 1.98 1.88 1.76 1.63 1.52
1.58 1.53 1.51 1.54 1.46 1.38 1.23 1.24 1.17 1.18 1.29 1.44 1.49 1.47 1.66 1.69 1.61 1.51 1.53 1.50 1.53 1.64 1.90 1.93 2.08 2.19 2.24 2.02 1.91 1.93 1.72 1.58 1.49 1.43 1.59 1.78 1.83 2.05 2.26 2.10 1.94 1.79 1.68
2.33 2.43 2.41 2.27 2.02 2.02 1.94 1.74 1.44 1.46 1.40 1.40 1.64 1.70 1.78 1.88 1.96 1.93 1.81 1.76 1.53 1.62 1.93 2.22 2.13 2.30 2.48 2.35 2.06 1.91 1.82 1.65 1.63 1.56 1.68 1.88 1.79 1.88 2.16 2.24 2.19 2.04 1.96
3.14 3.52 3.30 3.08 2.75 2.59 2.49 2.32 2.15 1.88 1.78 1.60 1.71 1.84 1.99 2.14 2.21 2.17 1.97 1.89 1.61 1.58 1.82 2.10 2.13 2.33 2.38 2.39 1.99 1.82 1.74 1.78 1.73 1.60 1.67 1.87 1.86 1.70 1.86 2.17 2.38 2.42 2.29
3.77 4.28 4.02 3.87 3.79 3.52 3.33 2.92 2.43 2.11 1.92 2.02 2.10 2.22 2.34 2.39 2.45 2.39 2.21 1.93 1.81 1.88 1.98 1.99 2.07 2.45 2.31 2.20 2.01 2.01 1.97 1.92 1.77 1.69 1.66 1.81 1.65 1.59 1.60 1.76 2.08 2.35 2.60
3.98 4.34 4.65 4.38 4.66 4.53 4.15 3.63 3.13 2.87 2.71 2.57 2.48 2.54 2.41 2.40 2.43 2.53 2.20 1.84 1.98 2.14 2.17 2.14 2.17 2.39 2.41 2.48 2.39 2.23 2.06 1.92 1.52 1.44 1.46 1.51 1.62 1.39 1.51 1.74 1.88 2.00 2.44
4.26 4.73 5.14 5.37 5.42 4.99 4.57 4.12 3.82 3.58 3.28 2.85 2.38 2.13 1.98 1.89 1.86 1.90 1.60 1.50 1.67 1.76 1.65 1.58 1.87 2.07 2.16 2.27 2.16 1.99 1.72 1.57 1.39 1.30 1.33 1.17 1.25 1.30 1.36 1.59 1.79 1.83 2.25
4.35 5.20 5.62 5.71 5.32 4.87 4.46 3.93 3.67 3.38 3.05 2.68 2.21 1.82 1.59 1.52 1.44 1.49 1.24 1.18 1.40 1.52 1.48 1.59 1.72 1.72 1.67 1.73 1.55 1.38 1.29 1.13 1.12 1.10 0.98 0.97 0.97 0.97 1.14 1.41 1.62 1.44 1.92
4.45 5.39 5.75 5.44 4.86 4.38 3.89 3.34 2.87 2.56 2.33 2.20 1.93 1.60 1.47 1.45 1.44 1.51 1.25 1.33 1.40 1.41 1.40 1.44 1.51 1.44 1.24 1.40 1.61 1.41 1.14 1.00 0.97 0.87 0.83 0.87 0.80 0.86 1.08 1.28 1.46 1.55 1.45
3.92 4.68 4.95 4.55 3.88 3.29 2.94 2.74 2.50 2.35 2.03 1.80 1.68 1.54 1.32 1.30 1.31 1.31 1.27 1.07 1.10 1.20 1.11 1.14 1.35 1.36 1.15 1.25 1.48 1.53 1.27 1.23 1.05 0.65 0.70 0.75 0.76 0.88 1.03 1.10 1.34 1.57 1.53
3.40 3.41 3.50 3.35 2.82 2.45 2.32 2.26 2.19 2.20 1.96 1.67 1.51 1.33 1.16 1.11 1.08 1.09 1.06 1.02 1.08 1.06 1.10 1.12 1.16 1.26 1.18 1.07 1.16 1.45 1.31 1.14 0.97 0.76 0.68 0.67 0.80 0.99 1.06 1.17 1.21 1.31 1.43
2.53 2.35 2.35 2.39 2.19 2.09 1.99 1.95 1.79 1.60 1.49 1.37 1.34 1.26 1.17 1.10 1.03 0.96 0.95 0.91 0.97 0.99 1.14 0.99 1.02 1.11 1.13 0.96 0.97 1.05 1.05 1.07 1.06 0.92 0.79 0.75 0.79 0.94 1.08 1.12 1.24 1.35 1.38
1.65 1.70 1.85 2.06 2.05 1.93 1.86 1.92 1.89 1.60 1.42 1.33 1.30 1.32 1.21 1.09 1.02 0.94 0.94 0.97 0.96 0.93 0.95 0.98 1.07 1.04 1.00 0.94 0.92 0.98 1.06 1.06 1.00 0.98 0.97 0.87 0.79 0.71 0.83 1.03 1.20 1.32 1.32
1.07 1.21 1.40 1.75 1.87 1.77 1.70 1.72 1.68 1.58 1.52 1.38 1.22 1.17 1.16 1.10 1.06 1.06 1.01 1.04 0.97 0.92 0.93 0.93 0.97 0.96 1.01 1.05 0.99 0.98 1.12 1.16 1.06 1.03 0.97 0.87 0.81 0.69 0.73 0.94 1.22 1.39 1.39

GEFSSE_prec_meanprecacc_192.txt.gz
Total_Precipitation_Accumulation
0.20 0.25 0.39 0.38 0.29 0.30 0.33 0.37 0.39 0.36 0.30 0.26 0.22 0.20 0.18 0.20 0.24 0.28 0.27 0.31 0.39 0.50 0.56 0.61 0.65 0.60 0.66 0.68 0.68 0.65 0.68 0.82 0.95 1.01 1.05 1.09 1.24 1.49 1.62 1.80 1.89 1.41 1.23
0.06 0.15 0.29 0.32 0.26 0.25 0.27 0.30 0.31 0.31 0.27 0.24 0.22 0.21 0.20 0.21 0.24 0.25 0.26 0.32 0.38 0.45 0.48 0.50 0.57 0.57 0.55 0.55 0.57 0.58 0.66 0.88 1.16 1.30 1.43 1.36 1.51 1.68 1.66 1.68 1.86 1.31 1.19
0.06 0.10 0.16 0.27 0.22 0.20 0.20 0.24 0.25 0.26 0.24 0.24 0.21 0.20 0.22 0.24 0.28 0.31 0.35 0.41 0.43 0.45 0.47 0.48 0.51 0.50 0.49 0.49 0.50 0.57 0.74 1.02 1.34 1.66 1.97 1.49 1.14 1.61 1.63 1.61 1.47 1.16 1.06
0.07 0.07 0.07 0.17 0.21 0.17 0.18 0.22 0.24 0.22 0.20 0.22 0.21 0.20 0.23 0.28 0.33 0.39 0.47 0.45 0.45 0.44 0.42 0.41 0.46 0.39 0.44 0.47 0.51 0.63 0.78 1.07 1.42 1.86 1.93 1.32 0.85 1.14 1.35 1.32 1.13 0.93 0.91
0.07 0.06 0.08 0.13 0.16 0.15 0.17 0.21 0.22 0.21 0.21 0.21 0.21 0.24 0.29 0.35 0.39 0.41 0.44 0.46 0.44 0.42 0.41 0.42 0.43 0.34 0.36 0.45 0.56 0.67 0.81 1.16 1.60 1.73 1.27 1.35 1.36 1.22 1.09 1.05 1.04 0.89 0.84
0.07 0.06 0.10 0.16 0.16 0.16 0.18 0.22 0.23 0.21 0.22 0.23 0.23 0.28 0.35 0.40 0.42 0.39 0.41 0.41 0.40 0.41 0.39 0.40 0.38 0.36 0.40 0.46 0.61 0.72 0.91 1.23 1.52 1.17 0.95 1.12 1.11 1.10 1.06 1.03 0.98 0.89 0.81
0.08 0.10 0.12 0.18 0.19 0.18 0.19 0.22 0.23 0.22 0.23 0.25 0.25 0.28 0.31 0.36 0.39 0.37 0.37 0.37 0.38 0.39 0.36 0.34 0.34 0.43 0.52 0.63 0.74 0.77 0.93 1.21 1.14 0.94 1.05 1.24 1.12 1.06 1.28 1.35 1.17 0.95 0.72
0.08 0.09 0.14 0.18 0.20 0.20 0.21 0.23 0.24 0.23 0.25 0.26 0.27 0.27 0.28 0.31 0.36 0.36 0.36 0.37 0.36 0.37 0.38 0.37 0.36 0.44 0.52 0.63 0.72 0.78 0.90 1.01 0.84 0.78 0.99 1.13 0.91 1.01 1.43 1.55 1.41 1.21 0.91
0.17 0.13 0.18 0.19 0.20 0.23 0.25 0.25 0.25 0.26 0.27 0.27 0.29 0.29 0.30 0.28 0.32 0.35 0.38 0.39 0.39 0.41 0.40 0.42 0.44 0.46 0.49 0.58 0.70 0.81 0.95 1.04 0.88 0.86 0.87 1.00 0.84 1.03 1.42 1.46 1.34 1.29 1.07
0.42 0.37 0.29 0.28 0.29 0.30 0.30 0.30 0.29 0.30 0.30 0.31 0.30 0.33 0.40 0.41 0.39 0.41 0.41 0.42 0.45 0.47 0.50 0.54 0.57 0.60 0.64 0.68 0.76 0.87 1.00 0.90 0.87 0.91 0.94 0.90 0.86 1.21 1.47 1.46 1.42 1.38 1.22
0.70 0.70 0.54 0.48 0.41 0.42 0.40 0.35 0.44 0.43 0.43 0.47 0.49 0.51 0.71 0.98 0.88 0.85 0.65 0.67 0.66 0.67 0.72 0.78 0.81 0.85 0.83 0.83 0.96 1.04 0.90 0.92 1.14 0.98 0.94 0.90 1.08 1.42 1.58 1.63 1.62 1.57 1.46
0.92 0.77 0.73 0.74 0.57 0.58 0.59 0.65 0.91 0.85 0.85 0.94 0.99 0.97 1.27 1.39 1.33 0.96 0.92 1.10 1.14 1.18 1.18 1.25 1.39 1.34 1.11 0.91 1.11 1.44 1.11 1.10 1.17 0.97 0.84 0.95 1.22 1.55 1.69 1.77 1.62 1.56 1.52
1.09 0.95 1.05 1.01 0.86 0.83 1.03 0.90 1.04 1.26 1.43 1.42 1.37 1.51 1.67 1.42 1.21 1.09 1.24 1.44 1.48 1.52 1.54 1.69 1.93 1.73 1.69 1.63 1.68 1.73 1.40 1.35 1.28 1.05 1.10 1.33 1.53 1.84 2.00 1.91 1.78 1.65 1.54
1.60 1.53 1.52 1.54 1.48 1.41 1.27 1.27 1.21 1.23 1.35 1.50 1.55 1.52 1.71 1.76 1.68 1.58 1.60 1.58 1.59 1.69 1.95 1.98 2.13 2.22 2.26 2.03 1.92 1.94 1.73 1.59 1.50 1.44 1.60 1.79 1.84 2.06 2.28 2.12 1.96 1.80 1.69
2.36 2.45 2.41 2.27 2.04 2.04 1.97 1.78 1.47 1.49 1.45 1.46 1.70 1.74 1.83 1.95 2.03 2.00 1.87 1.84 1.60 1.66 1.97 2.28 2.18 2.32 2.50 2.35 2.06 1.92 1.83 1.66 1.63 1.57 1.69 1.89 1.80 1.88 2.17 2.25 2.20 2.06 1.98
3.14 3.53 3.31 3.09 2.76 2.61 2.53 2.37 2.22 1.91 1.81 1.62 1.74 1.87 2.04 2.19 2.27 2.25 2.04 1.96 1.67 1.64 1.87 2.14 2.17 2.35 2.40 2.41 2.01 1.83 1.75 1.80 1.77 1.63 1.70 1.90 1.87 1.71 1.87 2.19 2.40 2.44 2.31
3.78 4.29 4.03 3.89 3.83 3.57 3.39 2.98 2.49 2.15 1.93 2.04 2.14 2.26 2.36 2.42 2.49 2.44 2.27 1.99 1.85 1.92 2.02 2.04 2.11 2.49 2.34 2.23 2.03 2.03 1.98 1.94 1.80 1.73 1.69 1.86 1.69 1.60 1.61 1.78 2.10 2.37 2.63
3.99 4.35 4.67 4.41 4.72 4.59 4.24 3.73 3.20 2.90 2.73 2.59 2.50 2.57 2.44 2.43 2.46 2.57 2.24 1.88 2.02 2.18 2.20 2.19 2.22 2.44 2.45 2.51 2.42 2.27 2.10 1.95 1.54 1.46 1.49 1.55 1.68 1.43 1.56 1.77 1.90 2.02 2.46
4.27 4.74 5.18 5.40 5.47 5.04 4.64 4.21 3.90 3.64 3.33 2.89 2.41 2.17 2.03 1.93 1.89 1.95 1.65 1.55 1.70 1.80 1.69 1.62 1.93 2.13 2.22 2.32 2.21 2.05 1.76 1.61 1.43 1.33 1.36 1.20 1.30 1.34 1.41 1.63 1.82 1.85 2.28
4.36 5.22 5.64 5.74 5.35 4.93 4.53 4.02 3.80 3.48 3.12 2.73 2.25 1.87 1.64 1.56 1.47 1.56 1.30 1.23 1.44 1.57 1.56 1.67 1.80 1.80 1.74 1.80 1.60 1.45 1.34 1.16 1.16 1.14 1.01 1.00 1.00 1.00 1.20 1.48 1.69 1.49 1.96
4.47 5.42 5.79 5.49 4.91 4.45 3.99 3.46 3.05 2.69 2.43 2.29 2.00 1.65 1.51 1.48 1.48 1.58 1.32 1.42 1.46 1.49 1.50 1.54 1.61 1.54 1.33 1.47 1.70 1.50 1.21 1.05 1.01 0.91 0.86 0.90 0.83 0.90 1.12 1.36 1.54 1.64 1.53
3.94 4.70 4.97 4.59 3.93 3.34 3.03 2.84 2.60 2.46 2.14 1.90 1.77 1.62 1.37 1.34 1.35 1.37 1.37 1.15 1.18 1.29 1.20 1.23 1.47 1.47 1.25 1.32 1.58 1.66 1.43 1.35 1.13 0.70 0.73 0.79 0.80 0.93 1.08 1.16 1.42 1.66 1.63
3.42 3.42 3.51 3.38 2.86 2.50 2.38 2.34 2.26 2.27 2.05 1.77 1.61 1.43 1.24 1.17 1.12 1.14 1.12 1.09 1.16 1.13 1.18 1.22 1.28 1.36 1.28 1.16 1.24 1.59 1.49 1.30 1.09 0.85 0.75 0.73 0.85 1.03 1.11 1.22 1.26 1.36 1.49
2.54 2.36 2.35 2.41 2.23 2.14 2.04 2.01 1.85 1.67 1.58 1.46 1.44 1.36 1.24 1.17 1.09 1.01 0.99 0.96 1.03 1.05 1.22 1.05 1.11 1.21 1.24 1.08 1.08 1.16 1.16 1.20 1.21 1.09 0.90 0.81 0.85 1.00 1.14 1.17 1.28 1.40 1.43
1.65 1.70 1.86 2.08 2.08 1.97 1.91 1.98 1.95 1.65 1.48 1.39 1.37 1.41 1.28 1.16 1.09 1.02 1.00 1.03 1.04 1.01 1.04 1.07 1.19 1.14 1.11 1.06 1.06 1.10 1.19 1.19 1.12 1.14 1.12 0.98 0.88 0.78 0.88 1.08 1.25 1.37 1.37
1.07 1.21 1.41 1.77 1.90 1.81 1.75 1.77 1.73 1.63 1.56 1.42 1.28 1.26 1.24 1.16 1.14 1.14 1.08 1.11 1.06 1.03 1.03 1.03 1.08 1.07 1.12 1.16 1.08 1.07 1.22 1.28 1.19 1.19 1.13 1.03 0.94 0.77 0.78 0.98 1.26 1.42 1.42

GEFSSE_prec_meanprecacc_198.txt.gz
Total_Precipitation_Accumulation
0.23 0.27 0.41 0.40 0.32 0.33 0.37 0.40 0.41 0.38 0.32 0.28 0.24 0.22 0.21 0.23 0.29 0.32 0.32 0.36 0.45 0.56 0.62 0.67 0.70 0.65 0.71 0.74 0.73 0.70 0.73 0.88 1.00 1.06 1.10 1.14 1.29 1.54 1.68 1.86 1.93 1.43 1.26
0.07 0.16 0.30 0.34 0.28 0.27 0.29 0.32 0.32 0.32 0.29 0.25 0.23 0.23 0.22 0.23 0.26 0.28 0.29 0.35 0.42 0.48 0.52 0.54 0.61 0.60 0.59 0.60 0.61 0.64 0.72 0.95 1.22 1.36 1.48 1.41 1.56 1.72 1.70 1.74 1.90 1.33 1.22
0.06 0.11 0.17 0.29 0.24 0.21 0.22 0.25 0.26 0.27 0.25 0.25 0.22 0.22 0.24 0.27 0.31 0.34 0.38 0.44 0.46 0.48 0.50 0.50 0.53 0.53 0.52 0.54 0.55 0.62 0.80 1.09 1.41 1.74 2.04 1.53 1.17 1.65 1.67 1.67 1.52 1.19 1.09
0.08 0.07 0.07 0.18 0.22 0.18 0.19 0.22 0.25 0.23 0.21 0.23 0.23 0.22 0.25 0.30 0.36 0.43 0.51 0.49 0.48 0.46 0.44 0.43 0.47 0.41 0.46 0.51 0.56 0.69 0.86 1.15 1.49 1.94 1.99 1.36 0.88 1.18 1.40 1.37 1.18 0.96 0.94
0.07 0.06 0.09 0.14 0.17 0.16 0.18 0.22 0.23 0.22 0.22 0.22 0.23 0.26 0.31 0.37 0.41 0.44 0.48 0.48 0.46 0.44 0.42 0.43 0.44 0.36 0.38 0.47 0.59 0.70 0.86 1.22 1.67 1.78 1.30 1.37 1.38 1.26 1.12 1.08 1.08 0.92 0.87
0.09 0.07 0.10 0.16 0.16 0.17 0.19 0.23 0.24 0.22 0.23 0.24 0.25 0.31 0.37 0.42 0.44 0.42 0.43 0.42 0.42 0.42 0.40 0.41 0.38 0.37 0.41 0.48 0.63 0.75 0.95 1.28 1.58 1.21 0.97 1.13 1.12 1.14 1.09 1.06 1.02 0.91 0.83
0.09 0.11 0.13 0.18 0.19 0.19 0.21 0.23 0.24 0.23 0.24 0.26 0.26 0.30 0.33 0.38 0.41 0.39 0.39 0.39 0.39 0.41 0.37 0.35 0.34 0.44 0.53 0.65 0.76 0.81 0.98 1.26 1.18 0.97 1.09 1.27 1.13 1.08 1.31 1.38 1.21 0.98 0.75
0.09 0.11 0.15 0.19 0.20 0.20 0.22 0.24 0.25 0.25 0.26 0.27 0.28 0.28 0.30 0.33 0.38 0.38 0.38 0.39 0.37 0.38 0.39 0.38 0.37 0.46 0.54 0.65 0.74 0.80 0.95 1.06 0.89 0.81 1.02 1.16 0.93 1.04 1.46 1.57 1.43 1.24 0.93
0.19 0.15 0.20 0.20 0.21 0.24 0.25 0.25 0.26 0.28 0.29 0.29 0.31 0.32 0.32 0.29 0.34 0.37 0.41 0.41 0.40 0.42 0.42 0.44 0.45 0.48 0.51 0.59 0.71 0.83 1.00 1.10 0.93 0.90 0.90 1.02 0.86 1.05 1.43 1.47 1.35 1.30 1.09
0.44 0.40 0.35 0.32 0.30 0.30 0.31 0.31 0.31 0.32 0.32 0.34 0.33 0.37 0.43 0.44 0.42 0.44 0.43 0.45 0.47 0.48 0.52 0.56 0.58 0.62 0.67 0.70 0.78 0.90 1.04 0.95 0.91 0.93 0.96 0.92 0.88 1.22 1.48 1.47 1.43 1.39 1.24
0.72 0.73 0.60 0.56 0.43 0.44 0.41 0.37 0.47 0.46 0.47 0.50 0.53 0.56 0.75 1.00 0.90 0.87 0.67 0.70 0.69 0.69 0.73 0.80 0.83 0.88 0.86 0.85 1.00 1.08 0.95 0.97 1.17 1.00 0.96 0.91 1.11 1.44 1.59 1.64 1.64 1.58 1.48
0.95 0.79 0.75 0.77 0.61 0.62 0.62 0.67 0.94 0.88 0.88 0.96 1.02 1.00 1.30 1.42 1.35 0.98 0.95 1.13 1.17 1.21 1.20 1.27 1.42 1.39 1.14 0.94 1.16 1.49 1.20 1.17 1.21 0.99 0.85 0.96 1.24 1.57 1.70 1.78 1.63 1.57 1.53
1.11 0.97 1.07 1.04 0.90 0.88 1.08 0.93 1.08 1.30 1.45 1.44 1.41 1.57 1.74 1.46 1.25 1.12 1.26 1.47 1.50 1.54 1.57 1.73 1.97 1.79 1.74 1.68 1.74 1.79 1.49 1.41 1.31 1.07 1.13 1.35 1.55 1.86 2.01 1.92 1.79 1.66 1.55
1.62 1.57 1.55 1.56 1.50 1.44 1.29 1.30 1.26 1.30 1.39 1.53 1.60 1.59 1.77 1.81 1.75 1.64 1.64 1.62 1.62 1.72 2.00 2.05 2.21 2.30 2.31 2.07 1.96 1.99 1.78 1.62 1.53 1.47 1.62 1.81 1.85 2.09 2.30 2.14 1.97 1.82 1.71
2.37 2.46 2.43 2.28 2.05 2.05 1.99 1.82 1.51 1.55 1.51 1.49 1.74 1.79 1.86 1.99 2.07 2.05 1.92 1.91 1.64 1.69 2.02 2.34 2.25 2.39 2.55 2.39 2.11 1.97 1.88 1.71 1.67 1.60 1.72 1.92 1.82 1.90 2.19 2.28 2.23 2.08 2.00
3.15 3.54 3.33 3.10 2.78 2.62 2.55 2.40 2.27 1.97 1.86 1.66 1.77 1.89 2.06 2.22 2.31 2.28 2.08 2.00 1.72 1.69 1.93 2.20 2.22 2.41 2.45 2.47 2.09 1.88 1.81 1.87 1.81 1.66 1.72 1.93 1.90 1.74 1.90 2.22 2.43 2.47 2.34
3.78 4.30 4.04 3.90 3.85 3.59 3.41 3.00 2.52 2.19 1.97 2.08 2.18 2.27 2.38 2.44 2.52 2.48 2.31 2.03 1.91 1.97 2.06 2.07 2.14 2.53 2.40 2.30 2.10 2.08 2.02 1.97 1.83 1.76 1.73 1.89 1.71 1.63 1.64 1.81 2.13 2.40 2.67
4.00 4.37 4.69 4.43 4.74 4.61 4.26 3.76 3.23 2.94 2.77 2.62 2.54 2.59 2.45 2.45 2.49 2.61 2.26 1.90 2.05 2.21 2.24 2.22 2.25 2.48 2.50 2.59 2.49 2.32 2.14 1.99 1.57 1.48 1.51 1.58 1.70 1.46 1.58 1.80 1.93 2.05 2.51
4.28 4.76 5.21 5.43 5.49 5.06 4.66 4.23 3.93 3.67 3.37 2.92 2.43 2.18 2.06 1.95 1.91 1.98 1.68 1.57 1.72 1.83 1.73 1.65 1.95 2.16 2.27 2.38 2.28 2.11 1.82 1.66 1.47 1.37 1.39 1.24 1.33 1.37 1.44 1.66 1.84 1.88 2.32
4.41 5.25 5.66 5.76 5.37 4.94 4.56 4.05 3.82 3.50 3.15 2.76 2.28 1.90 1.68 1.62 1.51 1.59 1.33 1.26 1.47 1.60 1.59 1.69 1.83 1.83 1.78 1.85 1.66 1.52 1.41 1.23 1.24 1.20 1.06 1.06 1.06 1.06 1.26 1.53 1.73 1.51 2.00
4.55 5.46 5.81 5.52 4.93 4.47 4.01 3.49 3.08 2.72 2.48 2.35 2.05 1.71 1.56 1.53 1.52 1.62 1.36 1.46 1.49 1.51 1.52 1.57 1.64 1.57 1.37 1.52 1.76 1.58 1.29 1.15 1.09 1.00 0.95 1.02 0.94 0.99 1.23 1.46 1.63 1.71 1.60
3.95 4.70 4.98 4.61 3.95 3.36 3.04 2.86 2.63 2.49 2.18 1.97 1.83 1.69 1.44 1.41 1.41 1.41 1.41 1.20 1.21 1.31 1.22 1.26 1.51 1.50 1.28 1.39 1.68 1.75 1.51 1.45 1.24 0.80 0.82 0.89 0.90 1.02 1.17 1.27 1.54 1.77 1.71
3.42 3.43 3.53 3.40 2.88 2.52 2.40 2.37 2.31 2.32 2.10 1.84 1.69 1.50 1.29 1.23 1.19 1.20 1.16 1.13 1.20 1.16 1.20 1.25 1.33 1.40 1.32 1.24 1.36 1.72 1.60 1.39 1.19 0.97 0.89 0.84 0.95 1.13 1.19 1.29 1.33 1.43 1.55
2.55 2.37 2.37 2.43 2.24 2.17 2.07 2.05 1.90 1.72 1.64 1.51 1.49 1.40 1.28 1.21 1.15 1.06 1.05 1.01 1.07 1.08 1.25 1.10 1.16 1.27 1.29 1.15 1.19 1.30 1.33 1.36 1.32 1.18 1.03 0.94 1.00 1.12 1.23 1.25 1.37 1.47 1.51
1.66 1.71 1.88 2.09 2.09 1.99 1.93 2.00 1.97 1.69 1.51 1.41 1.41 1.44 1.31 1.19 1.12 1.05 1.05 1.08 1.08 1.05 1.08 1.11 1.26 1.21 1.17 1.12 1.13 1.20 1.32 1.34 1.24 1.24 1.19 1.05 0.99 0.89 1.02 1.24 1.41 1.58 1.54
1.07 1.22 1.42 1.78 1.91 1.83 1.77 1.79 1.74 1.65 1.57 1.43 1.30 1.29 1.27 1.18 1.15 1.17 1.13 1.17 1.11 1.07 1.06 1.06 1.13 1.13 1.17 1.22 1.14 1.12 1.29 1.36 1.28 1.28 1.19 1.07 0.99 0.84 0.87 1.10 1.43 1.70 1.70

GEFSSE_prec_meanprecacc_204.txt.gz
Total_Precipitation_Accumulation
0.28 0.34 0.50 0.47 0.38 0.39 0.42 0.43 0.44 0.40 0.36 0.32 0.29 0.28 0.26 0.29 0.35 0.39 0.39 0.43 0.51 0.66 0.75 0.79 0.80 0.76 0.83 0.86 0.84 0.80 0.81 0.94 1.07 1.14 1.17 1.21 1.37 1.61 1.75 1.93 1.99 1.47 1.29
0.10 0.21 0.37 0.40 0.32 0.30 0.32 0.33 0.34 0.34 0.31 0.28 0.26 0.26 0.25 0.27 0.31 0.34 0.36 0.43 0.49 0.57 0.62 0.63 0.68 0.70 0.69 0.70 0.70 0.74 0.81 1.02 1.29 1.44 1.57 1.48 1.63 1.79 1.77 1.81 1.95 1.38 1.26
0.09 0.13 0.20 0.33 0.27 0.23 0.23 0.27 0.28 0.28 0.27 0.27 0.25 0.25 0.27 0.29 0.34 0.39 0.44 0.49 0.53 0.55 0.56 0.55 0.57 0.58 0.60 0.62 0.62 0.71 0.88 1.16 1.48 1.80 2.10 1.57 1.22 1.71 1.75 1.74 1.58 1.24 1.14
0.09 0.08 0.08 0.19 0.24 0.19 0.20 0.24 0.27 0.25 0.23 0.25 0.25 0.24 0.27 0.33 0.40 0.47 0.56 0.54 0.53 0.51 0.48 0.47 0.52 0.45 0.51 0.58 0.63 0.77 0.93 1.22 1.57 2.00 2.02 1.39 0.90 1.24 1.48 1.44 1.22 1.00 0.99
0.08 0.07 0.10 0.15 0.18 0.17 0.19 0.23 0.25 0.23 0.24 0.25 0.25 0.28 0.33 0.41 0.45 0.47 0.52 0.53 0.50 0.48 0.47 0.47 0.48 0.41 0.43 0.54 0.65 0.78 0.93 1.31 1.75 1.83 1.32 1.38 1.40 1.32 1.18 1.13 1.12 0.96 0.91
0.09 0.08 0.11 0.17 0.17 0.17 0.20 0.24 0.25 0.23 0.24 0.26 0.27 0.34 0.41 0.46 0.48 0.44 0.45 0.44 0.44 0.45 0.44 0.45 0.42 0.41 0.45 0.53 0.69 0.81 1.02 1.36 1.63 1.23 0.98 1.15 1.15 1.20 1.15 1.11 1.06 0.95 0.86
0.10 0.11 0.14 0.20 0.20 0.20 0.22 0.24 0.26 0.25 0.26 0.28 0.29 0.34 0.38 0.43 0.45 0.41 0.41 0.41 0.41 0.43 0.41 0.38 0.37 0.48 0.59 0.70 0.81 0.86 1.04 1.32 1.19 0.99 1.11 1.29 1.16 1.13 1.37 1.43 1.25 1.01 0.77
0.10 0.11 0.16 0.21 0.22 0.21 0.23 0.26 0.26 0.26 0.28 0.29 0.30 0.31 0.32 0.35 0.41 0.40 0.40 0.40 0.39 0.40 0.42 0.42 0.41 0.50 0.59 0.71 0.79 0.85 1.00 1.11 0.90 0.83 1.03 1.18 0.97 1.08 1.51 1.62 1.46 1.26 0.95
0.20 0.17 0.21 0.22 0.22 0.27 0.28 0.28 0.27 0.29 0.30 0.31 0.33 0.34 0.34 0.32 0.36 0.39 0.43 0.42 0.41 0.44 0.45 0.47 0.49 0.53 0.55 0.64 0.77 0.88 1.04 1.13 0.94 0.90 0.91 1.05 0.89 1.09 1.48 1.50 1.37 1.32 1.11
0.45 0.42 0.37 0.33 0.32 0.32 0.32 0.33 0.34 0.33 0.34 0.35 0.35 0.39 0.46 0.46 0.44 0.46 0.46 0.46 0.48 0.49 0.54 0.59 0.62 0.66 0.71 0.75 0.83 0.97 1.11 0.98 0.91 0.94 0.97 0.94 0.91 1.25 1.51 1.50 1.46 1.41 1.26
0.74 0.74 0.61 0.58 0.44 0.44 0.42 0.38 0.48 0.47 0.48 0.52 0.54 0.58 0.76 1.01 0.91 0.88 0.69 0.72 0.71 0.70 0.75 0.82 0.87 0.93 0.90 0.91 1.08 1.14 1.00 0.99 1.18 1.01 0.97 0.93 1.13 1.46 1.62 1.67 1.66 1.60 1.51
0.98 0.82 0.77 0.78 0.62 0.63 0.63 0.68 0.94 0.89 0.90 0.98 1.04 1.02 1.31 1.43 1.36 0.99 0.97 1.17 1.22 1.26 1.24 1.31 1.47 1.44 1.17 0.97 1.21 1.54 1.22 1.18 1.22 1.01 0.87 0.99 1.28 1.60 1.73 1.81 1.67 1.59 1.55
1.14 0.99 1.08 1.05 0.92 0.91 1.11 0.95 1.09 1.31 1.46 1.46 1.44 1.60 1.76 1.47 1.25 1.13 1.27 1.49 1.53 1.58 1.60 1.76 2.00 1.82 1.76 1.71 1.77 1.82 1.50 1.42 1.32 1.10 1.15 1.38 1.58 1.90 2.05 1.95 1.83 1.69 1.58
1.64 1.59 1.56 1.58 1.53 1.47 1.32 1.32 1.27 1.31 1.40 1.56 1.63 1.62 1.78 1.82 1.75 1.64 1.65 1.64 1.64 1.74 2.02 2.07 2.23 2.33 2.34 2.09 1.98 2.01 1.79 1.64 1.56 1.50 1.66 1.85 1.89 2.13 2.34 2.18 2.01 1.85 1.75
2.39 2.47 2.44 2.30 2.08 2.10 2.04 1.86 1.55 1.58 1.53 1.52 1.77 1.82 1.88 2.01 2.09 2.06 1.92 1.93 1.67 1.72 2.04 2.35 2.27 2.42 2.58 2.41 2.13 2.00 1.91 1.75 1.71 1.63 1.75 1.96 1.87 1.95 2.25 2.33 2.28 2.13 2.05
3.18 3.56 3.34 3.12 2.80 2.67 2.61 2.46 2.32 2.01 1.90 1.69 1.80 1.91 2.09 2.26 2.34 2.30 2.10 2.03 1.75 1.71 1.95 2.23 2.25 2.44 2.47 2.50 2.13 1.92 1.84 1.90 1.85 1.68 1.74 1.96 1.97 1.80 1.96 2.29 2.51 2.56 2.43
3.83 4.34 4.08 3.92 3.87 3.62 3.45 3.05 2.59 2.25 2.02 2.13 2.22 2.30 2.40 2.47 2.55 2.50 2.33 2.06 1.94 2.01 2.10 2.12 2.19 2.57 2.43 2.34 2.14 2.12 2.05 2.00 1.85 1.78 1.75 1.91 1.74 1.67 1.69 1.87 2.20 2.48 2.75
4.04 4.41 4.73 4.45 4.76 4.63 4.30 3.81 3.29 3.01 2.84 2.67 2.58 2.62 2.48 2.49 2.53 2.63 2.29 1.94 2.08 2.25 2.30 2.28 2.30 2.52 2.54 2.63 2.54 2.37 2.17 2.00 1.58 1.50 1.53 1.60 1.72 1.47 1.61 1.86 1.99 2.12 2.59
4.35 4.80 5.24 5.45 5.50 5.08 4.69 4.27 3.97 3.72 3.42 2.97 2.48 2.24 2.13 2.01 1.95 2.01 1.71 1.61 1.76 1.86 1.76 1.68 1.98 2.19 2.31 2.44 2.32 2.16 1.85 1.68 1.49 1.39 1.41 1.26 1.36 1.40 1.46 1.70 1.90 1.94 2.40
4.52 5.32 5.70 5.79 5.38 4.96 4.58 4.08 3.86 3.56 3.20 2.82 2.34 1.95 1.74 1.67 1.55 1.63 1.37 1.30 1.50 1.63 1.61 1.71 1.85 1.86 1.83 1.91 1.73 1.59 1.45 1.27 1.27 1.25 1.11 1.11 1.11 1.11 1.30 1.56 1.76 1.55 2.06
4.60 5.51 5.83 5.54 4.94 4.48 4.04 3.52 3.12 2.76 2.52 2.42 2.11 1.77 1.61 1.57 1.56 1.67 1.43 1.53 1.56 1.57 1.57 1.61 1.67 1.59 1.39 1.56 1.81 1.63 1.33 1.19 1.14 1.05 1.01 1.08 1.00 1.04 1.28 1.51 1.68 1.76 1.64
3.98 4.72 4.99 4.61 3.95 3.37 3.06 2.89 2.67 2.55 2.25 2.04 1.91 1.76 1.49 1.46 1.47 1.47 1.47 1.26 1.28 1.37 1.28 1.31 1.55 1.53 1.30 1.43 1.72 1.79 1.55 1.49 1.28 0.83 0.87 0.96 0.98 1.10 1.27 1.36 1.61 1.82 1.76
3.44 3.44 3.54 3.41 2.89 2.53 2.42 2.39 2.35 2.38 2.17 1.91 1.74 1.54 1.34 1.28 1.22 1.23 1.20 1.17 1.25 1.20 1.23 1.28 1.37 1.44 1.35 1.28 1.39 1.76 1.63 1.41 1.22 1.01 0.94 0.92 1.05 1.23 1.30 1.41 1.42 1.50 1.62
2.57 2.38 2.38 2.43 2.25 2.17 2.07 2.07 1.92 1.74 1.66 1.54 1.53 1.44 1.32 1.24 1.17 1.08 1.08 1.04 1.11 1.12 1.29 1.14 1.19 1.30 1.32 1.18 1.23 1.35 1.38 1.39 1.35 1.20 1.05 0.98 1.05 1.18 1.31 1.33 1.46 1.55 1.59
1.67 1.72 1.88 2.10 2.09 2.00 1.94 2.01 1.98 1.70 1.52 1.42 1.43 1.46 1.33 1.21 1.14 1.07 1.06 1.10 1.11 1.09 1.11 1.15 1.30 1.25 1.21 1.16 1.16 1.24 1.37 1.38 1.27 1.26 1.21 1.08 1.02 0.93 1.07 1.31 1.50 1.67 1.64
1.09 1.22 1.42 1.78 1.92 1.83 1.77 1.79 1.75 1.65 1.58 1.44 1.32 1.31 1.28 1.19 1.17 1.20 1.16 1.20 1.15 1.12 1.12 1.12 1.18 1.18 1.21 1.25 1.17 1.15 1.31 1.40 1.31 1.30 1.21 1.09 1.01 0.86 0.91 1.14 1.50 1.79 1.82

GEFSSE_prec_meanprecacc_210.txt.gz
Total_Precipitation_Accumulation
0.34 0.41 0.60 0.55 0.45 0.44 0.47 0.49 0.50 0.46 0.41 0.37 0.34 0.33 0.31 0.38 0.46 0.49 0.49 0.54 0.64 0.81 0.94 0.99 1.03 0.99 1.04 1.04 0.99 0.93 0.92 1.04 1.15 1.21 1.24 1.27 1.43 1.66 1.80 1.99 2.05 1.54 1.35
0.13 0.25 0.46 0.48 0.38 0.34 0.35 0.37 0.39 0.39 0.36 0.33 0.31 0.32 0.30 0.33 0.40 0.45 0.46 0.55 0.64 0.73 0.79 0.78 0.84 0.87 0.85 0.87 0.86 0.89 0.95 1.14 1.38 1.51 1.63 1.55 1.70 1.85 1.81 1.85 2.01 1.45 1.32
0.11 0.15 0.25 0.40 0.31 0.27 0.27 0.30 0.31 0.32 0.31 0.31 0.29 0.31 0.33 0.36 0.42 0.50 0.55 0.61 0.66 0.68 0.67 0.65 0.67 0.70 0.72 0.74 0.74 0.83 0.97 1.24 1.57 1.88 2.17 1.62 1.27 1.76 1.81 1.78 1.62 1.29 1.19
0.11 0.11 0.13 0.25 0.28 0.23 0.23 0.27 0.30 0.29 0.27 0.29 0.29 0.28 0.32 0.40 0.48 0.55 0.64 0.63 0.62 0.60 0.56 0.55 0.62 0.57 0.61 0.68 0.72 0.86 1.02 1.32 1.68 2.09 2.07 1.42 0.93 1.27 1.52 1.48 1.25 1.03 1.03
0.10 0.09 0.14 0.20 0.22 0.21 0.22 0.28 0.29 0.27 0.28 0.29 0.29 0.33 0.38 0.46 0.52 0.53 0.57 0.59 0.57 0.56 0.57 0.57 0.59 0.52 0.53 0.63 0.75 0.88 1.04 1.41 1.85 1.90 1.37 1.42 1.44 1.35 1.21 1.17 1.15 0.99 0.94
0.10 0.10 0.15 0.23 0.22 0.22 0.25 0.29 0.29 0.27 0.29 0.30 0.32 0.40 0.47 0.53 0.54 0.49 0.50 0.51 0.51 0.51 0.51 0.54 0.53 0.51 0.55 0.63 0.79 0.92 1.13 1.47 1.70 1.28 1.02 1.18 1.19 1.24 1.19 1.16 1.11 0.99 0.91
0.11 0.14 0.17 0.25 0.24 0.24 0.26 0.29 0.30 0.29 0.31 0.34 0.36 0.42 0.44 0.49 0.49 0.44 0.44 0.46 0.47 0.49 0.47 0.46 0.47 0.56 0.68 0.78 0.91 0.97 1.15 1.42 1.24 1.04 1.16 1.32 1.19 1.17 1.43 1.49 1.30 1.06 0.82
0.11 0.14 0.19 0.25 0.26 0.26 0.27 0.30 0.30 0.30 0.33 0.35 0.37 0.36 0.37 0.41 0.46 0.43 0.42 0.44 0.42 0.44 0.47 0.48 0.48 0.57 0.66 0.79 0.89 0.94 1.09 1.17 0.92 0.85 1.07 1.23 1.00 1.12 1.57 1.66 1.49 1.30 0.99
0.20 0.19 0.24 0.25 0.26 0.30 0.33 0.32 0.31 0.32 0.33 0.35 0.39 0.39 0.39 0.36 0.41 0.44 0.46 0.47 0.45 0.48 0.49 0.51 0.54 0.58 0.60 0.71 0.84 0.94 1.10 1.18 0.96 0.92 0.94 1.11 0.93 1.13 1.53 1.54 1.40 1.34 1.13
0.46 0.43 0.39 0.36 0.35 0.35 0.35 0.37 0.38 0.37 0.37 0.39 0.40 0.43 0.49 0.49 0.47 0.50 0.49 0.51 0.51 0.52 0.56 0.62 0.66 0.70 0.76 0.80 0.89 1.02 1.16 1.02 0.93 0.96 1.01 0.97 0.95 1.31 1.57 1.54 1.48 1.44 1.28
0.75 0.76 0.64 0.60 0.46 0.46 0.43 0.40 0.51 0.49 0.51 0.56 0.58 0.60 0.79 1.06 0.96 0.93 0.72 0.77 0.76 0.74 0.78 0.86 0.91 0.98 0.96 0.98 1.14 1.20 1.05 1.03 1.20 1.04 1.01 0.96 1.16 1.52 1.67 1.72 1.70 1.64 1.55
0.99 0.84 0.80 0.80 0.65 0.65 0.65 0.72 0.99 0.91 0.93 1.02 1.09 1.05 1.34 1.47 1.41 1.02 1.00 1.24 1.29 1.33 1.30 1.36 1.52 1.49 1.23 1.05 1.29 1.60 1.27 1.21 1.25 1.03 0.89 1.01 1.31 1.64 1.78 1.85 1.72 1.66 1.60
1.15 1.01 1.10 1.07 0.95 0.95 1.16 1.00 1.13 1.35 1.51 1.50 1.48 1.65 1.80 1.51 1.30 1.17 1.31 1.54 1.59 1.65 1.66 1.81 2.04 1.86 1.81 1.78 1.84 1.87 1.55 1.45 1.35 1.13 1.19 1.41 1.62 1.94 2.08 1.99 1.87 1.74 1.61
1.68 1.62 1.58 1.59 1.56 1.52 1.37 1.37 1.30 1.34 1.44 1.60 1.67 1.65 1.83 1.87 1.81 1.69 1.69 1.68 1.69 1.81 2.09 2.13 2.28 2.39 2.40 2.14 2.03 2.05 1.83 1.67 1.59 1.55 1.72 1.89 1.94 2.18 2.38 2.22 2.04 1.88 1.78
2.44 2.52 2.46 2.32 2.11 2.15 2.11 1.92 1.59 1.62 1.57 1.56 1.82 1.86 1.93 2.06 2.14 2.10 1.98 1.98 1.71 1.77 2.10 2.41 2.33 2.47 2.63 2.46 2.17 2.04 1.95 1.78 1.75 1.69 1.83 2.03 1.94 2.01 2.31 2.40 2.33 2.17 2.09
3.22 3.62 3.38 3.15 2.83 2.72 2.68 2.52 2.37 2.06 1.97 1.76 1.87 1.98 2.15 2.31 2.38 2.34 2.15 2.09 1.79 1.76 1.99 2.27 2.30 2.50 2.55 2.57 2.19 1.97 1.88 1.93 1.89 1.73 1.80 2.03 2.04 1.84 2.00 2.34 2.57 2.62 2.48
3.87 4.38 4.10 3.95 3.90 3.66 3.50 3.10 2.63 2.32 2.12 2.21 2.29 2.36 2.46 2.52 2.59 2.54 2.38 2.12 2.00 2.07 2.15 2.16 2.25 2.64 2.50 2.41 2.21 2.17 2.09 2.04 1.89 1.82 1.78 1.96 1.79 1.70 1.72 1.91 2.26 2.54 2.81
4.06 4.44 4.75 4.46 4.79 4.68 4.36 3.87 3.34 3.07 2.92 2.74 2.65 2.68 2.55 2.53 2.57 2.68 2.34 1.99 2.15 2.32 2.37 2.36 2.40 2.60 2.60 2.69 2.59 2.42 2.21 2.05 1.62 1.54 1.56 1.63 1.76 1.51 1.66 1.90 2.04 2.17 2.65
4.37 4.82 5.27 5.48 5.55 5.13 4.75 4.33 4.02 3.77 3.48 3.03 2.53 2.30 2.18 2.05 1.99 2.06 1.79 1.69 1.82 1.93 1.84 1.75 2.06 2.27 2.40 2.54 2.38 2.21 1.89 1.72 1.52 1.42 1.45 1.29 1.40 1.44 1.53 1.75 1.94 1.98 2.45
4.53 5.33 5.71 5.81 5.40 4.98 4.61 4.12 3.90 3.59 3.24 2.86 2.38 2.00 1.79 1.71 1.59 1.68 1.44 1.38 1.56 1.70 1.71 1.81 1.96 1.95 1.91 2.00 1.79 1.63 1.49 1.30 1.30 1.28 1.14 1.14 1.14 1.13 1.33 1.60 1.81 1.59 2.09
4.62 5.52 5.84 5.55 4.95 4.51 4.07 3.56 3.16 2.81 2.56 2.46 2.15 1.80 1.64 1.59 1.59 1.73 1.49 1.59 1.62 1.65 1.64 1.68 1.76 1.66 1.45 1.62 1.87 1.68 1.36 1.21 1.16 1.07 1.03 1.12 1.03 1.07 1.31 1.55 1.74 1.82 1.68
3.99 4.73 5.00 4.62 3.96 3.39 3.08 2.91 2.70 2.59 2.28 2.06 1.95 1.80 1.52 1.48 1.51 1.52 1.54 1.31 1.34 1.45 1.35 1.39 1.64 1.61 1.38 1.48 1.79 1.86 1.61 1.52 1.30 0.85 0.89 0.99 1.02 1.15 1.32 1.41 1.66 1.90 1.82
3.45 3.44 3.54 3.41 2.90 2.54 2.43 2.41 2.36 2.41 2.20 1.93 1.77 1.59 1.38 1.30 1.25 1.27 1.26 1.23 1.32 1.26 1.30 1.37 1.45 1.53 1.43 1.34 1.46 1.85 1.72 1.49 1.28 1.05 0.96 0.94 1.08 1.30 1.39 1.50 1.50 1.59 1.71
2.57 2.38 2.38 2.44 2.26 2.18 2.08 2.08 1.94 1.77 1.70 1.58 1.57 1.48 1.36 1.27 1.20 1.10 1.12 1.10 1.17 1.18 1.36 1.20 1.23 1.38 1.41 1.26 1.31 1.43 1.46 1.47 1.43 1.26 1.09 1.00 1.07 1.20 1.34 1.38 1.52 1.64 1.70
1.68 1.72 1.88 2.11 2.10 2.01 1.95 2.03 2.00 1.72 1.55 1.45 1.46 1.50 1.37 1.24 1.18 1.08 1.09 1.14 1.16 1.14 1.19 1.22 1.36 1.33 1.30 1.25 1.25 1.32 1.44 1.44 1.34 1.33 1.27 1.13 1.06 0.97 1.11 1.35 1.53 1.71 1.69
1.10 1.23 1.43 1.79 1.93 1.84 1.79 1.81 1.77 1.67 1.60 1.46 1.35 1.34 1.31 1.23 1.21 1.22 1.18 1.23 1.20 1.18 1.19 1.19 1.25 1.27 1.29 1.33 1.25 1.23 1.40 1.48 1.40 1.40 1.31 1.17 1.08 0.92 0.96 1.19 1.54 1.83 1.85

GEFSSE_prec_meanprecacc_216.txt.gz
Total_Precipitation_Accumulation
0.42 0.46 0.66 0.62 0.52 0.52 0.55 0.56 0.57 0.53 0.49 0.45 0.41 0.41 0.41 0.48 0.58 0.65 0.64 0.68 0.83 1.03 1.20 1.28 1.31 1.28 1.28 1.24 1.17 1.07 1.04 1.14 1.23 1.28 1.31 1.34 1.49 1.71 1.86 2.06 2.15 1.60 1.40
0.21 0.30 0.51 0.54 0.42 0.39 0.41 0.42 0.44 0.46 0.44 0.41 0.38 0.39 0.39 0.40 0.48 0.55 0.60 0.67 0.78 0.90 0.97 0.99 1.05 1.05 1.01 0.99 0.97 1.00 1.07 1.25 1.48 1.59 1.72 1.61 1.74 1.89 1.87 1.93 2.11 1.54 1.38
0.16 0.18 0.28 0.43 0.34 0.30 0.31 0.34 0.35 0.37 0.37 0.37 0.35 0.38 0.40 0.42 0.49 0.59 0.68 0.73 0.77 0.80 0.83 0.85 0.86 0.85 0.85 0.86 0.84 0.92 1.05 1.31 1.64 1.95 2.26 1.68 1.29 1.79 1.85 1.84 1.68 1.35 1.24
0.15 0.13 0.15 0.27 0.31 0.26 0.27 0.31 0.34 0.32 0.31 0.33 0.34 0.34 0.39 0.47 0.55 0.64 0.75 0.74 0.73 0.73 0.75 0.73 0.78 0.72 0.74 0.77 0.79 0.92 1.07 1.36 1.72 2.15 2.15 1.48 0.96 1.29 1.55 1.51 1.29 1.07 1.06
0.12 0.11 0.16 0.23 0.25 0.23 0.25 0.32 0.32 0.30 0.31 0.33 0.35 0.40 0.44 0.53 0.60 0.60 0.65 0.70 0.67 0.67 0.69 0.70 0.75 0.67 0.64 0.70 0.82 0.95 1.10 1.47 1.92 1.99 1.46 1.49 1.49 1.39 1.24 1.21 1.19 1.02 0.98
0.11 0.10 0.16 0.25 0.23 0.24 0.28 0.32 0.31 0.29 0.32 0.34 0.37 0.45 0.53 0.60 0.63 0.57 0.57 0.58 0.59 0.59 0.58 0.64 0.69 0.65 0.65 0.70 0.89 1.02 1.21 1.55 1.79 1.38 1.11 1.27 1.25 1.28 1.23 1.20 1.14 1.02 0.95
0.12 0.14 0.18 0.26 0.26 0.26 0.28 0.31 0.33 0.32 0.35 0.38 0.40 0.45 0.50 0.56 0.58 0.52 0.50 0.52 0.53 0.55 0.53 0.54 0.59 0.67 0.76 0.87 1.01 1.06 1.24 1.50 1.33 1.12 1.24 1.41 1.25 1.20 1.45 1.52 1.33 1.09 0.86
0.12 0.14 0.19 0.26 0.27 0.27 0.29 0.32 0.32 0.33 0.36 0.39 0.40 0.39 0.41 0.46 0.53 0.49 0.49 0.50 0.47 0.47 0.52 0.55 0.55 0.64 0.73 0.85 0.94 1.00 1.15 1.24 0.98 0.92 1.14 1.31 1.04 1.15 1.59 1.68 1.52 1.34 1.04
0.20 0.19 0.26 0.26 0.26 0.31 0.34 0.33 0.32 0.33 0.35 0.38 0.41 0.41 0.42 0.40 0.45 0.48 0.52 0.52 0.50 0.51 0.52 0.55 0.57 0.60 0.63 0.73 0.87 0.98 1.15 1.27 1.05 1.01 1.00 1.16 0.96 1.14 1.55 1.56 1.42 1.38 1.17
0.46 0.44 0.41 0.37 0.37 0.36 0.36 0.38 0.39 0.38 0.38 0.41 0.42 0.45 0.53 0.54 0.50 0.54 0.53 0.54 0.55 0.55 0.59 0.65 0.69 0.73 0.78 0.82 0.92 1.05 1.20 1.09 1.00 1.02 1.07 1.01 0.97 1.32 1.60 1.56 1.50 1.47 1.31
0.76 0.77 0.65 0.61 0.47 0.48 0.44 0.41 0.53 0.51 0.53 0.59 0.61 0.64 0.88 1.18 1.04 1.01 0.75 0.78 0.77 0.76 0.80 0.87 0.94 1.01 0.99 1.01 1.17 1.23 1.11 1.09 1.24 1.08 1.04 0.99 1.18 1.54 1.70 1.74 1.74 1.71 1.59
1.02 0.87 0.81 0.82 0.67 0.68 0.67 0.77 1.05 0.97 0.99 1.10 1.15 1.10 1.42 1.56 1.50 1.08 1.04 1.25 1.30 1.34 1.32 1.38 1.55 1.55 1.29 1.10 1.34 1.66 1.33 1.24 1.26 1.04 0.91 1.03 1.32 1.67 1.81 1.89 1.76 1.75 1.66
1.17 1.03 1.11 1.08 0.97 0.98 1.21 1.05 1.19 1.42 1.58 1.56 1.54 1.70 1.86 1.55 1.33 1.20 1.36 1.59 1.63 1.69 1.71 1.85 2.10 1.95 1.89 1.88 1.92 1.92 1.59 1.47 1.37 1.14 1.20 1.42 1.64 1.95 2.11 2.03 1.90 1.77 1.64
1.70 1.64 1.59 1.61 1.59 1.56 1.41 1.41 1.33 1.38 1.49 1.65 1.73 1.72 1.90 1.94 1.86 1.74 1.78 1.77 1.76 1.88 2.18 2.20 2.35 2.46 2.47 2.21 2.08 2.08 1.86 1.69 1.61 1.57 1.75 1.91 1.96 2.20 2.41 2.25 2.07 1.91 1.79
2.48 2.54 2.49 2.35 2.15 2.18 2.15 1.98 1.62 1.65 1.62 1.60 1.87 1.92 2.00 2.15 2.21 2.15 2.03 2.05 1.77 1.82 2.16 2.50 2.39 2.53 2.68 2.50 2.20 2.05 1.97 1.80 1.77 1.71 1.87 2.07 1.97 2.03 2.33 2.42 2.36 2.19 2.10
3.26 3.64 3.40 3.17 2.85 2.75 2.73 2.57 2.41 2.09 2.00 1.79 1.91 2.01 2.19 2.39 2.45 2.41 2.21 2.16 1.85 1.81 2.05 2.34 2.35 2.56 2.59 2.61 2.23 2.00 1.90 1.95 1.91 1.76 1.86 2.09 2.08 1.87 2.03 2.37 2.60 2.66 2.50
3.89 4.40 4.14 3.98 3.92 3.69 3.55 3.15 2.68 2.35 2.16 2.25 2.32 2.39 2.50 2.57 2.65 2.61 2.45 2.18 2.06 2.13 2.21 2.22 2.30 2.69 2.53 2.44 2.24 2.20 2.11 2.06 1.94 1.85 1.84 2.04 1.85 1.74 1.74 1.92 2.28 2.57 2.85
4.07 4.45 4.78 4.48 4.82 4.72 4.42 3.93 3.40 3.12 2.97 2.79 2.69 2.73 2.58 2.57 2.61 2.74 2.41 2.06 2.21 2.37 2.44 2.42 2.44 2.65 2.65 2.73 2.63 2.45 2.23 2.08 1.67 1.59 1.63 1.70 1.84 1.57 1.69 1.92 2.07 2.19 2.69
4.38 4.84 5.29 5.52 5.60 5.19 4.80 4.39 4.08 3.83 3.54 3.08 2.58 2.38 2.24 2.11 2.01 2.10 1.85 1.77 1.88 1.99 1.91 1.81 2.12 2.34 2.46 2.59 2.42 2.25 1.91 1.74 1.56 1.48 1.52 1.35 1.49 1.56 1.61 1.77 1.97 2.01 2.48
4.54 5.34 5.73 5.83 5.43 5.03 4.67 4.20 3.97 3.66 3.29 2.91 2.43 2.07 1.84 1.77 1.62 1.72 1.50 1.44 1.64 1.79 1.80 1.90 2.05 2.04 1.99 2.08 1.84 1.70 1.54 1.32 1.33 1.32 1.18 1.19 1.20 1.19 1.41 1.67 1.88 1.64 2.13
4.62 5.53 5.85 5.57 4.98 4.55 4.14 3.64 3.25 2.89 2.62 2.50 2.20 1.85 1.69 1.62 1.62 1.79 1.56 1.67 1.69 1.74 1.74 1.77 1.85 1.74 1.53 1.70 1.97 1.78 1.43 1.25 1.20 1.11 1.08 1.17 1.08 1.12 1.35 1.61 1.82 1.92 1.76
3.99 4.73 5.01 4.63 3.98 3.41 3.13 2.96 2.76 2.66 2.34 2.12 2.01 1.88 1.58 1.52 1.54 1.57 1.62 1.39 1.41 1.54 1.46 1.48 1.74 1.70 1.47 1.57 1.88 1.99 1.74 1.65 1.40 0.91 0.95 1.05 1.07 1.21 1.38 1.46 1.74 2.03 1.97
3.45 3.44 3.55 3.42 2.91 2.56 2.45 2.44 2.40 2.46 2.27 2.01 1.86 1.69 1.44 1.35 1.28 1.32 1.31 1.30 1.40 1.35 1.39 1.46 1.54 1.64 1.53 1.43 1.54 1.95 1.86 1.65 1.41 1.15 1.04 1.00 1.14 1.38 1.46 1.58 1.62 1.73 1.85
2.57 2.38 2.38 2.45 2.27 2.20 2.10 2.11 1.97 1.83 1.77 1.66 1.65 1.55 1.42 1.32 1.24 1.14 1.17 1.15 1.23 1.24 1.45 1.26 1.32 1.50 1.53 1.37 1.40 1.52 1.56 1.60 1.58 1.39 1.18 1.06 1.13 1.26 1.41 1.45 1.58 1.70 1.77
1.68 1.72 1.88 2.12 2.13 2.03 1.97 2.06 2.04 1.77 1.60 1.50 1.51 1.57 1.43 1.30 1.23 1.12 1.15 1.21 1.23 1.22 1.27 1.29 1.47 1.46 1.42 1.38 1.36 1.42 1.53 1.57 1.47 1.47 1.41 1.20 1.12 1.02 1.16 1.41 1.60 1.76 1.74
1.10 1.23 1.43 1.80 1.95 1.86 1.82 1.85 1.81 1.72 1.64 1.49 1.38 1.39 1.37 1.28 1.25 1.25 1.22 1.29 1.28 1.26 1.26 1.27 1.35 1.36 1.40 1.45 1.37 1.34 1.50 1.60 1.53 1.55 1.45 1.27 1.16 0.97 1.00 1.25 1.61 1.88 1.91

GEFSSE_prec_meanprecacc_222.txt.gz
Total_Precipitation_Accumulation
0.54 0.54 0.75 0.69 0.58 0.56 0.58 0.59 0.62 0.60 0.55 0.52 0.49 0.54 0.56 0.66 0.76 0.78 0.77 0.84 1.03 1.30 1.59 1.71 1.67 1.54 1.53 1.50 1.38 1.23 1.16 1.23 1.31 1.35 1.37 1.41 1.54 1.77 1.92 2.11 2.17 1.61 1.42
0.27 0.37 0.60 0.61 0.47 0.42 0.44 0.46 0.48 0.50 0.48 0.46 0.43 0.45 0.46 0.51 0.61 0.68 0.71 0.80 0.95 1.15 1.22 1.20 1.22 1.19 1.15 1.13 1.10 1.13 1.17 1.34 1.56 1.66 1.78 1.66 1.79 1.95 1.92 1.98 2.12 1.55 1.40
0.18 0.22 0.33 0.47 0.36 0.32 0.34 0.38 0.38 0.40 0.39 0.41 0.38 0.42 0.45 0.49 0.58 0.69 0.79 0.85 0.97 1.05 1.02 0.99 0.97 0.97 0.98 0.99 0.95 1.01 1.13 1.40 1.72 2.01 2.31 1.71 1.32 1.84 1.90 1.89 1.71 1.37 1.25
0.21 0.15 0.16 0.29 0.33 0.28 0.30 0.34 0.37 0.34 0.33 0.36 0.38 0.40 0.45 0.53 0.62 0.72 0.83 0.88 0.92 0.93 0.94 0.86 0.90 0.85 0.84 0.86 0.86 0.97 1.12 1.42 1.78 2.20 2.17 1.49 0.98 1.32 1.58 1.53 1.32 1.10 1.08
0.16 0.11 0.16 0.24 0.27 0.25 0.27 0.33 0.33 0.31 0.33 0.36 0.40 0.44 0.48 0.58 0.67 0.67 0.71 0.77 0.76 0.81 0.85 0.83 0.86 0.78 0.72 0.77 0.88 1.01 1.16 1.52 1.97 2.03 1.48 1.52 1.51 1.41 1.27 1.23 1.22 1.05 1.00
0.15 0.11 0.17 0.26 0.25 0.25 0.29 0.32 0.32 0.30 0.33 0.36 0.40 0.48 0.55 0.63 0.67 0.61 0.60 0.61 0.64 0.70 0.69 0.75 0.81 0.74 0.71 0.76 0.94 1.08 1.28 1.62 1.86 1.42 1.14 1.29 1.27 1.30 1.27 1.22 1.16 1.04 0.97
0.13 0.15 0.18 0.27 0.26 0.26 0.28 0.31 0.34 0.33 0.36 0.39 0.42 0.48 0.53 0.60 0.61 0.56 0.54 0.56 0.59 0.64 0.65 0.69 0.72 0.76 0.81 0.91 1.06 1.12 1.31 1.58 1.39 1.16 1.26 1.43 1.27 1.23 1.49 1.54 1.35 1.11 0.88
0.13 0.15 0.19 0.26 0.28 0.27 0.29 0.32 0.33 0.34 0.37 0.40 0.42 0.41 0.44 0.50 0.56 0.53 0.52 0.54 0.51 0.55 0.63 0.65 0.63 0.69 0.77 0.90 0.99 1.05 1.20 1.29 1.01 0.95 1.17 1.33 1.06 1.17 1.62 1.69 1.54 1.35 1.06
0.22 0.20 0.26 0.26 0.27 0.32 0.35 0.34 0.33 0.35 0.37 0.40 0.43 0.44 0.45 0.43 0.48 0.51 0.54 0.54 0.52 0.54 0.56 0.59 0.61 0.64 0.67 0.77 0.91 1.03 1.21 1.34 1.09 1.04 1.03 1.17 0.98 1.17 1.58 1.58 1.45 1.40 1.20
0.49 0.47 0.43 0.38 0.38 0.36 0.36 0.39 0.41 0.39 0.41 0.45 0.45 0.48 0.56 0.57 0.53 0.56 0.55 0.57 0.57 0.57 0.61 0.67 0.72 0.75 0.81 0.85 0.96 1.10 1.26 1.15 1.04 1.06 1.10 1.02 0.99 1.34 1.63 1.59 1.53 1.49 1.33
0.79 0.82 0.69 0.65 0.49 0.49 0.45 0.42 0.55 0.53 0.56 0.64 0.65 0.68 0.91 1.20 1.06 1.03 0.77 0.82 0.81 0.79 0.83 0.91 0.98 1.04 1.03 1.05 1.23 1.29 1.17 1.13 1.28 1.12 1.07 1.01 1.21 1.58 1.76 1.79 1.77 1.73 1.61
1.04 0.90 0.86 0.86 0.69 0.71 0.70 0.79 1.08 0.99 1.01 1.13 1.19 1.14 1.46 1.62 1.53 1.10 1.08 1.32 1.36 1.39 1.36 1.43 1.61 1.61 1.33 1.13 1.39 1.73 1.39 1.28 1.29 1.08 0.94 1.06 1.36 1.71 1.86 1.93 1.79 1.77 1.68
1.19 1.05 1.15 1.12 1.00 1.02 1.27 1.11 1.24 1.45 1.61 1.60 1.58 1.74 1.91 1.60 1.37 1.24 1.40 1.64 1.69 1.74 1.75 1.89 2.16 2.00 1.93 1.92 1.96 1.97 1.63 1.54 1.41 1.17 1.24 1.45 1.67 2.00 2.15 2.06 1.93 1.80 1.66
1.72 1.66 1.61 1.64 1.61 1.59 1.45 1.45 1.36 1.41 1.52 1.69 1.77 1.76 1.94 1.99 1.92 1.79 1.84 1.82 1.81 1.93 2.23 2.24 2.40 2.51 2.52 2.27 2.14 2.13 1.90 1.74 1.66 1.61 1.80 1.96 2.00 2.25 2.46 2.29 2.11 1.94 1.82
2.50 2.56 2.50 2.36 2.16 2.21 2.18 2.01 1.65 1.69 1.65 1.64 1.91 1.96 2.04 2.18 2.27 2.21 2.09 2.10 1.82 1.86 2.21 2.56 2.45 2.57 2.72 2.54 2.24 2.09 2.00 1.86 1.82 1.76 1.93 2.13 2.01 2.08 2.39 2.47 2.40 2.23 2.13
3.28 3.65 3.41 3.18 2.86 2.77 2.75 2.59 2.45 2.12 2.03 1.83 1.95 2.04 2.22 2.42 2.50 2.45 2.26 2.21 1.90 1.85 2.09 2.39 2.41 2.62 2.64 2.65 2.27 2.02 1.92 2.00 1.97 1.81 1.90 2.13 2.13 1.92 2.07 2.41 2.64 2.69 2.54
3.90 4.41 4.15 3.99 3.93 3.70 3.56 3.16 2.71 2.38 2.18 2.28 2.35 2.41 2.52 2.60 2.69 2.63 2.48 2.22 2.11 2.19 2.26 2.26 2.35 2.74 2.58 2.48 2.29 2.23 2.13 2.10 1.98 1.88 1.88 2.07 1.88 1.78 1.79 1.96 2.33 2.63 2.89
4.09 4.46 4.78 4.49 4.83 4.73 4.43 3.94 3.41 3.13 2.98 2.80 2.71 2.74 2.60 2.59 2.63 2.76 2.43 2.09 2.25 2.42 2.49 2.47 2.49 2.69 2.69 2.79 2.68 2.49 2.27 2.12 1.70 1.61 1.65 1.73 1.87 1.61 1.74 1.97 2.11 2.24 2.75
4.39 4.84 5.29 5.52 5.60 5.19 4.81 4.39 4.08 3.83 3.55 3.09 2.60 2.41 2.26 2.12 2.03 2.12 1.88 1.80 1.90 2.02 1.95 1.85 2.17 2.38 2.50 2.66 2.49 2.31 1.97 1.80 1.61 1.52 1.56 1.40 1.54 1.61 1.68 1.84 2.03 2.08 2.54
4.54 5.34 5.73 5.83 5.44 5.04 4.68 4.20 3.99 3.67 3.31 2.93 2.46 2.11 1.88 1.80 1.64 1.74 1.52 1.46 1.66 1.81 1.83 1.93 2.08 2.07 2.03 2.13 1.89 1.76 1.62 1.39 1.41 1.41 1.26 1.26 1.28 1.28 1.51 1.76 1.95 1.68 2.18
4.62 5.53 5.85 5.57 4.99 4.56 4.15 3.65 3.26 2.91 2.64 2.52 2.22 1.88 1.74 1.68 1.66 1.82 1.58 1.69 1.72 1.77 1.78 1.81 1.87 1.77 1.56 1.74 2.03 1.85 1.51 1.34 1.28 1.22 1.18 1.28 1.20 1.23 1.44 1.68 1.89 1.98 1.81
3.99 4.73 5.01 4.64 3.99 3.42 3.13 2.96 2.77 2.67 2.35 2.14 2.03 1.91 1.62 1.57 1.59 1.61 1.65 1.42 1.44 1.57 1.50 1.52 1.77 1.73 1.50 1.60 1.92 2.04 1.82 1.74 1.48 1.01 1.07 1.22 1.22 1.33 1.48 1.56 1.85 2.13 2.05
3.45 3.44 3.55 3.42 2.92 2.57 2.46 2.44 2.40 2.47 2.29 2.03 1.89 1.71 1.46 1.38 1.33 1.37 1.36 1.33 1.43 1.38 1.43 1.51 1.58 1.67 1.57 1.47 1.58 2.00 1.92 1.71 1.47 1.26 1.18 1.15 1.28 1.51 1.57 1.69 1.72 1.84 1.94
2.57 2.38 2.38 2.45 2.27 2.20 2.10 2.11 1.98 1.84 1.79 1.68 1.67 1.59 1.45 1.35 1.27 1.17 1.19 1.18 1.26 1.27 1.49 1.33 1.39 1.55 1.57 1.42 1.47 1.59 1.64 1.67 1.64 1.44 1.25 1.16 1.22 1.35 1.50 1.54 1.70 1.82 1.88
1.68 1.72 1.88 2.12 2.13 2.03 1.97 2.06 2.06 1.79 1.62 1.53 1.54 1.58 1.46 1.33 1.25 1.14 1.17 1.23 1.26 1.26 1.31 1.37 1.55 1.52 1.47 1.44 1.45 1.50 1.60 1.63 1.52 1.51 1.45 1.26 1.18 1.08 1.23 1.48 1.71 1.89 1.83
1.10 1.23 1.43 1.81 1.95 1.87 1.82 1.86 1.83 1.75 1.66 1.52 1.40 1.40 1.38 1.30 1.27 1.27 1.24 1.31 1.30 1.29 1.30 1.32 1.41 1.40 1.45 1.50 1.42 1.39 1.55 1.64 1.57 1.59 1.50 1.31 1.20 1.02 1.07 1.31 1.66 1.94 1.95

GEFSSE_prec_meanprecacc_228.txt.gz
Total_Precipitation_Accumulation
0.56 0.61 0.87 0.75 0.63 0.61 0.63 0.65 0.69 0.67 0.63 0.63 0.71 0.76 0.74 0.84 0.91 0.91 0.92 1.05 1.35 1.76 2.08 2.23 2.08 1.85 1.84 1.87 1.70 1.43 1.30 1.35 1.41 1.44 1.44 1.47 1.60 1.83 1.97 2.15 2.20 1.63 1.44
0.35 0.51 0.71 0.65 0.50 0.46 0.47 0.49 0.52 0.56 0.54 0.53 0.57 0.64 0.69 0.75 0.82 0.84 0.89 0.99 1.18 1.43 1.57 1.64 1.61 1.52 1.47 1.44 1.36 1.33 1.32 1.43 1.64 1.74 1.86 1.72 1.84 2.01 1.99 2.03 2.15 1.58 1.43
0.30 0.32 0.39 0.51 0.39 0.35 0.36 0.40 0.41 0.44 0.44 0.47 0.48 0.59 0.64 0.73 0.85 0.93 0.99 1.02 1.16 1.24 1.27 1.30 1.28 1.27 1.25 1.22 1.13 1.17 1.26 1.50 1.82 2.10 2.38 1.76 1.38 1.90 1.96 1.94 1.76 1.41 1.29
0.27 0.18 0.18 0.33 0.35 0.30 0.32 0.36 0.40 0.38 0.38 0.42 0.46 0.51 0.57 0.67 0.81 0.91 1.00 1.07 1.08 1.09 1.13 1.08 1.12 1.06 1.04 1.04 1.03 1.14 1.26 1.52 1.86 2.27 2.22 1.53 1.00 1.36 1.63 1.60 1.39 1.14 1.12
0.18 0.13 0.18 0.27 0.28 0.26 0.29 0.35 0.35 0.34 0.38 0.42 0.44 0.50 0.56 0.69 0.80 0.81 0.88 0.99 0.95 0.98 1.02 0.98 0.98 0.89 0.85 0.88 1.03 1.16 1.29 1.62 2.04 2.08 1.51 1.54 1.53 1.44 1.31 1.28 1.27 1.11 1.04
0.16 0.12 0.18 0.28 0.26 0.26 0.30 0.34 0.34 0.32 0.37 0.44 0.46 0.54 0.63 0.72 0.75 0.70 0.72 0.76 0.81 0.88 0.86 0.87 0.91 0.85 0.81 0.86 1.03 1.18 1.39 1.71 1.92 1.46 1.16 1.30 1.28 1.34 1.32 1.27 1.21 1.09 1.00
0.14 0.16 0.20 0.30 0.28 0.28 0.30 0.32 0.36 0.36 0.40 0.46 0.50 0.56 0.62 0.68 0.69 0.64 0.64 0.69 0.74 0.82 0.80 0.81 0.83 0.86 0.90 0.98 1.13 1.20 1.40 1.65 1.43 1.19 1.29 1.44 1.28 1.27 1.53 1.58 1.38 1.14 0.91
0.14 0.15 0.21 0.30 0.30 0.30 0.32 0.34 0.35 0.37 0.41 0.45 0.49 0.49 0.52 0.58 0.65 0.62 0.62 0.65 0.63 0.68 0.73 0.73 0.71 0.76 0.83 0.95 1.06 1.12 1.27 1.33 1.03 0.96 1.18 1.34 1.08 1.20 1.66 1.73 1.56 1.38 1.08
0.23 0.21 0.27 0.29 0.30 0.36 0.39 0.37 0.36 0.37 0.41 0.46 0.50 0.50 0.50 0.48 0.55 0.59 0.62 0.64 0.62 0.66 0.65 0.66 0.69 0.70 0.72 0.82 0.98 1.11 1.27 1.38 1.11 1.05 1.03 1.18 1.01 1.21 1.63 1.63 1.48 1.44 1.23
0.50 0.49 0.44 0.39 0.39 0.38 0.39 0.43 0.45 0.43 0.46 0.51 0.53 0.55 0.62 0.63 0.59 0.62 0.62 0.64 0.65 0.65 0.68 0.74 0.79 0.81 0.85 0.91 1.05 1.21 1.34 1.20 1.06 1.07 1.11 1.03 1.02 1.38 1.69 1.64 1.57 1.53 1.37
0.81 0.84 0.71 0.66 0.51 0.52 0.49 0.47 0.59 0.57 0.62 0.70 0.71 0.73 0.95 1.24 1.10 1.07 0.83 0.90 0.88 0.87 0.91 0.99 1.05 1.11 1.09 1.12 1.32 1.39 1.24 1.16 1.30 1.13 1.08 1.02 1.24 1.62 1.82 1.84 1.81 1.77 1.65
1.06 0.92 0.88 0.89 0.73 0.76 0.74 0.85 1.15 1.05 1.07 1.18 1.22 1.17 1.48 1.64 1.55 1.13 1.13 1.40 1.44 1.48 1.45 1.50 1.68 1.67 1.37 1.18 1.46 1.80 1.41 1.31 1.31 1.11 0.97 1.09 1.40 1.77 1.91 1.97 1.83 1.82 1.76
1.21 1.06 1.16 1.15 1.06 1.07 1.32 1.16 1.29 1.51 1.66 1.64 1.61 1.77 1.93 1.62 1.40 1.26 1.43 1.69 1.74 1.80 1.80 1.94 2.19 2.02 1.95 1.95 1.99 2.00 1.66 1.56 1.43 1.19 1.26 1.50 1.73 2.07 2.21 2.12 1.98 1.85 1.72
1.74 1.68 1.63 1.67 1.67 1.65 1.51 1.52 1.42 1.46 1.56 1.72 1.81 1.80 1.97 2.00 1.94 1.80 1.86 1.84 1.84 1.97 2.27 2.27 2.41 2.52 2.53 2.30 2.16 2.16 1.94 1.77 1.68 1.64 1.83 2.01 2.04 2.31 2.53 2.36 2.16 1.99 1.86
2.51 2.57 2.52 2.38 2.20 2.26 2.23 2.06 1.69 1.74 1.69 1.68 1.94 1.99 2.06 2.20 2.29 2.22 2.10 2.12 1.84 1.90 2.24 2.58 2.47 2.60 2.74 2.57 2.27 2.12 2.05 1.91 1.86 1.79 1.96 2.16 2.05 2.13 2.44 2.52 2.46 2.27 2.17
3.29 3.66 3.42 3.19 2.89 2.80 2.78 2.62 2.48 2.15 2.05 1.85 1.98 2.08 2.25 2.44 2.52 2.47 2.27 2.23 1.93 1.88 2.13 2.43 2.45 2.67 2.68 2.68 2.30 2.05 1.95 2.04 1.99 1.83 1.92 2.15 2.18 1.98 2.13 2.47 2.69 2.73 2.57
3.91 4.41 4.15 4.00 3.95 3.72 3.58 3.19 2.73 2.39 2.19 2.29 2.38 2.45 2.57 2.65 2.72 2.65 2.50 2.24 2.13 2.21 2.29 2.29 2.39 2.80 2.64 2.52 2.33 2.26 2.16 2.12 2.00 1.91 1.89 2.08 1.90 1.83 1.85 2.03 2.39 2.69 2.96
4.09 4.46 4.79 4.49 4.83 4.74 4.45 3.96 3.42 3.13 2.99 2.82 2.72 2.78 2.63 2.63 2.67 2.78 2.46 2.12 2.27 2.43 2.52 2.50 2.52 2.73 2.74 2.84 2.73 2.53 2.30 2.15 1.72 1.64 1.67 1.75 1.90 1.65 1.79 2.04 2.19 2.32 2.83
4.39 4.84 5.29 5.52 5.61 5.20 4.82 4.40 4.08 3.85 3.57 3.11 2.62 2.45 2.31 2.16 2.06 2.15 1.91 1.82 1.92 2.04 1.97 1.88 2.20 2.41 2.54 2.70 2.53 2.35 2.01 1.84 1.66 1.57 1.60 1.43 1.56 1.64 1.72 1.89 2.11 2.15 2.62
4.54 5.34 5.73 5.83 5.44 5.04 4.68 4.21 3.99 3.69 3.33 2.94 2.47 2.15 1.94 1.84 1.66 1.75 1.54 1.49 1.68 1.83 1.86 1.97 2.12 2.11 2.06 2.17 1.93 1.80 1.66 1.45 1.48 1.50 1.34 1.33 1.32 1.33 1.55 1.80 1.99 1.73 2.24
4.62 5.53 5.85 5.58 5.00 4.56 4.15 3.66 3.27 2.92 2.66 2.55 2.26 1.92 1.79 1.72 1.70 1.85 1.62 1.73 1.75 1.79 1.81 1.84 1.91 1.81 1.59 1.76 2.05 1.89 1.55 1.39 1.34 1.28 1.23 1.33 1.24 1.31 1.53 1.75 1.94 2.02 1.86
3.99 4.73 5.01 4.64 4.00 3.42 3.13 2.96 2.77 2.67 2.36 2.16 2.06 1.94 1.66 1.61 1.62 1.63 1.69 1.45 1.47 1.59 1.52 1.57 1.82 1.77 1.52 1.62 1.94 2.07 1.84 1.77 1.50 1.04 1.11 1.26 1.28 1.42 1.57 1.65 1.93 2.18 2.10
3.45 3.45 3.55 3.42 2.92 2.57 2.46 2.44 2.40 2.47 2.29 2.04 1.90 1.73 1.50 1.42 1.36 1.39 1.39 1.36 1.46 1.40 1.46 1.55 1.63 1.71 1.60 1.50 1.60 2.02 1.95 1.73 1.48 1.27 1.21 1.20 1.34 1.57 1.66 1.77 1.81 1.90 1.99
2.58 2.39 2.38 2.45 2.27 2.20 2.11 2.11 1.98 1.84 1.79 1.68 1.67 1.62 1.49 1.38 1.29 1.20 1.23 1.24 1.33 1.34 1.54 1.38 1.44 1.58 1.61 1.45 1.50 1.62 1.67 1.69 1.66 1.46 1.27 1.18 1.27 1.39 1.56 1.60 1.76 1.89 1.94
1.69 1.73 1.89 2.12 2.13 2.03 1.97 2.07 2.07 1.80 1.63 1.53 1.54 1.60 1.49 1.37 1.27 1.17 1.20 1.27 1.32 1.32 1.37 1.42 1.59 1.55 1.50 1.46 1.47 1.55 1.64 1.65 1.53 1.53 1.46 1.27 1.20 1.12 1.26 1.52 1.75 1.92 1.88
1.10 1.23 1.43 1.81 1.96 1.87 1.82 1.86 1.84 1.76 1.68 1.52 1.41 1.41 1.40 1.33 1.30 1.31 1.26 1.34 1.34 1.32 1.32 1.35 1.46 1.45 1.48 1.53 1.46 1.43 1.58 1.65 1.59 1.62 1.52 1.32 1.21 1.04 1.09 1.33 1.68 1.95 1.98

GEFSSE_prec_meanprecacc_234.txt.gz
Total_Precipitation_Accumulation
0.57 0.63 0.92 0.82 0.70 0.70 0.76 0.81 0.87 0.83 0.75 0.76 0.89 0.92 0.88 0.98 1.00 1.01 1.07 1.28 1.63 2.06 2.44 2.51 2.30 2.11 2.19 2.24 1.97 1.66 1.46 1.49 1.52 1.58 1.55 1.55 1.67 1.89 2.02 2.19 2.22 1.65 1.46
0.38 0.56 0.75 0.70 0.56 0.52 0.55 0.60 0.64 0.70 0.67 0.70 0.78 0.80 0.82 0.89 0.94 0.97 1.08 1.27 1.49 1.76 1.93 1.94 1.84 1.76 1.74 1.72 1.63 1.59 1.53 1.61 1.78 1.88 1.96 1.82 1.93 2.07 2.03 2.07 2.17 1.60 1.46
0.39 0.37 0.42 0.57 0.45 0.40 0.41 0.47 0.52 0.59 0.62 0.69 0.66 0.75 0.81 0.90 0.99 1.08 1.21 1.30 1.43 1.54 1.59 1.61 1.55 1.58 1.56 1.52 1.43 1.44 1.47 1.66 1.97 2.23 2.50 1.85 1.44 1.96 2.00 1.99 1.79 1.44 1.33
0.33 0.22 0.22 0.38 0.40 0.34 0.36 0.41 0.48 0.50 0.55 0.61 0.61 0.65 0.72 0.84 1.01 1.10 1.26 1.31 1.32 1.34 1.44 1.44 1.47 1.45 1.41 1.37 1.32 1.37 1.44 1.70 2.02 2.40 2.34 1.60 1.05 1.41 1.68 1.66 1.47 1.19 1.15
0.21 0.16 0.21 0.31 0.32 0.29 0.32 0.40 0.41 0.43 0.52 0.58 0.58 0.61 0.67 0.84 1.01 1.05 1.14 1.20 1.11 1.16 1.29 1.30 1.29 1.16 1.11 1.13 1.27 1.42 1.53 1.82 2.17 2.18 1.57 1.61 1.59 1.51 1.37 1.35 1.34 1.16 1.08
0.18 0.14 0.21 0.31 0.29 0.29 0.33 0.40 0.42 0.41 0.48 0.56 0.58 0.64 0.74 0.85 0.94 0.99 0.96 0.94 0.94 1.04 1.09 1.09 1.10 1.02 0.98 1.05 1.25 1.44 1.62 1.88 2.02 1.54 1.22 1.35 1.33 1.39 1.38 1.34 1.28 1.15 1.05
0.15 0.17 0.22 0.32 0.31 0.31 0.34 0.39 0.44 0.46 0.50 0.58 0.64 0.71 0.76 0.82 0.87 0.88 0.86 0.88 0.91 0.98 1.00 0.97 0.97 0.99 1.04 1.14 1.29 1.38 1.59 1.82 1.52 1.26 1.35 1.49 1.33 1.31 1.58 1.64 1.44 1.20 0.97
0.15 0.17 0.23 0.32 0.33 0.33 0.36 0.41 0.43 0.46 0.51 0.57 0.64 0.66 0.66 0.71 0.78 0.76 0.78 0.82 0.80 0.88 0.94 0.86 0.83 0.88 0.96 1.08 1.17 1.25 1.40 1.43 1.11 1.03 1.24 1.40 1.12 1.25 1.70 1.77 1.61 1.42 1.13
0.25 0.22 0.28 0.31 0.33 0.39 0.42 0.42 0.42 0.47 0.54 0.60 0.63 0.63 0.63 0.59 0.66 0.69 0.75 0.77 0.77 0.84 0.80 0.75 0.80 0.81 0.81 0.91 1.06 1.18 1.34 1.43 1.16 1.09 1.06 1.23 1.05 1.26 1.67 1.66 1.52 1.48 1.26
0.51 0.50 0.45 0.40 0.42 0.43 0.43 0.47 0.51 0.55 0.60 0.63 0.64 0.67 0.74 0.74 0.69 0.72 0.72 0.77 0.80 0.78 0.78 0.83 0.87 0.89 0.93 0.99 1.16 1.30 1.42 1.26 1.10 1.10 1.14 1.07 1.07 1.42 1.72 1.67 1.60 1.58 1.41
0.82 0.86 0.74 0.68 0.55 0.57 0.53 0.50 0.65 0.65 0.71 0.80 0.82 0.85 1.08 1.36 1.21 1.18 0.93 1.03 1.01 0.99 1.01 1.08 1.14 1.18 1.15 1.19 1.43 1.49 1.31 1.21 1.34 1.17 1.13 1.06 1.29 1.68 1.86 1.87 1.85 1.81 1.70
1.09 0.94 0.91 0.94 0.79 0.80 0.77 0.89 1.21 1.10 1.12 1.24 1.30 1.24 1.56 1.72 1.64 1.21 1.22 1.50 1.55 1.60 1.55 1.58 1.75 1.71 1.41 1.21 1.52 1.85 1.47 1.35 1.34 1.14 1.01 1.13 1.45 1.82 1.95 2.01 1.88 1.88 1.83
1.23 1.08 1.19 1.20 1.12 1.15 1.38 1.22 1.35 1.55 1.70 1.69 1.67 1.83 1.99 1.68 1.45 1.33 1.52 1.78 1.83 1.86 1.86 1.98 2.22 2.04 1.97 1.98 2.04 2.04 1.69 1.58 1.46 1.22 1.30 1.54 1.78 2.12 2.26 2.16 2.03 1.91 1.78
1.76 1.72 1.67 1.71 1.73 1.73 1.58 1.58 1.49 1.51 1.61 1.78 1.87 1.85 2.01 2.05 1.99 1.86 1.92 1.92 1.91 2.03 2.32 2.30 2.45 2.55 2.56 2.33 2.21 2.20 1.97 1.81 1.72 1.67 1.87 2.05 2.08 2.35 2.58 2.42 2.22 2.05 1.91
2.52 2.60 2.55 2.43 2.26 2.32 2.30 2.13 1.76 1.82 1.76 1.74 2.01 2.04 2.10 2.25 2.34 2.27 2.14 2.17 1.90 1.95 2.29 2.63 2.52 2.64 2.79 2.61 2.31 2.16 2.11 1.96 1.90 1.84 2.01 2.21 2.10 2.17 2.49 2.57 2.51 2.32 2.21
3.30 3.69 3.45 3.22 2.93 2.85 2.85 2.71 2.57 2.23 2.12 1.92 2.06 2.13 2.31 2.49 2.57 2.51 2.32 2.29 1.98 1.91 2.17 2.47 2.50 2.72 2.74 2.73 2.34 2.09 1.99 2.09 2.05 1.88 1.97 2.22 2.23 2.03 2.17 2.52 2.74 2.78 2.62
3.93 4.44 4.18 4.02 3.97 3.75 3.62 3.25 2.78 2.45 2.25 2.35 2.44 2.50 2.62 2.70 2.79 2.70 2.55 2.30 2.18 2.24 2.32 2.32 2.43 2.85 2.68 2.57 2.37 2.30 2.20 2.17 2.05 1.95 1.94 2.13 1.97 1.89 1.91 2.08 2.44 2.75 3.02
4.10 4.48 4.81 4.50 4.86 4.77 4.49 4.01 3.46 3.18 3.04 2.86 2.78 2.84 2.68 2.69 2.73 2.83 2.51 2.18 2.32 2.47 2.56 2.55 2.58 2.78 2.79 2.89 2.79 2.59 2.35 2.20 1.75 1.67 1.71 1.79 1.97 1.72 1.85 2.09 2.26 2.40 2.90
4.39 4.86 5.33 5.55 5.63 5.23 4.85 4.44 4.12 3.89 3.62 3.17 2.70 2.52 2.37 2.21 2.09 2.19 1.97 1.89 1.98 2.09 2.03 1.93 2.26 2.49 2.62 2.78 2.59 2.41 2.06 1.88 1.70 1.60 1.64 1.46 1.61 1.70 1.78 1.94 2.16 2.20 2.68
4.54 5.35 5.75 5.86 5.46 5.06 4.70 4.24 4.04 3.73 3.37 3.00 2.55 2.23 2.00 1.90 1.69 1.79 1.59 1.54 1.72 1.88 1.93 2.04 2.21 2.19 2.15 2.25 1.98 1.84 1.70 1.49 1.53 1.55 1.38 1.37 1.36 1.37 1.59 1.85 2.05 1.78 2.29
4.62 5.54 5.87 5.61 5.02 4.59 4.18 3.68 3.30 2.96 2.70 2.59 2.30 1.98 1.85 1.78 1.74 1.91 1.66 1.77 1.80 1.84 1.86 1.90 1.97 1.87 1.65 1.82 2.11 1.95 1.59 1.42 1.40 1.33 1.29 1.39 1.28 1.34 1.56 1.78 1.98 2.08 1.92
3.99 4.73 5.02 4.66 4.03 3.45 3.16 3.00 2.80 2.69 2.38 2.19 2.09 1.99 1.70 1.67 1.67 1.68 1.75 1.51 1.52 1.65 1.59 1.64 1.90 1.83 1.57 1.68 2.02 2.15 1.90 1.82 1.54 1.07 1.15 1.29 1.32 1.45 1.60 1.67 1.96 2.22 2.15
3.46 3.45 3.55 3.44 2.94 2.59 2.48 2.46 2.41 2.49 2.31 2.06 1.94 1.78 1.54 1.46 1.40 1.44 1.46 1.45 1.55 1.49 1.54 1.64 1.72 1.79 1.67 1.55 1.66 2.10 2.02 1.81 1.55 1.32 1.23 1.23 1.36 1.59 1.69 1.80 1.83 1.93 2.03
2.58 2.39 2.38 2.46 2.28 2.21 2.12 2.13 2.00 1.86 1.81 1.71 1.70 1.65 1.52 1.41 1.32 1.23 1.28 1.30 1.42 1.42 1.61 1.44 1.49 1.65 1.68 1.50 1.55 1.68 1.74 1.76 1.72 1.51 1.31 1.21 1.29 1.41 1.59 1.64 1.80 1.94 1.98
1.69 1.73 1.89 2.12 2.13 2.04 1.98 2.09 2.09 1.82 1.65 1.56 1.57 1.65 1.52 1.40 1.31 1.20 1.24 1.33 1.39 1.41 1.46 1.48 1.65 1.62 1.57 1.53 1.54 1.62 1.69 1.69 1.58 1.58 1.52 1.31 1.23 1.14 1.29 1.54 1.77 1.94 1.89
1.10 1.24 1.43 1.81 1.96 1.87 1.83 1.88 1.86 1.78 1.70 1.56 1.45 1.45 1.45 1.38 1.35 1.35 1.30 1.39 1.38 1.38 1.38 1.41 1.53 1.54 1.56 1.62 1.53 1.49 1.63 1.70 1.65 1.67 1.58 1.37 1.25 1.07 1.11 1.34 1.69 1.96 1.99

GEFSSE_prec_meanprecacc_240.txt.gz
Total_Precipitation_Accumulation
0.61 0.66 0.97 0.92 0.86 0.85 0.86 0.92 0.98 0.96 0.89 0.90 1.02 1.04 1.03 1.18 1.21 1.21 1.26 1.46 1.86 2.34 2.75 2.83 2.63 2.45 2.57 2.55 2.19 1.86 1.68 1.73 1.68 1.67 1.61 1.61 1.73 1.95 2.07 2.24 2.30 1.69 1.50
0.40 0.58 0.78 0.75 0.64 0.63 0.65 0.70 0.75 0.81 0.83 0.86 0.91 0.92 0.96 1.06 1.13 1.16 1.25 1.43 1.67 2.00 2.19 2.15 2.07 2.05 2.08 2.00 1.84 1.78 1.76 1.82 1.92 1.97 2.04 1.90 2.01 2.14 2.09 2.14 2.27 1.65 1.50
0.40 0.38 0.44 0.60 0.49 0.45 0.47 0.53 0.61 0.71 0.78 0.87 0.80 0.87 0.95 1.04 1.18 1.33 1.42 1.48 1.61 1.77 1.88 1.84 1.78 1.85 1.83 1.81 1.67 1.68 1.68 1.85 2.13 2.35 2.63 1.96 1.52 2.02 2.05 2.04 1.84 1.48 1.37
0.34 0.23 0.24 0.40 0.43 0.37 0.42 0.48 0.56 0.63 0.71 0.75 0.74 0.75 0.84 1.00 1.23 1.45 1.56 1.54 1.52 1.60 1.77 1.74 1.78 1.80 1.82 1.74 1.65 1.63 1.65 1.90 2.18 2.56 2.49 1.71 1.13 1.46 1.71 1.69 1.51 1.24 1.20
0.23 0.18 0.22 0.32 0.34 0.32 0.36 0.47 0.58 0.66 0.71 0.72 0.69 0.72 0.79 1.00 1.28 1.43 1.50 1.50 1.38 1.44 1.57 1.66 1.69 1.54 1.62 1.63 1.66 1.70 1.79 2.08 2.35 2.33 1.70 1.72 1.68 1.55 1.41 1.39 1.39 1.21 1.12
0.19 0.15 0.22 0.33 0.31 0.32 0.36 0.46 0.55 0.60 0.67 0.71 0.69 0.74 0.87 1.03 1.22 1.36 1.31 1.25 1.23 1.30 1.31 1.34 1.41 1.33 1.37 1.47 1.60 1.73 1.90 2.11 2.20 1.67 1.33 1.46 1.41 1.44 1.42 1.39 1.32 1.20 1.10
0.17 0.19 0.22 0.33 0.33 0.35 0.38 0.44 0.53 0.58 0.65 0.72 0.75 0.82 0.90 1.01 1.17 1.26 1.21 1.21 1.19 1.23 1.22 1.14 1.16 1.20 1.29 1.40 1.51 1.61 1.83 2.04 1.69 1.39 1.45 1.59 1.38 1.35 1.62 1.68 1.47 1.23 1.01
0.17 0.18 0.24 0.33 0.34 0.36 0.41 0.47 0.49 0.55 0.62 0.69 0.75 0.77 0.79 0.90 1.07 1.08 1.07 1.09 1.04 1.12 1.16 1.03 0.98 1.03 1.12 1.23 1.33 1.43 1.63 1.70 1.31 1.15 1.31 1.45 1.17 1.29 1.74 1.80 1.64 1.47 1.19
0.26 0.26 0.30 0.33 0.35 0.41 0.47 0.53 0.52 0.57 0.64 0.69 0.73 0.73 0.73 0.74 0.84 0.88 0.94 0.98 1.01 1.07 0.98 0.89 0.93 0.94 0.92 1.01 1.15 1.29 1.49 1.58 1.29 1.18 1.11 1.26 1.09 1.31 1.70 1.70 1.56 1.53 1.31
0.52 0.53 0.48 0.43 0.45 0.45 0.46 0.57 0.69 0.70 0.71 0.71 0.74 0.76 0.81 0.83 0.81 0.85 0.84 0.94 0.98 0.93 0.91 0.94 0.97 0.99 1.01 1.05 1.21 1.37 1.50 1.32 1.16 1.15 1.19 1.10 1.11 1.46 1.76 1.70 1.63 1.63 1.47
0.83 0.87 0.75 0.70 0.60 0.60 0.56 0.56 0.75 0.76 0.81 0.90 0.91 0.95 1.18 1.46 1.29 1.29 1.06 1.19 1.17 1.11 1.11 1.16 1.21 1.24 1.20 1.25 1.48 1.54 1.36 1.26 1.39 1.23 1.17 1.10 1.33 1.71 1.89 1.91 1.89 1.86 1.77
1.11 0.96 0.94 0.96 0.81 0.83 0.79 0.91 1.27 1.17 1.20 1.34 1.38 1.33 1.66 1.84 1.78 1.36 1.40 1.67 1.70 1.70 1.61 1.64 1.80 1.75 1.45 1.26 1.55 1.88 1.51 1.40 1.40 1.21 1.05 1.17 1.49 1.87 2.00 2.07 1.93 1.93 1.89
1.27 1.13 1.23 1.23 1.14 1.17 1.41 1.25 1.39 1.62 1.77 1.76 1.74 1.91 2.09 1.81 1.63 1.52 1.69 1.95 1.97 1.97 1.92 2.03 2.28 2.10 2.01 2.01 2.07 2.08 1.73 1.61 1.50 1.26 1.33 1.57 1.81 2.15 2.30 2.20 2.06 1.96 1.84
1.82 1.80 1.74 1.76 1.77 1.77 1.62 1.62 1.53 1.55 1.66 1.84 1.94 1.92 2.10 2.19 2.16 2.00 2.06 2.04 2.02 2.14 2.42 2.37 2.51 2.61 2.60 2.36 2.23 2.24 2.01 1.83 1.74 1.69 1.89 2.07 2.10 2.38 2.62 2.45 2.25 2.08 1.95
2.59 2.69 2.64 2.49 2.30 2.38 2.38 2.22 1.82 1.88 1.82 1.79 2.08 2.11 2.17 2.34 2.46 2.38 2.25 2.28 1.98 2.02 2.36 2.70 2.57 2.71 2.85 2.65 2.33 2.18 2.14 1.99 1.93 1.86 2.04 2.24 2.12 2.20 2.52 2.59 2.53 2.33 2.24
3.36 3.78 3.54 3.30 2.99 2.91 2.91 2.80 2.66 2.29 2.18 1.97 2.12 2.18 2.36 2.57 2.67 2.61 2.42 2.37 2.05 1.96 2.21 2.52 2.54 2.78 2.79 2.78 2.38 2.11 2.02 2.13 2.09 1.93 2.02 2.28 2.29 2.07 2.21 2.54 2.76 2.80 2.64
3.97 4.51 4.25 4.10 4.04 3.82 3.70 3.32 2.86 2.52 2.29 2.40 2.51 2.57 2.69 2.77 2.87 2.80 2.64 2.37 2.22 2.27 2.35 2.37 2.48 2.91 2.73 2.61 2.41 2.33 2.24 2.21 2.08 2.00 2.00 2.20 2.04 1.95 1.95 2.11 2.46 2.77 3.05
4.13 4.53 4.86 4.56 4.92 4.84 4.57 4.08 3.52 3.23 3.10 2.92 2.83 2.90 2.75 2.77 2.78 2.92 2.59 2.23 2.36 2.50 2.59 2.60 2.62 2.83 2.85 2.94 2.83 2.65 2.41 2.26 1.81 1.73 1.77 1.87 2.06 1.78 1.91 2.13 2.28 2.42 2.94
4.41 4.89 5.37 5.60 5.69 5.29 4.92 4.51 4.18 3.95 3.67 3.22 2.75 2.57 2.42 2.27 2.14 2.24 2.03 1.93 2.00 2.13 2.09 1.97 2.31 2.55 2.70 2.86 2.64 2.47 2.12 1.93 1.76 1.66 1.70 1.53 1.71 1.80 1.86 1.98 2.20 2.24 2.73
4.55 5.36 5.78 5.89 5.51 5.11 4.76 4.30 4.10 3.79 3.42 3.04 2.60 2.28 2.06 1.94 1.73 1.83 1.64 1.58 1.76 1.94 1.99 2.11 2.28 2.27 2.23 2.32 2.02 1.91 1.76 1.54 1.59 1.61 1.47 1.44 1.44 1.47 1.70 1.92 2.12 1.84 2.34
4.62 5.55 5.89 5.64 5.06 4.63 4.23 3.75 3.36 3.02 2.76 2.64 2.35 2.03 1.92 1.83 1.78 1.96 1.70 1.84 1.85 1.91 1.93 1.96 2.06 1.98 1.74 1.89 2.20 2.03 1.65 1.48 1.45 1.39 1.37 1.46 1.34 1.43 1.67 1.89 2.08 2.20 2.02
4.00 4.74 5.03 4.68 4.06 3.49 3.22 3.05 2.85 2.75 2.43 2.24 2.15 2.05 1.76 1.73 1.72 1.73 1.81 1.56 1.59 1.72 1.67 1.71 2.00 1.93 1.67 1.77 2.13 2.25 2.00 1.93 1.64 1.15 1.24 1.38 1.37 1.50 1.66 1.75 2.05 2.31 2.26
3.46 3.45 3.56 3.46 2.97 2.62 2.53 2.50 2.46 2.54 2.35 2.11 1.99 1.83 1.59 1.50 1.42 1.47 1.49 1.50 1.60 1.53 1.61 1.71 1.80 1.89 1.78 1.65 1.74 2.21 2.15 1.95 1.67 1.41 1.29 1.29 1.40 1.63 1.73 1.84 1.88 2.00 2.10
2.58 2.39 2.39 2.47 2.30 2.24 2.15 2.17 2.05 1.91 1.85 1.75 1.74 1.68 1.56 1.44 1.36 1.27 1.31 1.34 1.46 1.47 1.68 1.50 1.58 1.76 1.80 1.61 1.64 1.78 1.83 1.85 1.84 1.62 1.38 1.26 1.33 1.44 1.62 1.66 1.84 2.00 2.04
1.69 1.73 1.89 2.13 2.15 2.05 2.01 2.12 2.13 1.86 1.69 1.59 1.61 1.68 1.57 1.45 1.34 1.22 1.26 1.36 1.43 1.47 1.51 1.53 1.74 1.71 1.65 1.63 1.64 1.71 1.77 1.77 1.67 1.68 1.61 1.37 1.28 1.18 1.32 1.56 1.80 1.99 1.94
1.10 1.24 1.44 1.82 1.99 1.90 1.85 1.90 1.89 1.82 1.74 1.61 1.49 1.50 1.49 1.42 1.38 1.37 1.31 1.41 1.41 1.43 1.43 1.45 1.59 1.61 1.64 1.70 1.62 1.57 1.71 1.79 1.72 1.76 1.68 1.46 1.33 1.14 1.15 1.36 1.71 1.99 2.03

GEFSSE_prec_meanprecacc_246.txt.gz
Total_Precipitation_Accumulation
0.67 0.71 1.04 0.97 0.93 0.91 0.92 1.00 1.08 1.08 1.01 1.02 1.13 1.17 1.20 1.40 1.41 1.38 1.42 1.64 2.12 2.63 3.02 3.08 2.85 2.63 2.73 2.71 2.35 2.00 1.81 1.85 1.82 1.77 1.69 1.68 1.79 1.99 2.11 2.27 2.33 1.71 1.53
0.44 0.62 0.83 0.79 0.69 0.69 0.71 0.76 0.82 0.92 0.93 0.95 1.00 1.03 1.11 1.29 1.35 1.35 1.42 1.61 1.92 2.31 2.51 2.41 2.29 2.21 2.21 2.13 1.98 1.92 1.88 1.95 2.07 2.07 2.13 1.96 2.06 2.20 2.14 2.18 2.31 1.67 1.52
0.42 0.40 0.47 0.63 0.52 0.50 0.52 0.58 0.67 0.80 0.87 0.95 0.88 0.96 1.10 1.29 1.42 1.54 1.61 1.66 1.83 2.07 2.19 2.08 1.97 1.99 1.96 1.94 1.81 1.84 1.83 1.99 2.28 2.47 2.72 2.02 1.58 2.08 2.08 2.07 1.89 1.51 1.39
0.35 0.24 0.26 0.44 0.47 0.43 0.48 0.54 0.63 0.70 0.77 0.83 0.83 0.85 0.99 1.22 1.46 1.66 1.75 1.73 1.74 1.85 2.05 2.00 2.06 2.05 1.99 1.86 1.78 1.82 1.86 2.07 2.34 2.70 2.58 1.77 1.18 1.51 1.74 1.73 1.56 1.26 1.21
0.24 0.18 0.25 0.36 0.38 0.36 0.40 0.52 0.64 0.73 0.77 0.79 0.78 0.84 0.94 1.20 1.49 1.63 1.67 1.69 1.63 1.68 1.84 1.94 1.94 1.76 1.77 1.75 1.85 1.94 2.01 2.25 2.51 2.46 1.80 1.80 1.73 1.61 1.46 1.44 1.43 1.23 1.14
0.21 0.16 0.23 0.34 0.33 0.33 0.40 0.51 0.62 0.67 0.75 0.81 0.81 0.86 1.01 1.23 1.44 1.56 1.48 1.45 1.51 1.50 1.52 1.64 1.66 1.53 1.62 1.78 1.91 1.99 2.11 2.30 2.35 1.76 1.41 1.52 1.46 1.49 1.48 1.44 1.35 1.23 1.13
0.18 0.19 0.23 0.34 0.35 0.37 0.41 0.48 0.62 0.69 0.75 0.83 0.87 0.94 1.04 1.25 1.46 1.52 1.43 1.52 1.48 1.41 1.39 1.40 1.50 1.62 1.80 1.87 1.88 1.86 2.03 2.20 1.78 1.47 1.53 1.65 1.42 1.40 1.69 1.72 1.50 1.25 1.03
0.18 0.19 0.25 0.34 0.36 0.39 0.45 0.52 0.60 0.68 0.72 0.79 0.86 0.89 0.95 1.15 1.35 1.35 1.38 1.44 1.30 1.30 1.32 1.21 1.26 1.43 1.57 1.64 1.65 1.67 1.82 1.87 1.42 1.25 1.38 1.49 1.21 1.34 1.79 1.84 1.66 1.48 1.20
0.29 0.32 0.34 0.35 0.36 0.44 0.51 0.59 0.62 0.67 0.74 0.78 0.82 0.86 0.96 0.98 1.11 1.19 1.23 1.25 1.21 1.23 1.12 1.03 1.13 1.19 1.22 1.29 1.39 1.48 1.68 1.76 1.43 1.28 1.15 1.28 1.13 1.36 1.76 1.72 1.57 1.55 1.34
0.54 0.56 0.51 0.45 0.46 0.47 0.51 0.69 0.80 0.80 0.78 0.78 0.83 0.91 1.03 1.05 1.04 1.05 1.00 1.08 1.11 1.06 1.03 1.06 1.10 1.12 1.17 1.22 1.38 1.52 1.64 1.45 1.25 1.21 1.22 1.13 1.15 1.52 1.80 1.73 1.65 1.65 1.50
0.84 0.89 0.77 0.72 0.62 0.64 0.66 0.72 0.86 0.86 0.87 0.96 0.99 1.05 1.29 1.57 1.39 1.38 1.16 1.29 1.29 1.23 1.22 1.27 1.31 1.34 1.32 1.36 1.60 1.64 1.45 1.35 1.48 1.28 1.20 1.13 1.38 1.76 1.93 1.95 1.92 1.89 1.81
1.12 0.96 0.95 0.98 0.83 0.86 0.87 1.01 1.35 1.25 1.24 1.38 1.41 1.37 1.70 1.89 1.84 1.43 1.50 1.78 1.82 1.82 1.73 1.75 1.89 1.85 1.53 1.32 1.62 1.96 1.58 1.46 1.45 1.25 1.09 1.22 1.54 1.90 2.03 2.11 1.96 1.96 1.93
1.27 1.14 1.25 1.24 1.16 1.20 1.46 1.30 1.45 1.69 1.81 1.79 1.77 1.95 2.14 1.86 1.70 1.61 1.78 2.06 2.11 2.09 2.01 2.12 2.35 2.15 2.06 2.05 2.10 2.13 1.80 1.67 1.53 1.29 1.36 1.61 1.86 2.20 2.34 2.24 2.10 2.00 1.88
1.83 1.82 1.76 1.77 1.78 1.79 1.66 1.65 1.56 1.58 1.70 1.87 1.97 1.98 2.18 2.28 2.26 2.10 2.17 2.15 2.14 2.24 2.49 2.41 2.54 2.65 2.65 2.41 2.28 2.30 2.08 1.89 1.78 1.72 1.92 2.11 2.14 2.42 2.65 2.48 2.28 2.11 1.99
2.62 2.73 2.66 2.50 2.32 2.40 2.40 2.25 1.85 1.92 1.84 1.82 2.12 2.18 2.25 2.43 2.54 2.47 2.36 2.38 2.06 2.10 2.42 2.73 2.60 2.73 2.88 2.69 2.38 2.24 2.21 2.04 1.96 1.88 2.07 2.28 2.16 2.23 2.54 2.61 2.55 2.35 2.26
3.41 3.84 3.58 3.32 3.00 2.92 2.93 2.82 2.68 2.32 2.20 1.99 2.16 2.24 2.43 2.64 2.75 2.70 2.50 2.45 2.11 2.02 2.24 2.53 2.56 2.79 2.81 2.80 2.40 2.14 2.05 2.16 2.12 1.96 2.05 2.32 2.33 2.10 2.23 2.56 2.80 2.82 2.66
4.03 4.57 4.30 4.13 4.07 3.83 3.72 3.34 2.87 2.54 2.31 2.43 2.54 2.61 2.74 2.83 2.93 2.86 2.71 2.44 2.28 2.32 2.38 2.39 2.51 2.94 2.77 2.64 2.44 2.36 2.26 2.26 2.14 2.04 2.03 2.22 2.05 1.98 1.99 2.14 2.49 2.80 3.08
4.19 4.59 4.92 4.61 4.96 4.87 4.60 4.11 3.54 3.25 3.12 2.95 2.87 2.94 2.79 2.82 2.83 2.96 2.64 2.29 2.41 2.54 2.63 2.63 2.66 2.87 2.89 2.98 2.87 2.69 2.46 2.33 1.86 1.77 1.80 1.89 2.08 1.81 1.95 2.18 2.33 2.47 3.00
4.46 4.96 5.45 5.66 5.74 5.34 4.95 4.53 4.20 3.97 3.70 3.24 2.78 2.61 2.49 2.33 2.18 2.28 2.09 1.98 2.05 2.17 2.14 2.02 2.36 2.60 2.75 2.91 2.69 2.54 2.19 2.03 1.83 1.72 1.74 1.56 1.73 1.83 1.90 2.03 2.25 2.30 2.79
4.58 5.42 5.84 5.96 5.58 5.17 4.80 4.33 4.12 3.81 3.45 3.07 2.62 2.31 2.11 2.03 1.79 1.86 1.67 1.61 1.81 1.99 2.04 2.18 2.36 2.35 2.29 2.39 2.09 1.97 1.82 1.61 1.66 1.68 1.52 1.50 1.48 1.53 1.75 1.96 2.17 1.88 2.39
4.65 5.59 5.94 5.69 5.12 4.68 4.26 3.77 3.38 3.05 2.79 2.67 2.37 2.05 1.96 1.88 1.82 1.99 1.72 1.86 1.88 1.94 1.97 2.00 2.11 2.05 1.81 1.97 2.29 2.11 1.72 1.55 1.54 1.47 1.45 1.54 1.40 1.48 1.73 1.96 2.15 2.23 2.04
4.01 4.76 5.06 4.72 4.09 3.51 3.23 3.07 2.88 2.77 2.45 2.27 2.17 2.06 1.79 1.77 1.75 1.75 1.83 1.58 1.60 1.74 1.69 1.75 2.05 2.00 1.73 1.84 2.20 2.30 2.05 2.00 1.72 1.24 1.34 1.49 1.47 1.57 1.72 1.81 2.12 2.36 2.28
3.46 3.47 3.58 3.48 2.99 2.64 2.54 2.52 2.48 2.55 2.37 2.14 2.01 1.86 1.61 1.53 1.45 1.50 1.53 1.53 1.63 1.55 1.63 1.74 1.84 1.94 1.83 1.70 1.80 2.25 2.19 1.99 1.74 1.50 1.35 1.35 1.47 1.70 1.78 1.90 1.95 2.05 2.14
2.58 2.39 2.40 2.48 2.32 2.26 2.16 2.18 2.07 1.92 1.86 1.76 1.76 1.70 1.58 1.47 1.39 1.30 1.35 1.36 1.48 1.48 1.71 1.53 1.61 1.81 1.84 1.64 1.68 1.82 1.87 1.88 1.89 1.68 1.45 1.32 1.36 1.47 1.66 1.71 1.89 2.04 2.08
1.69 1.73 1.90 2.14 2.16 2.07 2.02 2.14 2.15 1.88 1.71 1.61 1.62 1.70 1.59 1.48 1.38 1.26 1.30 1.38 1.44 1.49 1.53 1.56 1.77 1.74 1.67 1.64 1.66 1.74 1.81 1.81 1.71 1.72 1.65 1.43 1.33 1.21 1.35 1.59 1.83 2.02 1.97
1.12 1.25 1.45 1.83 2.01 1.91 1.87 1.92 1.90 1.84 1.76 1.63 1.52 1.53 1.52 1.47 1.45 1.44 1.35 1.43 1.43 1.44 1.45 1.47 1.61 1.64 1.66 1.72 1.64 1.60 1.75 1.82 1.75 1.79 1.70 1.49 1.36 1.16 1.18 1.38 1.73 2.02 2.07

GEFSSE_prec_meanprecacc_252.txt.gz
Total_Precipitation_Accumulation
0.70 0.76 1.14 1.07 1.02 0.98 1.03 1.14 1.25 1.30 1.20 1.17 1.24 1.27 1.32 1.55 1.57 1.58 1.58 1.77 2.24 2.77 3.16 3.24 3.02 2.82 2.94 2.97 2.55 2.13 1.92 1.96 1.94 1.87 1.78 1.73 1.81 2.02 2.13 2.30 2.36 1.74 1.55
0.49 0.67 0.93 0.87 0.76 0.76 0.81 0.91 0.99 1.09 1.08 1.08 1.10 1.14 1.25 1.44 1.50 1.54 1.59 1.76 2.07 2.48 2.70 2.62 2.48 2.43 2.42 2.29 2.10 2.01 1.99 2.07 2.20 2.17 2.23 2.05 2.12 2.23 2.17 2.20 2.33 1.69 1.55
0.49 0.46 0.56 0.71 0.60 0.59 0.62 0.70 0.82 0.96 1.02 1.06 0.97 1.07 1.25 1.44 1.55 1.72 1.80 1.85 2.04 2.31 2.45 2.35 2.21 2.17 2.08 2.03 1.90 1.92 1.94 2.14 2.43 2.58 2.82 2.08 1.63 2.12 2.12 2.10 1.91 1.53 1.42
0.38 0.26 0.31 0.50 0.55 0.53 0.58 0.65 0.75 0.85 0.92 0.95 0.93 0.98 1.15 1.40 1.60 1.82 1.93 1.90 1.93 2.08 2.30 2.27 2.27 2.18 2.07 1.93 1.87 1.92 1.99 2.24 2.51 2.81 2.65 1.83 1.23 1.56 1.78 1.76 1.58 1.29 1.24
0.26 0.21 0.30 0.42 0.44 0.44 0.48 0.61 0.76 0.86 0.91 0.92 0.90 0.99 1.09 1.37 1.68 1.81 1.83 1.84 1.81 1.87 2.04 2.20 2.13 1.88 1.86 1.82 1.93 2.05 2.19 2.45 2.68 2.55 1.86 1.84 1.78 1.67 1.52 1.48 1.46 1.27 1.18
0.24 0.19 0.27 0.39 0.38 0.39 0.46 0.59 0.72 0.79 0.88 0.94 0.96 1.02 1.14 1.39 1.65 1.78 1.64 1.60 1.68 1.68 1.73 1.88 1.82 1.63 1.70 1.85 2.01 2.14 2.34 2.55 2.50 1.84 1.47 1.56 1.50 1.56 1.55 1.49 1.39 1.27 1.17
0.19 0.22 0.26 0.38 0.40 0.43 0.47 0.56 0.71 0.79 0.89 1.01 1.06 1.10 1.20 1.43 1.66 1.72 1.59 1.71 1.68 1.61 1.63 1.65 1.66 1.71 1.96 2.04 2.04 2.10 2.33 2.46 1.90 1.55 1.58 1.69 1.47 1.47 1.75 1.77 1.53 1.28 1.06
0.19 0.21 0.27 0.38 0.41 0.46 0.54 0.64 0.74 0.86 0.90 0.97 1.02 1.04 1.13 1.37 1.55 1.52 1.56 1.67 1.52 1.53 1.59 1.50 1.45 1.54 1.79 1.98 1.95 2.01 2.16 2.07 1.52 1.33 1.44 1.55 1.28 1.42 1.86 1.89 1.70 1.52 1.23
0.30 0.33 0.36 0.37 0.39 0.51 0.62 0.76 0.84 0.89 0.92 0.91 0.94 1.00 1.12 1.19 1.34 1.40 1.46 1.50 1.46 1.50 1.42 1.32 1.36 1.37 1.47 1.73 1.81 1.87 1.97 1.93 1.54 1.38 1.22 1.35 1.21 1.46 1.83 1.77 1.61 1.58 1.37
0.55 0.58 0.52 0.45 0.48 0.52 0.58 0.80 0.93 0.93 0.91 0.90 0.99 1.08 1.24 1.25 1.22 1.25 1.20 1.28 1.34 1.29 1.29 1.34 1.34 1.34 1.43 1.57 1.76 1.86 1.88 1.62 1.38 1.32 1.29 1.21 1.24 1.61 1.88 1.79 1.70 1.69 1.54
0.85 0.90 0.78 0.73 0.63 0.68 0.73 0.83 0.97 0.97 1.01 1.12 1.20 1.30 1.57 1.77 1.53 1.52 1.30 1.45 1.46 1.41 1.41 1.47 1.50 1.54 1.51 1.58 1.82 1.85 1.63 1.51 1.64 1.38 1.28 1.23 1.47 1.85 2.00 2.01 1.98 1.97 1.88
1.13 0.97 0.96 1.00 0.86 0.92 0.98 1.10 1.42 1.32 1.33 1.52 1.59 1.58 1.90 2.05 1.96 1.52 1.61 1.90 1.96 1.97 1.88 1.89 2.02 1.98 1.67 1.45 1.75 2.08 1.70 1.60 1.57 1.34 1.18 1.32 1.63 1.98 2.11 2.16 2.01 2.02 1.99
1.28 1.14 1.27 1.28 1.21 1.28 1.56 1.37 1.49 1.72 1.85 1.86 1.87 2.05 2.25 1.96 1.78 1.68 1.87 2.17 2.23 2.22 2.13 2.24 2.47 2.25 2.15 2.13 2.18 2.20 1.88 1.76 1.61 1.36 1.45 1.69 1.93 2.27 2.42 2.30 2.15 2.04 1.92
1.83 1.83 1.77 1.81 1.84 1.86 1.71 1.70 1.59 1.61 1.73 1.91 2.01 2.03 2.23 2.32 2.29 2.14 2.21 2.21 2.22 2.32 2.57 2.50 2.63 2.71 2.71 2.46 2.33 2.34 2.14 1.95 1.84 1.77 1.99 2.18 2.22 2.50 2.73 2.54 2.33 2.16 2.03
2.62 2.74 2.67 2.52 2.35 2.44 2.45 2.28 1.87 1.94 1.87 1.85 2.15 2.22 2.29 2.46 2.57 2.50 2.40 2.44 2.14 2.15 2.47 2.77 2.64 2.77 2.91 2.74 2.43 2.29 2.26 2.10 2.02 1.94 2.13 2.35 2.23 2.30 2.61 2.66 2.59 2.40 2.30
3.41 3.85 3.59 3.33 3.02 2.94 2.96 2.84 2.69 2.33 2.22 2.04 2.22 2.30 2.48 2.68 2.78 2.74 2.55 2.52 2.17 2.06 2.28 2.56 2.59 2.82 2.83 2.82 2.43 2.17 2.08 2.19 2.16 2.01 2.11 2.38 2.38 2.15 2.28 2.61 2.85 2.87 2.71
4.04 4.59 4.31 4.15 4.08 3.85 3.74 3.35 2.88 2.55 2.35 2.49 2.61 2.68 2.78 2.87 2.97 2.90 2.76 2.51 2.34 2.35 2.42 2.43 2.53 2.95 2.79 2.65 2.46 2.38 2.29 2.29 2.17 2.07 2.08 2.26 2.09 2.03 2.04 2.19 2.55 2.85 3.14
4.21 4.60 4.94 4.62 4.97 4.88 4.62 4.12 3.56 3.26 3.15 2.99 2.92 3.01 2.84 2.85 2.87 3.01 2.70 2.37 2.47 2.59 2.68 2.68 2.69 2.89 2.92 3.01 2.90 2.71 2.48 2.35 1.88 1.81 1.85 1.93 2.10 1.84 1.99 2.23 2.38 2.52 3.06
4.48 4.97 5.46 5.67 5.75 5.34 4.97 4.54 4.21 3.99 3.71 3.26 2.81 2.66 2.55 2.38 2.23 2.32 2.14 2.06 2.13 2.25 2.20 2.08 2.41 2.65 2.80 2.97 2.73 2.57 2.22 2.07 1.89 1.77 1.79 1.60 1.76 1.85 1.92 2.05 2.29 2.34 2.84
4.61 5.43 5.86 5.97 5.59 5.18 4.81 4.34 4.15 3.83 3.47 3.09 2.65 2.34 2.16 2.08 1.85 1.92 1.72 1.68 1.88 2.08 2.12 2.25 2.42 2.40 2.34 2.44 2.15 2.02 1.85 1.65 1.70 1.74 1.58 1.54 1.52 1.56 1.76 1.99 2.20 1.92 2.44
4.69 5.61 5.96 5.71 5.13 4.68 4.27 3.78 3.41 3.07 2.82 2.70 2.39 2.08 1.99 1.92 1.87 2.03 1.76 1.90 1.93 2.01 2.04 2.06 2.16 2.09 1.87 2.02 2.34 2.15 1.74 1.57 1.57 1.51 1.51 1.59 1.43 1.52 1.76 1.99 2.18 2.26 2.07
4.05 4.79 5.08 4.74 4.10 3.51 3.24 3.08 2.89 2.79 2.48 2.29 2.19 2.09 1.82 1.82 1.78 1.77 1.85 1.61 1.64 1.78 1.73 1.79 2.10 2.06 1.78 1.87 2.22 2.34 2.07 2.03 1.75 1.28 1.38 1.52 1.49 1.60 1.75 1.84 2.16 2.40 2.31
3.50 3.49 3.60 3.50 3.00 2.65 2.55 2.54 2.49 2.56 2.39 2.15 2.03 1.89 1.65 1.58 1.49 1.52 1.55 1.57 1.66 1.58 1.66 1.77 1.87 1.98 1.86 1.72 1.81 2.27 2.20 2.01 1.78 1.55 1.38 1.36 1.49 1.72 1.81 1.94 1.99 2.09 2.18
2.62 2.42 2.41 2.50 2.33 2.27 2.17 2.20 2.08 1.93 1.88 1.78 1.78 1.74 1.64 1.52 1.43 1.33 1.37 1.40 1.52 1.51 1.73 1.55 1.64 1.84 1.87 1.66 1.70 1.84 1.89 1.91 1.92 1.71 1.46 1.33 1.37 1.48 1.68 1.74 1.92 2.08 2.12
1.72 1.76 1.92 2.18 2.21 2.09 2.03 2.15 2.17 1.89 1.72 1.62 1.64 1.72 1.62 1.52 1.42 1.30 1.32 1.41 1.47 1.51 1.55 1.57 1.78 1.77 1.70 1.66 1.68 1.76 1.83 1.83 1.73 1.73 1.66 1.43 1.34 1.23 1.37 1.62 1.86 2.07 2.02
1.15 1.27 1.48 1.89 2.08 1.94 1.88 1.94 1.92 1.85 1.78 1.64 1.54 1.55 1.54 1.49 1.49 1.49 1.40 1.48 1.47 1.48 1.47 1.49 1.63 1.67 1.69 1.73 1.65 1.61 1.76 1.84 1.77 1.81 1.72 1.50 1.36 1.17 1.19 1.39 1.75 2.04 2.10